Wetterdaten: Mittwoch, 25.01.2023
Datum Zeit Temp. A. Pool Temp. Temp. 5cm Feuchte A. Luftdruck Regen Wind Richtung Richtung Sonnenschein ET UV Solar Taupunkt Windchill Windben Empfang
25.01.2023 00:00 0,7 C 3,9 C 0,6 C 96 % 1034,4 hPa 0,0 l/m 6,0 km/h (2 Bft) O-NO 70 0 min 0,000 mm 0,0 UV-I 0 W/m 0,1 C 0,7 C 9,7 km/h (2 Bft) 97,37 %
25.01.2023 00:02 0,7 C 3,9 C 0,6 C 96 % 1034,4 hPa 0,0 l/m 6,1 km/h (2 Bft) O 88 0 min 0,000 mm 0,0 UV-I 0 W/m 0,1 C 0,7 C 11,3 km/h (2 Bft) 100,00 %
25.01.2023 00:04 0,7 C 3,9 C 0,6 C 96 % 1034,4 hPa 0,0 l/m 6,7 km/h (2 Bft) O-NO 64 0 min 0,000 mm 0,0 UV-I 0 W/m 0,1 C 0,4 C 11,3 km/h (2 Bft) 100,00 %
25.01.2023 00:06 0,7 C 3,9 C 0,6 C 96 % 1034,4 hPa 0,0 l/m 7,0 km/h (2 Bft) O-NO 61 0 min 0,000 mm 0,0 UV-I 0 W/m 0,1 C 0,1 C 11,3 km/h (2 Bft) 100,00 %
25.01.2023 00:08 0,7 C 3,9 C 0,6 C 96 % 1034,4 hPa 0,0 l/m 6,4 km/h (2 Bft) NO 53 0 min 0,000 mm 0,0 UV-I 0 W/m 0,1 C 0,7 C 9,7 km/h (2 Bft) 97,87 %
25.01.2023 00:10 0,7 C 3,9 C 0,6 C 96 % 1034,4 hPa 0,0 l/m 5,0 km/h (1 Bft) O-NO 76 0 min 0,000 mm 0,0 UV-I 0 W/m 0,1 C 0,7 C 8,0 km/h (2 Bft) 98,00 %
25.01.2023 00:12 0,7 C 3,9 C 0,6 C 96 % 1034,4 hPa 0,0 l/m 6,3 km/h (2 Bft) O-NO 75 0 min 0,000 mm 0,0 UV-I 0 W/m 0,1 C 0,7 C 8,0 km/h (2 Bft) 98,00 %
25.01.2023 00:14 0,7 C 3,9 C 0,6 C 96 % 1034,4 hPa 0,0 l/m 6,1 km/h (2 Bft) NO 51 0 min 0,000 mm 0,0 UV-I 0 W/m 0,1 C 0,7 C 8,0 km/h (2 Bft) 94,74 %
25.01.2023 00:16 0,7 C 3,9 C 0,6 C 96 % 1034,4 hPa 0,0 l/m 6,9 km/h (2 Bft) O-NO 71 0 min 0,000 mm 0,0 UV-I 0 W/m 0,1 C 0,2 C 11,3 km/h (2 Bft) 96,23 %
25.01.2023 00:18 0,7 C 3,9 C 0,6 C 96 % 1034,3 hPa 0,0 l/m 7,1 km/h (2 Bft) NO 51 0 min 0,000 mm 0,0 UV-I 0 W/m 0,1 C -0,0 C 8,0 km/h (2 Bft) 97,73 %
25.01.2023 00:20 0,7 C 3,9 C 0,6 C 96 % 1034,4 hPa 0,0 l/m 6,4 km/h (2 Bft) O-NO 65 0 min 0,000 mm 0,0 UV-I 0 W/m 0,1 C 0,7 C 8,0 km/h (2 Bft) 94,34 %
25.01.2023 00:22 0,7 C 3,9 C 0,6 C 96 % 1034,4 hPa 0,0 l/m 6,3 km/h (2 Bft) O-NO 63 0 min 0,000 mm 0,0 UV-I 0 W/m 0,1 C 0,7 C 12,9 km/h (3 Bft) 97,37 %
25.01.2023 00:24 0,7 C 3,9 C 0,6 C 96 % 1034,4 hPa 0,0 l/m 6,7 km/h (2 Bft) O-NO 72 0 min 0,000 mm 0,0 UV-I 0 W/m 0,1 C 0,4 C 9,7 km/h (2 Bft) 98,00 %
25.01.2023 00:26 0,7 C 3,9 C 0,6 C 96 % 1034,4 hPa 0,0 l/m 6,6 km/h (2 Bft) O-NO 61 0 min 0,000 mm 0,0 UV-I 0 W/m 0,1 C 0,5 C 9,7 km/h (2 Bft) 96,00 %
25.01.2023 00:28 0,7 C 3,9 C 0,6 C 96 % 1034,4 hPa 0,0 l/m 5,9 km/h (2 Bft) O-NO 71 0 min 0,000 mm 0,0 UV-I 0 W/m 0,1 C 0,7 C 9,7 km/h (2 Bft) 98,00 %
25.01.2023 00:30 0,7 C 3,9 C 0,6 C 96 % 1034,4 hPa 0,0 l/m 7,2 km/h (2 Bft) O-NO 78 0 min 0,000 mm 0,0 UV-I 0 W/m 0,1 C -0,1 C 9,7 km/h (2 Bft) 97,37 %
25.01.2023 00:32 0,7 C 3,9 C 0,6 C 96 % 1034,4 hPa 0,0 l/m 6,5 km/h (2 Bft) O-NO 67 0 min 0,000 mm 0,0 UV-I 0 W/m 0,1 C 0,6 C 11,3 km/h (2 Bft) 95,74 %
25.01.2023 00:34 0,7 C 3,9 C 0,6 C 96 % 1034,4 hPa 0,0 l/m 6,5 km/h (2 Bft) O-NO 66 0 min 0,000 mm 0,0 UV-I 0 W/m 0,1 C 0,6 C 9,7 km/h (2 Bft) 96,00 %
25.01.2023 00:36 0,7 C 3,9 C 0,6 C 96 % 1034,3 hPa 0,0 l/m 7,3 km/h (2 Bft) O-NO 57 0 min 0,000 mm 0,0 UV-I 0 W/m 0,1 C -0,2 C 9,7 km/h (2 Bft) 95,45 %
25.01.2023 00:38 0,7 C 3,9 C 0,6 C 96 % 1034,3 hPa 0,0 l/m 7,2 km/h (2 Bft) NO 48 0 min 0,000 mm 0,0 UV-I 0 W/m 0,1 C -0,1 C 11,3 km/h (2 Bft) 95,74 %
25.01.2023 00:40 0,6 C 3,9 C 0,6 C 96 % 1034,4 hPa 0,0 l/m 6,4 km/h (2 Bft) O-NO 66 0 min 0,000 mm 0,0 UV-I 0 W/m 0,0 C 0,6 C 8,0 km/h (2 Bft) 91,49 %
25.01.2023 00:42 0,7 C 3,9 C 0,6 C 96 % 1034,3 hPa 0,0 l/m 7,3 km/h (2 Bft) O-NO 67 0 min 0,000 mm 0,0 UV-I 0 W/m 0,1 C -0,2 C 11,3 km/h (2 Bft) 96,00 %
25.01.2023 00:44 0,7 C 3,9 C 0,6 C 96 % 1034,4 hPa 0,0 l/m 8,7 km/h (2 Bft) NO 43 0 min 0,000 mm 0,0 UV-I 0 W/m 0,1 C -1,6 C 11,3 km/h (2 Bft) 97,56 %
25.01.2023 00:46 0,7 C 3,9 C 0,6 C 96 % 1034,3 hPa 0,0 l/m 6,1 km/h (2 Bft) O 83 0 min 0,000 mm 0,0 UV-I 0 W/m 0,1 C 0,7 C 9,7 km/h (2 Bft) 96,00 %
25.01.2023 00:48 0,7 C 3,9 C 0,6 C 96 % 1034,3 hPa 0,0 l/m 6,7 km/h (2 Bft) O-NO 62 0 min 0,000 mm 0,0 UV-I 0 W/m 0,1 C 0,4 C 9,7 km/h (2 Bft) 96,00 %
25.01.2023 00:50 0,7 C 3,9 C 0,6 C 96 % 1034,3 hPa 0,0 l/m 9,8 km/h (2 Bft) NO 49 0 min 0,000 mm 0,0 UV-I 0 W/m 0,1 C -2,5 C 16,1 km/h (3 Bft) 95,12 %
25.01.2023 00:52 0,7 C 3,9 C 0,6 C 96 % 1034,3 hPa 0,0 l/m 7,5 km/h (2 Bft) NO 53 0 min 0,000 mm 0,0 UV-I 0 W/m 0,1 C -0,4 C 11,3 km/h (2 Bft) 97,22 %
25.01.2023 00:54 0,7 C 3,9 C 0,6 C 96 % 1034,3 hPa 0,0 l/m 10,6 km/h (2 Bft) NO 55 0 min 0,000 mm 0,0 UV-I 0 W/m 0,1 C -3,2 C 17,7 km/h (3 Bft) 98,36 %
25.01.2023 00:56 0,7 C 3,9 C 0,0 C 95 % 1034,2 hPa 0,0 l/m 8,8 km/h (2 Bft) O-NO 57 0 min 0,000 mm 0,0 UV-I 0 W/m -0,0 C -1,7 C 12,9 km/h (3 Bft) 100,00 %
25.01.2023 00:58 0,7 C 3,9 C 0,0 C 95 % 1034,2 hPa 0,0 l/m 9,2 km/h (2 Bft) NO 49 0 min 0,000 mm 0,0 UV-I 0 W/m -0,0 C -2,0 C 14,5 km/h (3 Bft) 100,00 %
25.01.2023 01:00 0,7 C 3,9 C 0,0 C 95 % 1034,3 hPa 0,0 l/m 12,2 km/h (2 Bft) NO 39 0 min 0,000 mm 0,0 UV-I 0 W/m -0,0 C -4,3 C 17,7 km/h (3 Bft) 95,65 %
25.01.2023 01:02 0,7 C 3,9 C 0,0 C 95 % 1034,2 hPa 0,0 l/m 12,5 km/h (3 Bft) NO 38 0 min 0,000 mm 0,0 UV-I 0 W/m -0,0 C -4,5 C 19,3 km/h (3 Bft) 100,00 %
25.01.2023 01:04 0,7 C 3,9 C 0,0 C 95 % 1034,2 hPa 0,0 l/m 14,1 km/h (3 Bft) NO 51 0 min 0,000 mm 0,0 UV-I 0 W/m -0,0 C -5,6 C 19,3 km/h (3 Bft) 100,00 %
25.01.2023 01:06 0,7 C 3,9 C 0,0 C 95 % 1034,2 hPa 0,0 l/m 13,6 km/h (3 Bft) O-NO 67 0 min 0,000 mm 0,0 UV-I 0 W/m -0,0 C -5,3 C 22,5 km/h (4 Bft) 97,37 %
25.01.2023 01:08 0,8 C 3,9 C 0,0 C 95 % 1034,1 hPa 0,0 l/m 16,6 km/h (3 Bft) O 86 0 min 0,000 mm 0,0 UV-I 0 W/m 0,1 C -6,9 C 24,1 km/h (4 Bft) 100,00 %
25.01.2023 01:10 0,8 C 3,9 C 0,0 C 95 % 1034,1 hPa 0,0 l/m 15,1 km/h (3 Bft) SO 136 0 min 0,000 mm 0,0 UV-I 0 W/m 0,1 C -6,1 C 20,9 km/h (4 Bft) 100,00 %
25.01.2023 01:12 0,8 C 3,9 C 0,0 C 95 % 1034,1 hPa 0,0 l/m 13,0 km/h (3 Bft) O 94 0 min 0,000 mm 0,0 UV-I 0 W/m 0,1 C -4,8 C 20,9 km/h (4 Bft) 100,00 %
25.01.2023 01:14 0,8 C 3,9 C 0,0 C 94 % 1034,1 hPa 0,0 l/m 12,1 km/h (2 Bft) O 94 0 min 0,000 mm 0,0 UV-I 0 W/m -0,1 C -4,2 C 17,7 km/h (3 Bft) 100,00 %
25.01.2023 01:16 0,8 C 3,9 C 0,0 C 94 % 1034,1 hPa 0,0 l/m 14,1 km/h (3 Bft) O-SO 102 0 min 0,000 mm 0,0 UV-I 0 W/m -0,1 C -5,5 C 19,3 km/h (3 Bft) 96,23 %
25.01.2023 01:18 0,8 C 3,9 C 0,0 C 94 % 1034,1 hPa 0,0 l/m 12,6 km/h (3 Bft) O 87 0 min 0,000 mm 0,0 UV-I 0 W/m -0,1 C -4,5 C 16,1 km/h (3 Bft) 100,00 %
25.01.2023 01:20 0,9 C 3,9 C 0,0 C 94 % 1034,1 hPa 0,0 l/m 13,1 km/h (3 Bft) O-NO 71 0 min 0,000 mm 0,0 UV-I 0 W/m 0,0 C -4,7 C 17,7 km/h (3 Bft) 100,00 %
25.01.2023 01:22 0,9 C 3,9 C 0,0 C 94 % 1034,1 hPa 0,0 l/m 10,1 km/h (2 Bft) O-NO 74 0 min 0,000 mm 0,0 UV-I 0 W/m 0,0 C -2,5 C 12,9 km/h (3 Bft) 98,53 %
25.01.2023 01:24 0,9 C 3,9 C 0,0 C 94 % 1034,2 hPa 0,0 l/m 9,1 km/h (2 Bft) O 79 0 min 0,000 mm 0,0 UV-I 0 W/m 0,0 C -1,7 C 12,9 km/h (3 Bft) 100,00 %
25.01.2023 01:26 0,9 C 3,9 C 0,0 C 94 % 1034,2 hPa 0,0 l/m 8,6 km/h (2 Bft) NO 36 0 min 0,000 mm 0,0 UV-I 0 W/m 0,0 C -1,3 C 12,9 km/h (3 Bft) 100,00 %
25.01.2023 01:28 0,9 C 3,9 C 0,0 C 94 % 1034,2 hPa 0,0 l/m 7,1 km/h (2 Bft) O-NO 74 0 min 0,000 mm 0,0 UV-I 0 W/m 0,0 C 0,2 C 11,3 km/h (2 Bft) 100,00 %
25.01.2023 01:30 0,8 C 3,9 C 0,0 C 94 % 1034,2 hPa 0,0 l/m 6,6 km/h (2 Bft) O-NO 63 0 min 0,000 mm 0,0 UV-I 0 W/m -0,1 C 0,6 C 8,0 km/h (2 Bft) 100,00 %
25.01.2023 01:32 0,8 C 3,9 C 0,0 C 94 % 1034,2 hPa 0,0 l/m 5,3 km/h (1 Bft) NO 54 0 min 0,000 mm 0,0 UV-I 0 W/m -0,1 C 0,8 C 9,7 km/h (2 Bft) 100,00 %
25.01.2023 01:34 0,8 C 3,9 C 0,0 C 94 % 1034,1 hPa 0,0 l/m 6,2 km/h (2 Bft) O-NO 57 0 min 0,000 mm 0,0 UV-I 0 W/m -0,1 C 0,8 C 11,3 km/h (2 Bft) 98,11 %
25.01.2023 01:36 0,8 C 3,9 C 0,6 C 94 % 1034,2 hPa 0,0 l/m 6,2 km/h (2 Bft) O-NO 71 0 min 0,000 mm 0,0 UV-I 0 W/m -0,1 C 0,8 C 9,7 km/h (2 Bft) 96,23 %
25.01.2023 01:38 0,8 C 3,9 C 0,6 C 94 % 1034,2 hPa 0,0 l/m 7,7 km/h (2 Bft) O-NO 69 0 min 0,000 mm 0,0 UV-I 0 W/m -0,1 C -0,5 C 14,5 km/h (3 Bft) 97,87 %
25.01.2023 01:40 0,8 C 3,9 C 0,0 C 94 % 1034,2 hPa 0,0 l/m 8,6 km/h (2 Bft) NO 44 0 min 0,000 mm 0,0 UV-I 0 W/m -0,1 C -1,4 C 14,5 km/h (3 Bft) 100,00 %
25.01.2023 01:42 0,8 C 3,9 C 0,0 C 94 % 1034,1 hPa 0,0 l/m 11,5 km/h (2 Bft) NO 49 0 min 0,000 mm 0,0 UV-I 0 W/m -0,1 C -3,7 C 17,7 km/h (3 Bft) 100,00 %
25.01.2023 01:44 0,8 C 3,9 C 0,0 C 94 % 1034,3 hPa 0,0 l/m 10,1 km/h (2 Bft) NO 44 0 min 0,000 mm 0,0 UV-I 0 W/m -0,1 C -2,6 C 14,5 km/h (3 Bft) 100,00 %
25.01.2023 01:46 0,8 C 3,9 C 0,0 C 94 % 1034,2 hPa 0,0 l/m 11,3 km/h (2 Bft) NO 46 0 min 0,000 mm 0,0 UV-I 0 W/m -0,1 C -3,6 C 16,1 km/h (3 Bft) 100,00 %
25.01.2023 01:48 0,8 C 3,9 C 0,0 C 94 % 1034,3 hPa 0,0 l/m 9,4 km/h (2 Bft) NO 51 0 min 0,000 mm 0,0 UV-I 0 W/m -0,1 C -2,1 C 14,5 km/h (3 Bft) 96,23 %
25.01.2023 01:50 0,8 C 3,9 C 0,0 C 94 % 1034,2 hPa 0,0 l/m 11,7 km/h (2 Bft) NO 49 0 min 0,000 mm 0,0 UV-I 0 W/m -0,1 C -3,9 C 16,1 km/h (3 Bft) 97,56 %
25.01.2023 01:52 0,8 C 3,9 C 0,0 C 94 % 1034,2 hPa 0,0 l/m 11,2 km/h (2 Bft) O-NO 78 0 min 0,000 mm 0,0 UV-I 0 W/m -0,1 C -3,5 C 16,1 km/h (3 Bft) 97,87 %
25.01.2023 01:54 0,8 C 3,9 C 0,0 C 94 % 1034,2 hPa 0,0 l/m 12,0 km/h (2 Bft) O-NO 71 0 min 0,000 mm 0,0 UV-I 0 W/m -0,1 C -4,1 C 16,1 km/h (3 Bft) 97,87 %
25.01.2023 01:56 0,8 C 3,9 C 0,0 C 94 % 1034,2 hPa 0,0 l/m 8,6 km/h (2 Bft) NO 54 0 min 0,000 mm 0,0 UV-I 0 W/m -0,1 C -1,4 C 16,1 km/h (3 Bft) 96,00 %
25.01.2023 01:58 0,8 C 3,9 C 0,0 C 94 % 1034,1 hPa 0,0 l/m 7,4 km/h (2 Bft) O-NO 58 0 min 0,000 mm 0,0 UV-I 0 W/m -0,1 C -0,2 C 11,3 km/h (2 Bft) 98,11 %
25.01.2023 02:00 0,8 C 3,9 C 0,0 C 94 % 1034,1 hPa 0,0 l/m 4,7 km/h (1 Bft) O-NO 78 0 min 0,000 mm 0,0 UV-I 0 W/m -0,1 C 0,8 C 6,4 km/h (2 Bft) 97,56 %
25.01.2023 02:02 0,8 C 3,9 C 0,0 C 94 % 1034,1 hPa 0,0 l/m 5,0 km/h (1 Bft) O-NO 64 0 min 0,000 mm 0,0 UV-I 0 W/m -0,1 C 0,8 C 8,0 km/h (2 Bft) 100,00 %
25.01.2023 02:04 0,8 C 3,9 C 0,0 C 94 % 1034,1 hPa 0,0 l/m 7,0 km/h (2 Bft) O-NO 63 0 min 0,000 mm 0,0 UV-I 0 W/m -0,1 C 0,2 C 11,3 km/h (2 Bft) 96,08 %
25.01.2023 02:06 0,8 C 3,9 C 0,0 C 94 % 1034,0 hPa 0,0 l/m 7,6 km/h (2 Bft) O-NO 65 0 min 0,000 mm 0,0 UV-I 0 W/m -0,1 C -0,4 C 11,3 km/h (2 Bft) 95,74 %
25.01.2023 02:08 0,7 C 3,9 C 0,0 C 94 % 1034,0 hPa 0,0 l/m 5,7 km/h (1 Bft) O-NO 75 0 min 0,000 mm 0,0 UV-I 0 W/m -0,2 C 0,7 C 8,0 km/h (2 Bft) 97,37 %
25.01.2023 02:10 0,7 C 3,9 C 0,0 C 94 % 1034,0 hPa 0,0 l/m 5,8 km/h (2 Bft) O-NO 73 0 min 0,000 mm 0,0 UV-I 0 W/m -0,2 C 0,7 C 8,0 km/h (2 Bft) 100,00 %
25.01.2023 02:12 0,7 C 3,9 C 0,0 C 94 % 1033,9 hPa 0,0 l/m 4,8 km/h (1 Bft) O-NO 68 0 min 0,000 mm 0,0 UV-I 0 W/m -0,2 C 0,7 C 8,0 km/h (2 Bft) 97,56 %
25.01.2023 02:14 0,7 C 3,9 C 0,0 C 94 % 1034,0 hPa 0,0 l/m 5,6 km/h (1 Bft) NO 56 0 min 0,000 mm 0,0 UV-I 0 W/m -0,2 C 0,7 C 8,0 km/h (2 Bft) 96,23 %
25.01.2023 02:16 0,7 C 3,9 C 0,0 C 94 % 1033,9 hPa 0,0 l/m 4,7 km/h (1 Bft) O-NO 76 0 min 0,000 mm 0,0 UV-I 0 W/m -0,2 C 0,7 C 8,0 km/h (2 Bft) 98,00 %
25.01.2023 02:18 0,7 C 3,9 C 0,0 C 94 % 1033,9 hPa 0,0 l/m 5,9 km/h (2 Bft) O-NO 74 0 min 0,000 mm 0,0 UV-I 0 W/m -0,2 C 0,7 C 8,0 km/h (2 Bft) 97,37 %
25.01.2023 02:20 0,7 C 3,9 C 0,0 C 94 % 1033,9 hPa 0,0 l/m 4,4 km/h (1 Bft) O 85 0 min 0,000 mm 0,0 UV-I 0 W/m -0,2 C 0,7 C 6,4 km/h (2 Bft) 96,00 %
25.01.2023 02:22 0,7 C 3,9 C 0,0 C 94 % 1033,9 hPa 0,0 l/m 3,5 km/h (1 Bft) O-NO 78 0 min 0,000 mm 0,0 UV-I 0 W/m -0,2 C 0,7 C 6,4 km/h (2 Bft) 92,11 %
25.01.2023 02:24 0,7 C 3,9 C 0,0 C 94 % 1033,9 hPa 0,0 l/m 3,3 km/h (1 Bft) O 84 0 min 0,000 mm 0,0 UV-I 0 W/m -0,2 C 0,7 C 6,4 km/h (2 Bft) 94,34 %
25.01.2023 02:26 0,7 C 3,9 C 0,0 C 94 % 1033,8 hPa 0,0 l/m 3,1 km/h (1 Bft) O 84 0 min 0,000 mm 0,0 UV-I 0 W/m -0,2 C 0,7 C 4,8 km/h (1 Bft) 87,23 %
25.01.2023 02:28 0,7 C 3,9 C 0,0 C 94 % 1033,9 hPa 0,0 l/m 4,2 km/h (1 Bft) O-NO 60 0 min 0,000 mm 0,0 UV-I 0 W/m -0,2 C 0,7 C 11,3 km/h (2 Bft) 96,00 %
25.01.2023 02:30 0,7 C 3,9 C 0,0 C 94 % 1033,9 hPa 0,0 l/m 7,1 km/h (2 Bft) NO 52 0 min 0,000 mm 0,0 UV-I 0 W/m -0,2 C -0,0 C 11,3 km/h (2 Bft) 95,74 %
25.01.2023 02:32 0,7 C 3,9 C 0,0 C 94 % 1033,9 hPa 0,0 l/m 8,5 km/h (2 Bft) O-NO 76 0 min 0,000 mm 0,0 UV-I 0 W/m -0,2 C -1,4 C 16,1 km/h (3 Bft) 95,24 %
25.01.2023 02:34 0,7 C 3,9 C 0,0 C 94 % 1033,9 hPa 0,0 l/m 8,5 km/h (2 Bft) O-NO 59 0 min 0,000 mm 0,0 UV-I 0 W/m -0,2 C -1,4 C 14,5 km/h (3 Bft) 95,92 %
25.01.2023 02:36 0,8 C 3,9 C 0,0 C 94 % 1033,9 hPa 0,0 l/m 10,9 km/h (2 Bft) O-NO 74 0 min 0,000 mm 0,0 UV-I 0 W/m -0,1 C -3,3 C 14,5 km/h (3 Bft) 93,62 %
25.01.2023 02:38 0,8 C 3,9 C 0,0 C 94 % 1033,9 hPa 0,0 l/m 6,7 km/h (2 Bft) O-NO 65 0 min 0,000 mm 0,0 UV-I 0 W/m -0,1 C 0,5 C 9,7 km/h (2 Bft) 96,00 %
25.01.2023 02:40 0,8 C 3,9 C 0,0 C 94 % 1033,8 hPa 0,0 l/m 4,6 km/h (1 Bft) O-NO 66 0 min 0,000 mm 0,0 UV-I 0 W/m -0,1 C 0,8 C 6,4 km/h (2 Bft) 94,00 %
25.01.2023 02:42 0,8 C 3,9 C 0,0 C 94 % 1033,8 hPa 0,0 l/m 5,4 km/h (1 Bft) NO 40 0 min 0,000 mm 0,0 UV-I 0 W/m -0,1 C 0,8 C 8,0 km/h (2 Bft) 93,62 %
25.01.2023 02:44 0,8 C 3,9 C 0,0 C 94 % 1033,9 hPa 0,0 l/m 7,1 km/h (2 Bft) O 82 0 min 0,000 mm 0,0 UV-I 0 W/m -0,1 C 0,1 C 11,3 km/h (2 Bft) 94,87 %
25.01.2023 02:46 0,7 C 3,9 C 0,0 C 94 % 1033,9 hPa 0,0 l/m 7,8 km/h (2 Bft) NO 53 0 min 0,000 mm 0,0 UV-I 0 W/m -0,2 C -0,7 C 11,3 km/h (2 Bft) 94,00 %
25.01.2023 02:48 0,7 C 3,9 C 0,0 C 94 % 1033,9 hPa 0,0 l/m 8,0 km/h (2 Bft) O-NO 57 0 min 0,000 mm 0,0 UV-I 0 W/m -0,2 C -0,9 C 12,9 km/h (3 Bft) 94,23 %
25.01.2023 02:50 0,7 C 3,9 C 0,0 C 94 % 1033,9 hPa 0,0 l/m 8,3 km/h (2 Bft) O-NO 62 0 min 0,000 mm 0,0 UV-I 0 W/m -0,2 C -1,2 C 12,9 km/h (3 Bft) 97,87 %
25.01.2023 02:52 0,7 C 3,9 C 0,0 C 94 % 1033,9 hPa 0,0 l/m 8,6 km/h (2 Bft) NO 48 0 min 0,000 mm 0,0 UV-I 0 W/m -0,2 C -1,5 C 9,7 km/h (2 Bft) 94,87 %
25.01.2023 02:54 0,7 C 3,9 C 0,0 C 94 % 1033,9 hPa 0,0 l/m 6,8 km/h (2 Bft) NO 46 0 min 0,000 mm 0,0 UV-I 0 W/m -0,2 C 0,3 C 8,0 km/h (2 Bft) 97,87 %
25.01.2023 02:56 0,7 C 3,9 C 0,0 C 94 % 1033,9 hPa 0,0 l/m 6,9 km/h (2 Bft) NO 50 0 min 0,000 mm 0,0 UV-I 0 W/m -0,2 C 0,2 C 9,7 km/h (2 Bft) 96,00 %
25.01.2023 02:58 0,7 C 3,9 C 0,0 C 94 % 1033,9 hPa 0,0 l/m 6,6 km/h (2 Bft) NO 55 0 min 0,000 mm 0,0 UV-I 0 W/m -0,2 C 0,5 C 9,7 km/h (2 Bft) 98,00 %
25.01.2023 03:00 0,7 C 3,9 C 0,0 C 94 % 1033,8 hPa 0,0 l/m 7,3 km/h (2 Bft) NO 45 0 min 0,000 mm 0,0 UV-I 0 W/m -0,2 C -0,2 C 9,7 km/h (2 Bft) 97,56 %
25.01.2023 03:02 0,7 C 3,9 C 0,0 C 94 % 1033,9 hPa 0,0 l/m 7,1 km/h (2 Bft) NO 56 0 min 0,000 mm 0,0 UV-I 0 W/m -0,2 C -0,0 C 9,7 km/h (2 Bft) 93,62 %
25.01.2023 03:04 0,7 C 3,9 C 0,0 C 94 % 1033,9 hPa 0,0 l/m 7,4 km/h (2 Bft) O-NO 59 0 min 0,000 mm 0,0 UV-I 0 W/m -0,2 C -0,3 C 11,3 km/h (2 Bft) 93,62 %
25.01.2023 03:06 0,7 C 3,9 C 0,0 C 94 % 1033,9 hPa 0,0 l/m 6,8 km/h (2 Bft) NO 34 0 min 0,000 mm 0,0 UV-I 0 W/m -0,2 C 0,3 C 12,9 km/h (3 Bft) 95,45 %
25.01.2023 03:08 0,7 C 3,9 C 0,0 C 94 % 1033,9 hPa 0,0 l/m 9,6 km/h (2 Bft) O-NO 66 0 min 0,000 mm 0,0 UV-I 0 W/m -0,2 C -2,3 C 14,5 km/h (3 Bft) 96,23 %
25.01.2023 03:10 0,7 C 3,9 C 0,0 C 94 % 1033,9 hPa 0,0 l/m 7,2 km/h (2 Bft) N-NO 23 0 min 0,000 mm 0,0 UV-I 0 W/m -0,2 C -0,1 C 9,7 km/h (2 Bft) 92,00 %
25.01.2023 03:12 0,7 C 3,9 C 0,0 C 94 % 1033,9 hPa 0,0 l/m 10,1 km/h (2 Bft) O 83 0 min 0,000 mm 0,0 UV-I 0 W/m -0,2 C -2,8 C 16,1 km/h (3 Bft) 95,12 %
25.01.2023 03:14 0,7 C 3,9 C 0,0 C 94 % 1033,9 hPa 0,0 l/m 12,5 km/h (3 Bft) O-NO 66 0 min 0,000 mm 0,0 UV-I 0 W/m -0,2 C -4,5 C 19,3 km/h (3 Bft) 94,34 %
25.01.2023 03:16 0,7 C 3,9 C 0,0 C 94 % 1033,9 hPa 0,0 l/m 11,7 km/h (2 Bft) O-NO 69 0 min 0,000 mm 0,0 UV-I 0 W/m -0,2 C -4,0 C 17,7 km/h (3 Bft) 95,12 %
25.01.2023 03:18 0,7 C 3,9 C 0,6 C 94 % 1033,9 hPa 0,0 l/m 8,5 km/h (2 Bft) O-NO 73 0 min 0,000 mm 0,0 UV-I 0 W/m -0,2 C -1,4 C 12,9 km/h (3 Bft) 95,74 %
25.01.2023 03:20 0,7 C 3,9 C 0,6 C 94 % 1033,9 hPa 0,0 l/m 5,9 km/h (2 Bft) O-NO 69 0 min 0,000 mm 0,0 UV-I 0 W/m -0,2 C 0,7 C 9,7 km/h (2 Bft) 96,00 %
25.01.2023 03:22 0,7 C 3,9 C 0,6 C 94 % 1033,9 hPa 0,0 l/m 5,6 km/h (1 Bft) NO 54 0 min 0,000 mm 0,0 UV-I 0 W/m -0,2 C 0,7 C 9,7 km/h (2 Bft) 92,31 %
25.01.2023 03:24 0,7 C 3,9 C 0,6 C 94 % 1033,9 hPa 0,0 l/m 6,5 km/h (2 Bft) O-NO 77 0 min 0,000 mm 0,0 UV-I 0 W/m -0,2 C 0,6 C 9,7 km/h (2 Bft) 96,92 %
25.01.2023 03:26 0,7 C 3,9 C 0,6 C 94 % 1033,9 hPa 0,0 l/m 6,7 km/h (2 Bft) O-NO 76 0 min 0,000 mm 0,0 UV-I 0 W/m -0,2 C 0,4 C 12,9 km/h (3 Bft) 96,23 %
25.01.2023 03:28 0,7 C 3,9 C 0,6 C 94 % 1033,9 hPa 0,0 l/m 6,9 km/h (2 Bft) O-NO 76 0 min 0,000 mm 0,0 UV-I 0 W/m -0,2 C 0,2 C 12,9 km/h (3 Bft) 97,87 %
25.01.2023 03:30 0,7 C 3,9 C 0,0 C 94 % 1033,8 hPa 0,0 l/m 6,5 km/h (2 Bft) O 86 0 min 0,000 mm 0,0 UV-I 0 W/m -0,2 C 0,6 C 8,0 km/h (2 Bft) 97,56 %
25.01.2023 03:32 0,7 C 3,9 C 0,0 C 94 % 1033,9 hPa 0,0 l/m 5,2 km/h (1 Bft) O-NO 75 0 min 0,000 mm 0,0 UV-I 0 W/m -0,2 C 0,7 C 6,4 km/h (2 Bft) 96,00 %
25.01.2023 03:34 0,7 C 3,9 C 0,0 C 94 % 1033,8 hPa 0,0 l/m 5,4 km/h (1 Bft) O 93 0 min 0,000 mm 0,0 UV-I 0 W/m -0,2 C 0,7 C 9,7 km/h (2 Bft) 100,00 %
25.01.2023 03:36 0,7 C 3,9 C 0,0 C 94 % 1033,8 hPa 0,0 l/m 5,3 km/h (1 Bft) O-SO 103 0 min 0,000 mm 0,0 UV-I 0 W/m -0,2 C 0,7 C 9,7 km/h (2 Bft) 100,00 %
25.01.2023 03:38 0,7 C 3,9 C 0,0 C 94 % 1033,8 hPa 0,0 l/m 7,1 km/h (2 Bft) O-SO 108 0 min 0,000 mm 0,0 UV-I 0 W/m -0,2 C -0,0 C 11,3 km/h (2 Bft) 100,00 %
25.01.2023 03:40 0,7 C 3,9 C 0,0 C 94 % 1033,8 hPa 0,0 l/m 7,1 km/h (2 Bft) O 100 0 min 0,000 mm 0,0 UV-I 0 W/m -0,2 C -0,0 C 11,3 km/h (2 Bft) 100,00 %
25.01.2023 03:42 0,7 C 3,9 C 0,0 C 94 % 1033,7 hPa 0,0 l/m 5,6 km/h (1 Bft) O-NO 71 0 min 0,000 mm 0,0 UV-I 0 W/m -0,2 C 0,7 C 9,7 km/h (2 Bft) 100,00 %
25.01.2023 03:44 0,7 C 3,9 C 0,6 C 94 % 1033,7 hPa 0,0 l/m 7,0 km/h (2 Bft) O-NO 67 0 min 0,000 mm 0,0 UV-I 0 W/m -0,2 C 0,1 C 11,3 km/h (2 Bft) 100,00 %
25.01.2023 03:46 0,7 C 3,9 C 0,6 C 94 % 1033,7 hPa 0,0 l/m 7,3 km/h (2 Bft) O-NO 61 0 min 0,000 mm 0,0 UV-I 0 W/m -0,2 C -0,2 C 11,3 km/h (2 Bft) 100,00 %
25.01.2023 03:48 0,7 C 3,9 C 0,6 C 94 % 1033,7 hPa 0,0 l/m 6,6 km/h (2 Bft) NO 51 0 min 0,000 mm 0,0 UV-I 0 W/m -0,2 C 0,5 C 9,7 km/h (2 Bft) 100,00 %
25.01.2023 03:50 0,7 C 3,9 C 0,0 C 94 % 1033,7 hPa 0,0 l/m 5,8 km/h (2 Bft) O-NO 63 0 min 0,000 mm 0,0 UV-I 0 W/m -0,2 C 0,7 C 8,0 km/h (2 Bft) 100,00 %
25.01.2023 03:52 0,7 C 3,9 C 0,0 C 94 % 1033,7 hPa 0,0 l/m 6,1 km/h (2 Bft) O-NO 75 0 min 0,000 mm 0,0 UV-I 0 W/m -0,2 C 0,7 C 9,7 km/h (2 Bft) 100,00 %
25.01.2023 03:54 0,7 C 3,9 C 0,0 C 94 % 1033,7 hPa 0,0 l/m 8,8 km/h (2 Bft) O-NO 74 0 min 0,000 mm 0,0 UV-I 0 W/m -0,2 C -1,7 C 11,3 km/h (2 Bft) 97,56 %
25.01.2023 03:56 0,7 C 3,9 C 0,0 C 94 % 1033,6 hPa 0,0 l/m 8,0 km/h (2 Bft) O-NO 74 0 min 0,000 mm 0,0 UV-I 0 W/m -0,2 C -0,9 C 12,9 km/h (3 Bft) 100,00 %
25.01.2023 03:58 0,7 C 3,9 C 0,0 C 94 % 1033,6 hPa 0,0 l/m 8,7 km/h (2 Bft) O 92 0 min 0,000 mm 0,0 UV-I 0 W/m -0,2 C -1,6 C 12,9 km/h (3 Bft) 97,87 %
25.01.2023 04:00 0,7 C 3,9 C 0,0 C 94 % 1033,6 hPa 0,0 l/m 5,5 km/h (1 Bft) O-SO 113 0 min 0,000 mm 0,0 UV-I 0 W/m -0,2 C 0,7 C 11,3 km/h (2 Bft) 98,00 %
25.01.2023 04:02 0,7 C 3,9 C 0,0 C 94 % 1033,6 hPa 0,0 l/m 1,7 km/h (1 Bft) O-SO 113 0 min 0,000 mm 0,0 UV-I 0 W/m -0,2 C 0,7 C 3,2 km/h (1 Bft) 100,00 %
25.01.2023 04:04 0,7 C 3,9 C 0,0 C 94 % 1033,7 hPa 0,0 l/m 4,1 km/h (1 Bft) O-NO 71 0 min 0,000 mm 0,0 UV-I 0 W/m -0,2 C 0,7 C 6,4 km/h (2 Bft) 95,74 %
25.01.2023 04:06 0,7 C 3,9 C 0,0 C 94 % 1033,6 hPa 0,0 l/m 4,1 km/h (1 Bft) O-NO 72 0 min 0,000 mm 0,0 UV-I 0 W/m -0,2 C 0,7 C 6,4 km/h (2 Bft) 97,87 %
25.01.2023 04:08 0,7 C 3,9 C 0,6 C 94 % 1033,6 hPa 0,0 l/m 4,5 km/h (1 Bft) O-NO 76 0 min 0,000 mm 0,0 UV-I 0 W/m -0,2 C 0,7 C 6,4 km/h (2 Bft) 100,00 %
25.01.2023 04:10 0,7 C 3,9 C 0,6 C 94 % 1033,7 hPa 0,0 l/m 4,4 km/h (1 Bft) O-NO 64 0 min 0,000 mm 0,0 UV-I 0 W/m -0,2 C 0,7 C 6,4 km/h (2 Bft) 100,00 %
25.01.2023 04:12 0,7 C 3,9 C 0,6 C 94 % 1033,7 hPa 0,0 l/m 3,4 km/h (1 Bft) O-NO 65 0 min 0,000 mm 0,0 UV-I 0 W/m -0,2 C 0,7 C 6,4 km/h (2 Bft) 98,21 %
25.01.2023 04:14 0,7 C 3,9 C 0,6 C 94 % 1033,7 hPa 0,0 l/m 5,6 km/h (1 Bft) O-NO 76 0 min 0,000 mm 0,0 UV-I 0 W/m -0,2 C 0,7 C 11,3 km/h (2 Bft) 100,00 %
25.01.2023 04:16 0,7 C 3,9 C 0,0 C 94 % 1033,6 hPa 0,0 l/m 6,2 km/h (2 Bft) NO 55 0 min 0,000 mm 0,0 UV-I 0 W/m -0,2 C 0,7 C 9,7 km/h (2 Bft) 100,00 %
25.01.2023 04:18 0,7 C 3,9 C 0,0 C 94 % 1033,6 hPa 0,0 l/m 9,1 km/h (2 Bft) O-NO 65 0 min 0,000 mm 0,0 UV-I 0 W/m -0,2 C -1,9 C 12,9 km/h (3 Bft) 98,11 %
25.01.2023 04:20 0,7 C 3,9 C 0,0 C 94 % 1033,6 hPa 0,0 l/m 6,2 km/h (2 Bft) O 86 0 min 0,000 mm 0,0 UV-I 0 W/m -0,2 C 0,7 C 9,7 km/h (2 Bft) 94,34 %
25.01.2023 04:22 0,7 C 3,9 C 0,0 C 94 % 1033,6 hPa 0,0 l/m 10,6 km/h (2 Bft) O-SO 103 0 min 0,000 mm 0,0 UV-I 0 W/m -0,2 C -3,2 C 17,7 km/h (3 Bft) 97,37 %
25.01.2023 04:24 0,7 C 3,9 C 0,0 C 94 % 1033,6 hPa 0,0 l/m 12,6 km/h (3 Bft) O 100 0 min 0,000 mm 0,0 UV-I 0 W/m -0,2 C -4,6 C 19,3 km/h (3 Bft) 92,00 %
25.01.2023 04:26 0,7 C 3,9 C 0,0 C 94 % 1033,6 hPa 0,0 l/m 13,7 km/h (3 Bft) O 84 0 min 0,000 mm 0,0 UV-I 0 W/m -0,2 C -5,3 C 19,3 km/h (3 Bft) 93,62 %
25.01.2023 04:28 0,7 C 3,9 C 0,0 C 94 % 1033,6 hPa 0,0 l/m 12,0 km/h (2 Bft) O 84 0 min 0,000 mm 0,0 UV-I 0 W/m -0,2 C -4,2 C 16,1 km/h (3 Bft) 96,00 %
25.01.2023 04:30 0,7 C 3,9 C 0,0 C 94 % 1033,6 hPa 0,0 l/m 7,6 km/h (2 Bft) O 83 0 min 0,000 mm 0,0 UV-I 0 W/m -0,2 C -0,5 C 11,3 km/h (2 Bft) 95,74 %
25.01.2023 04:32 0,7 C 3,9 C 0,0 C 94 % 1033,6 hPa 0,0 l/m 9,7 km/h (2 Bft) O-NO 71 0 min 0,000 mm 0,0 UV-I 0 W/m -0,2 C -2,4 C 12,9 km/h (3 Bft) 95,74 %
25.01.2023 04:34 0,7 C 3,9 C 0,0 C 94 % 1033,6 hPa 0,0 l/m 8,2 km/h (2 Bft) O-NO 58 0 min 0,000 mm 0,0 UV-I 0 W/m -0,2 C -1,1 C 12,9 km/h (3 Bft) 95,12 %
25.01.2023 04:36 0,7 C 3,9 C 0,0 C 94 % 1033,6 hPa 0,0 l/m 6,6 km/h (2 Bft) O-NO 58 0 min 0,000 mm 0,0 UV-I 0 W/m -0,2 C 0,5 C 9,7 km/h (2 Bft) 96,43 %
25.01.2023 04:38 0,7 C 3,9 C 0,0 C 93 % 1033,5 hPa 0,0 l/m 4,7 km/h (1 Bft) O-NO 69 0 min 0,000 mm 0,0 UV-I 0 W/m -0,3 C 0,7 C 8,0 km/h (2 Bft) 91,49 %
25.01.2023 04:40 0,7 C 3,9 C 0,0 C 94 % 1033,6 hPa 0,0 l/m 6,8 km/h (2 Bft) NO 54 0 min 0,000 mm 0,0 UV-I 0 W/m -0,2 C 0,3 C 9,7 km/h (2 Bft) 97,37 %
25.01.2023 04:42 0,7 C 3,9 C 0,0 C 94 % 1033,5 hPa 0,0 l/m 8,8 km/h (2 Bft) O-SO 111 0 min 0,000 mm 0,0 UV-I 0 W/m -0,2 C -1,7 C 16,1 km/h (3 Bft) 96,23 %
25.01.2023 04:44 0,7 C 3,9 C 0,0 C 94 % 1033,5 hPa 0,0 l/m 9,3 km/h (2 Bft) O 80 0 min 0,000 mm 0,0 UV-I 0 W/m -0,2 C -2,1 C 16,1 km/h (3 Bft) 97,56 %
25.01.2023 04:46 0,7 C 3,9 C 0,0 C 94 % 1033,5 hPa 0,0 l/m 10,3 km/h (2 Bft) O-NO 78 0 min 0,000 mm 0,0 UV-I 0 W/m -0,2 C -2,9 C 14,5 km/h (3 Bft) 97,87 %
25.01.2023 04:48 0,7 C 3,9 C 0,0 C 93 % 1033,5 hPa 0,0 l/m 10,6 km/h (2 Bft) O 81 0 min 0,000 mm 0,0 UV-I 0 W/m -0,3 C -3,2 C 16,1 km/h (3 Bft) 96,23 %
25.01.2023 04:50 0,7 C 3,9 C 0,0 C 93 % 1033,5 hPa 0,0 l/m 8,3 km/h (2 Bft) NO 49 0 min 0,000 mm 0,0 UV-I 0 W/m -0,3 C -1,2 C 14,5 km/h (3 Bft) 97,87 %
25.01.2023 04:52 0,7 C 3,9 C 0,0 C 93 % 1033,4 hPa 0,0 l/m 8,3 km/h (2 Bft) O-NO 74 0 min 0,000 mm 0,0 UV-I 0 W/m -0,3 C -1,2 C 16,1 km/h (3 Bft) 95,74 %
25.01.2023 04:54 0,7 C 3,9 C 0,0 C 93 % 1033,4 hPa 0,0 l/m 13,1 km/h (3 Bft) NO 48 0 min 0,000 mm 0,0 UV-I 0 W/m -0,3 C -4,9 C 17,7 km/h (3 Bft) 100,00 %
25.01.2023 04:56 0,7 C 3,9 C 0,0 C 93 % 1033,4 hPa 0,0 l/m 13,0 km/h (3 Bft) O-NO 78 0 min 0,000 mm 0,0 UV-I 0 W/m -0,3 C -4,9 C 19,3 km/h (3 Bft) 100,00 %
25.01.2023 04:58 0,7 C 3,9 C 0,0 C 93 % 1033,3 hPa 0,0 l/m 13,1 km/h (3 Bft) O 96 0 min 0,000 mm 0,0 UV-I 0 W/m -0,3 C -4,9 C 19,3 km/h (3 Bft) 97,87 %
25.01.2023 05:00 0,7 C 3,9 C 0,0 C 93 % 1033,3 hPa 0,0 l/m 13,1 km/h (3 Bft) O 92 0 min 0,000 mm 0,0 UV-I 0 W/m -0,3 C -4,9 C 17,7 km/h (3 Bft) 100,00 %
25.01.2023 05:02 0,7 C 3,9 C 0,0 C 93 % 1033,3 hPa 0,0 l/m 13,0 km/h (3 Bft) O 88 0 min 0,000 mm 0,0 UV-I 0 W/m -0,3 C -4,9 C 17,7 km/h (3 Bft) 97,87 %
25.01.2023 05:04 0,7 C 3,9 C 0,0 C 93 % 1033,3 hPa 0,0 l/m 11,7 km/h (2 Bft) O-NO 71 0 min 0,000 mm 0,0 UV-I 0 W/m -0,3 C -4,0 C 14,5 km/h (3 Bft) 100,00 %
25.01.2023 05:06 0,7 C 3,9 C 0,0 C 93 % 1033,3 hPa 0,0 l/m 9,0 km/h (2 Bft) O 97 0 min 0,000 mm 0,0 UV-I 0 W/m -0,3 C -1,8 C 12,9 km/h (3 Bft) 100,00 %
25.01.2023 05:08 0,7 C 3,9 C 0,0 C 93 % 1033,3 hPa 0,0 l/m 8,4 km/h (2 Bft) O 85 0 min 0,000 mm 0,0 UV-I 0 W/m -0,3 C -1,3 C 12,9 km/h (3 Bft) 100,00 %
25.01.2023 05:10 0,7 C 3,9 C 0,0 C 93 % 1033,3 hPa 0,0 l/m 8,9 km/h (2 Bft) O 80 0 min 0,000 mm 0,0 UV-I 0 W/m -0,3 C -1,7 C 14,5 km/h (3 Bft) 100,00 %
25.01.2023 05:12 0,7 C 3,9 C 0,0 C 93 % 1033,2 hPa 0,0 l/m 8,4 km/h (2 Bft) O 82 0 min 0,000 mm 0,0 UV-I 0 W/m -0,3 C -1,3 C 12,9 km/h (3 Bft) 100,00 %
25.01.2023 05:14 0,7 C 3,9 C 0,0 C 93 % 1033,2 hPa 0,0 l/m 9,0 km/h (2 Bft) O-NO 62 0 min 0,000 mm 0,0 UV-I 0 W/m -0,3 C -1,8 C 12,9 km/h (3 Bft) 100,00 %
25.01.2023 05:16 0,7 C 3,9 C 0,0 C 93 % 1033,2 hPa 0,0 l/m 7,1 km/h (2 Bft) O-SO 106 0 min 0,000 mm 0,0 UV-I 0 W/m -0,3 C -0,0 C 11,3 km/h (2 Bft) 100,00 %
25.01.2023 05:18 0,7 C 3,9 C 0,0 C 94 % 1033,2 hPa 0,0 l/m 7,9 km/h (2 Bft) O-SO 112 0 min 0,000 mm 0,0 UV-I 0 W/m -0,2 C -0,8 C 14,5 km/h (3 Bft) 100,00 %
25.01.2023 05:20 0,7 C 3,9 C 0,0 C 94 % 1033,1 hPa 0,0 l/m 9,8 km/h (2 Bft) O-SO 108 0 min 0,000 mm 0,0 UV-I 0 W/m -0,2 C -2,5 C 14,5 km/h (3 Bft) 97,56 %
25.01.2023 05:22 0,7 C 3,9 C 0,0 C 94 % 1033,1 hPa 0,0 l/m 7,4 km/h (2 Bft) O 96 0 min 0,000 mm 0,0 UV-I 0 W/m -0,2 C -0,3 C 12,9 km/h (3 Bft) 100,00 %
25.01.2023 05:24 0,7 C 3,9 C 0,0 C 94 % 1033,1 hPa 0,0 l/m 6,0 km/h (2 Bft) O-NO 78 0 min 0,000 mm 0,0 UV-I 0 W/m -0,2 C 0,7 C 11,3 km/h (2 Bft) 97,87 %
25.01.2023 05:26 0,7 C 3,9 C 0,0 C 94 % 1033,1 hPa 0,0 l/m 5,6 km/h (1 Bft) O 90 0 min 0,000 mm 0,0 UV-I 0 W/m -0,2 C 0,7 C 8,0 km/h (2 Bft) 100,00 %
25.01.2023 05:28 0,7 C 3,9 C 0,0 C 94 % 1033,1 hPa 0,0 l/m 4,6 km/h (1 Bft) O-NO 76 0 min 0,000 mm 0,0 UV-I 0 W/m -0,2 C 0,7 C 6,4 km/h (2 Bft) 100,00 %
25.01.2023 05:30 0,7 C 3,9 C 0,0 C 94 % 1033,1 hPa 0,0 l/m 4,2 km/h (1 Bft) NO 55 0 min 0,000 mm 0,0 UV-I 0 W/m -0,2 C 0,7 C 6,4 km/h (2 Bft) 100,00 %
25.01.2023 05:32 0,7 C 3,9 C 0,0 C 94 % 1033,0 hPa 0,0 l/m 4,3 km/h (1 Bft) NO 51 0 min 0,000 mm 0,0 UV-I 0 W/m -0,2 C 0,7 C 6,4 km/h (2 Bft) 100,00 %
25.01.2023 05:34 0,6 C 3,9 C 0,0 C 94 % 1033,0 hPa 0,0 l/m 6,5 km/h (2 Bft) O-SO 103 0 min 0,000 mm 0,0 UV-I 0 W/m -0,3 C 0,5 C 11,3 km/h (2 Bft) 98,11 %
25.01.2023 05:36 0,6 C 3,9 C 0,0 C 94 % 1033,0 hPa 0,0 l/m 9,1 km/h (2 Bft) O-SO 106 0 min 0,000 mm 0,0 UV-I 0 W/m -0,3 C -2,0 C 16,1 km/h (3 Bft) 94,74 %
25.01.2023 05:38 0,6 C 3,9 C 0,0 C 94 % 1033,0 hPa 0,0 l/m 10,9 km/h (2 Bft) O-SO 115 0 min 0,000 mm 0,0 UV-I 0 W/m -0,3 C -3,5 C 16,1 km/h (3 Bft) 97,44 %
25.01.2023 05:40 0,6 C 3,9 C 0,0 C 94 % 1032,9 hPa 0,0 l/m 8,9 km/h (2 Bft) O-SO 113 0 min 0,000 mm 0,0 UV-I 0 W/m -0,3 C -1,8 C 12,9 km/h (3 Bft) 98,18 %
25.01.2023 05:42 0,6 C 3,9 C 0,0 C 94 % 1032,9 hPa 0,0 l/m 5,0 km/h (1 Bft) O 86 0 min 0,000 mm 0,0 UV-I 0 W/m -0,3 C 0,6 C 9,7 km/h (2 Bft) 98,00 %
25.01.2023 05:44 0,6 C 3,9 C 0,0 C 94 % 1032,9 hPa 0,0 l/m 8,6 km/h (2 Bft) O 92 0 min 0,000 mm 0,0 UV-I 0 W/m -0,3 C -1,6 C 12,9 km/h (3 Bft) 97,62 %
25.01.2023 05:46 0,6 C 3,9 C 0,0 C 94 % 1032,9 hPa 0,0 l/m 9,0 km/h (2 Bft) O 95 0 min 0,000 mm 0,0 UV-I 0 W/m -0,3 C -1,9 C 14,5 km/h (3 Bft) 96,00 %
25.01.2023 05:48 0,7 C 3,9 C 0,0 C 94 % 1032,9 hPa 0,0 l/m 7,8 km/h (2 Bft) O-NO 69 0 min 0,000 mm 0,0 UV-I 0 W/m -0,2 C -0,7 C 12,9 km/h (3 Bft) 97,96 %
25.01.2023 05:50 0,6 C 3,9 C 0,0 C 94 % 1032,9 hPa 0,0 l/m 7,9 km/h (2 Bft) O-NO 77 0 min 0,000 mm 0,0 UV-I 0 W/m -0,3 C -0,9 C 12,9 km/h (3 Bft) 96,00 %
25.01.2023 05:52 0,6 C 3,9 C 0,0 C 94 % 1032,9 hPa 0,0 l/m 6,8 km/h (2 Bft) O-NO 74 0 min 0,000 mm 0,0 UV-I 0 W/m -0,3 C 0,2 C 9,7 km/h (2 Bft) 91,49 %
25.01.2023 05:54 0,6 C 3,9 C 0,0 C 94 % 1032,9 hPa 0,0 l/m 10,4 km/h (2 Bft) O-NO 72 0 min 0,000 mm 0,0 UV-I 0 W/m -0,3 C -3,1 C 16,1 km/h (3 Bft) 97,87 %
25.01.2023 05:56 0,6 C 3,9 C 0,0 C 94 % 1032,9 hPa 0,0 l/m 13,2 km/h (3 Bft) O 87 0 min 0,000 mm 0,0 UV-I 0 W/m -0,3 C -5,1 C 17,7 km/h (3 Bft) 97,62 %
25.01.2023 05:58 0,6 C 3,9 C 0,0 C 94 % 1032,9 hPa 0,0 l/m 12,4 km/h (3 Bft) O 88 0 min 0,000 mm 0,0 UV-I 0 W/m -0,3 C -4,6 C 16,1 km/h (3 Bft) 100,00 %
25.01.2023 06:00 0,6 C 3,9 C 0,0 C 94 % 1032,9 hPa 0,0 l/m 8,7 km/h (2 Bft) O 92 0 min 0,000 mm 0,0 UV-I 0 W/m -0,3 C -1,7 C 14,5 km/h (3 Bft) 100,00 %
25.01.2023 06:02 0,6 C 3,9 C 0,0 C 94 % 1032,9 hPa 0,0 l/m 7,1 km/h (2 Bft) O-NO 78 0 min 0,000 mm 0,0 UV-I 0 W/m -0,3 C -0,1 C 12,9 km/h (3 Bft) 100,00 %
25.01.2023 06:04 0,6 C 3,9 C 0,0 C 94 % 1032,9 hPa 0,0 l/m 7,2 km/h (2 Bft) O-NO 69 0 min 0,000 mm 0,0 UV-I 0 W/m -0,3 C -0,2 C 11,3 km/h (2 Bft) 100,00 %
25.01.2023 06:06 0,6 C 3,9 C 0,0 C 94 % 1033,0 hPa 0,0 l/m 5,9 km/h (2 Bft) O-NO 67 0 min 0,000 mm 0,0 UV-I 0 W/m -0,3 C 0,6 C 8,0 km/h (2 Bft) 100,00 %
25.01.2023 06:08 0,6 C 3,9 C 0,0 C 94 % 1032,9 hPa 0,0 l/m 6,6 km/h (2 Bft) O-NO 75 0 min 0,000 mm 0,0 UV-I 0 W/m -0,3 C 0,4 C 12,9 km/h (3 Bft) 98,08 %
25.01.2023 06:10 0,6 C 3,9 C 0,0 C 94 % 1032,9 hPa 0,0 l/m 6,2 km/h (2 Bft) O-NO 69 0 min 0,000 mm 0,0 UV-I 0 W/m -0,3 C 0,6 C 8,0 km/h (2 Bft) 100,00 %
25.01.2023 06:12 0,6 C 3,9 C 0,0 C 94 % 1032,9 hPa 0,0 l/m 6,0 km/h (2 Bft) NO 55 0 min 0,000 mm 0,0 UV-I 0 W/m -0,3 C 0,6 C 9,7 km/h (2 Bft) 100,00 %
25.01.2023 06:14 0,6 C 3,9 C 0,0 C 94 % 1032,8 hPa 0,0 l/m 8,2 km/h (2 Bft) NO 53 0 min 0,000 mm 0,0 UV-I 0 W/m -0,3 C -1,2 C 12,9 km/h (3 Bft) 100,00 %
25.01.2023 06:16 0,6 C 3,9 C 0,0 C 94 % 1032,9 hPa 0,0 l/m 7,8 km/h (2 Bft) NO 34 0 min 0,000 mm 0,0 UV-I 0 W/m -0,3 C -0,8 C 11,3 km/h (2 Bft) 100,00 %
25.01.2023 06:18 0,6 C 3,9 C 0,0 C 94 % 1032,8 hPa 0,0 l/m 7,7 km/h (2 Bft) NO 52 0 min 0,000 mm 0,0 UV-I 0 W/m -0,3 C -0,7 C 11,3 km/h (2 Bft) 100,00 %
25.01.2023 06:20 0,6 C 3,9 C 0,0 C 94 % 1032,8 hPa 0,0 l/m 8,0 km/h (2 Bft) NO 50 0 min 0,000 mm 0,0 UV-I 0 W/m -0,3 C -1,0 C 12,9 km/h (3 Bft) 96,00 %
25.01.2023 06:22 0,6 C 3,9 C 0,0 C 94 % 1032,8 hPa 0,0 l/m 6,8 km/h (2 Bft) O 80 0 min 0,000 mm 0,0 UV-I 0 W/m -0,3 C 0,2 C 11,3 km/h (2 Bft) 95,74 %
25.01.2023 06:24 0,6 C 3,9 C 0,0 C 94 % 1032,8 hPa 0,0 l/m 9,7 km/h (2 Bft) O 86 0 min 0,000 mm 0,0 UV-I 0 W/m -0,3 C -2,5 C 12,9 km/h (3 Bft) 100,00 %
25.01.2023 06:26 0,6 C 3,9 C 0,0 C 94 % 1032,9 hPa 0,0 l/m 7,4 km/h (2 Bft) O 84 0 min 0,000 mm 0,0 UV-I 0 W/m -0,3 C -0,4 C 12,9 km/h (3 Bft) 92,68 %
25.01.2023 06:28 0,6 C 3,9 C 0,0 C 94 % 1032,9 hPa 0,0 l/m 6,4 km/h (2 Bft) O-NO 62 0 min 0,000 mm 0,0 UV-I 0 W/m -0,3 C 0,6 C 9,7 km/h (2 Bft) 96,00 %
25.01.2023 06:30 0,5 C 3,9 C 0,0 C 94 % 1032,9 hPa 0,0 l/m 5,8 km/h (2 Bft) O 89 0 min 0,000 mm 0,0 UV-I 0 W/m -0,4 C 0,5 C 9,7 km/h (2 Bft) 95,74 %
25.01.2023 06:32 0,6 C 3,9 C 0,0 C 94 % 1032,8 hPa 0,0 l/m 9,5 km/h (2 Bft) O 92 0 min 0,000 mm 0,0 UV-I 0 W/m -0,3 C -2,4 C 12,9 km/h (3 Bft) 98,00 %
25.01.2023 06:34 0,6 C 3,9 C 0,0 C 94 % 1032,8 hPa 0,0 l/m 7,6 km/h (2 Bft) O-NO 76 0 min 0,000 mm 0,0 UV-I 0 W/m -0,3 C -0,6 C 12,9 km/h (3 Bft) 97,56 %
25.01.2023 06:36 0,5 C 3,9 C 0,0 C 94 % 1032,8 hPa 0,0 l/m 7,0 km/h (2 Bft) O-NO 76 0 min 0,000 mm 0,0 UV-I 0 W/m -0,4 C -0,1 C 11,3 km/h (2 Bft) 98,00 %
25.01.2023 06:38 0,5 C 3,9 C 0,0 C 94 % 1032,8 hPa 0,0 l/m 8,3 km/h (2 Bft) O-NO 74 0 min 0,000 mm 0,0 UV-I 0 W/m -0,4 C -1,4 C 11,3 km/h (2 Bft) 97,87 %
25.01.2023 06:40 0,6 C 3,9 C 0,0 C 94 % 1032,8 hPa 0,0 l/m 8,4 km/h (2 Bft) O-NO 70 0 min 0,000 mm 0,0 UV-I 0 W/m -0,3 C -1,4 C 12,9 km/h (3 Bft) 98,00 %
25.01.2023 06:42 0,5 C 3,9 C 0,0 C 94 % 1032,7 hPa 0,0 l/m 6,6 km/h (2 Bft) O-NO 69 0 min 0,000 mm 0,0 UV-I 0 W/m -0,4 C 0,3 C 11,3 km/h (2 Bft) 91,49 %
25.01.2023 06:44 0,5 C 3,9 C 0,0 C 94 % 1032,8 hPa 0,0 l/m 6,1 km/h (2 Bft) O-NO 67 0 min 0,000 mm 0,0 UV-I 0 W/m -0,4 C 0,5 C 12,9 km/h (3 Bft) 94,00 %
25.01.2023 06:46 0,5 C 3,9 C 0,0 C 94 % 1032,7 hPa 0,0 l/m 6,0 km/h (2 Bft) O-NO 63 0 min 0,000 mm 0,0 UV-I 0 W/m -0,4 C 0,5 C 12,9 km/h (3 Bft) 92,11 %
25.01.2023 06:48 0,5 C 3,9 C 0,0 C 94 % 1032,7 hPa 0,0 l/m 5,4 km/h (1 Bft) NO 56 0 min 0,000 mm 0,0 UV-I 0 W/m -0,4 C 0,5 C 8,0 km/h (2 Bft) 96,23 %
25.01.2023 06:50 0,5 C 3,9 C 0,0 C 94 % 1032,6 hPa 0,0 l/m 5,7 km/h (1 Bft) NO 42 0 min 0,000 mm 0,0 UV-I 0 W/m -0,4 C 0,5 C 8,0 km/h (2 Bft) 95,74 %
25.01.2023 06:52 0,5 C 3,9 C 0,0 C 94 % 1032,7 hPa 0,0 l/m 6,2 km/h (2 Bft) O-NO 63 0 min 0,000 mm 0,0 UV-I 0 W/m -0,4 C 0,5 C 8,0 km/h (2 Bft) 91,49 %
25.01.2023 06:54 0,5 C 3,9 C 0,0 C 94 % 1032,6 hPa 0,0 l/m 5,7 km/h (1 Bft) O 97 0 min 0,000 mm 0,0 UV-I 0 W/m -0,4 C 0,5 C 8,0 km/h (2 Bft) 92,11 %
25.01.2023 06:56 0,5 C 3,9 C 0,0 C 94 % 1032,6 hPa 0,0 l/m 7,2 km/h (2 Bft) O-NO 77 0 min 0,000 mm 0,0 UV-I 0 W/m -0,4 C -0,3 C 14,5 km/h (3 Bft) 94,34 %
25.01.2023 06:58 0,5 C 3,9 C 0,0 C 94 % 1032,6 hPa 0,0 l/m 8,8 km/h (2 Bft) O-NO 67 0 min 0,000 mm 0,0 UV-I 0 W/m -0,4 C -1,9 C 12,9 km/h (3 Bft) 93,62 %
25.01.2023 07:00 0,5 C 3,9 C 0,0 C 94 % 1032,6 hPa 0,0 l/m 8,2 km/h (2 Bft) O 84 0 min 0,000 mm 0,0 UV-I 0 W/m -0,4 C -1,3 C 11,3 km/h (2 Bft) 92,68 %
25.01.2023 07:02 0,5 C 3,9 C 0,0 C 94 % 1032,5 hPa 0,0 l/m 11,1 km/h (2 Bft) O 92 0 min 0,000 mm 0,0 UV-I 0 W/m -0,4 C -3,8 C 16,1 km/h (3 Bft) 96,00 %
25.01.2023 07:04 0,5 C 3,9 C 0,0 C 94 % 1032,6 hPa 0,0 l/m 11,1 km/h (2 Bft) O-NO 66 0 min 0,000 mm 0,0 UV-I 0 W/m -0,4 C -3,8 C 16,1 km/h (3 Bft) 98,00 %
25.01.2023 07:06 0,5 C 3,9 C 0,0 C 94 % 1032,6 hPa 0,0 l/m 8,5 km/h (2 Bft) O-NO 65 0 min 0,000 mm 0,0 UV-I 0 W/m -0,4 C -1,6 C 12,9 km/h (3 Bft) 92,45 %
25.01.2023 07:08 0,5 C 3,9 C 0,0 C 94 % 1032,6 hPa 0,0 l/m 7,7 km/h (2 Bft) O-NO 78 0 min 0,000 mm 0,0 UV-I 0 W/m -0,4 C -0,8 C 12,9 km/h (3 Bft) 95,74 %
25.01.2023 07:10 0,5 C 3,9 C 0,0 C 94 % 1032,6 hPa 0,0 l/m 8,3 km/h (2 Bft) O 92 0 min 0,000 mm 0,0 UV-I 0 W/m -0,4 C -1,4 C 12,9 km/h (3 Bft) 97,14 %
25.01.2023 07:12 0,4 C 3,9 C 0,0 C 94 % 1032,6 hPa 0,0 l/m 9,4 km/h (2 Bft) O-NO 76 0 min 0,000 mm 0,0 UV-I 0 W/m -0,5 C -2,5 C 12,9 km/h (3 Bft) 98,11 %
25.01.2023 07:14 0,4 C 3,9 C 0,0 C 94 % 1032,5 hPa 0,0 l/m 9,0 km/h (2 Bft) O 96 0 min 0,000 mm 0,0 UV-I 0 W/m -0,5 C -2,2 C 12,9 km/h (3 Bft) 98,11 %
25.01.2023 07:16 0,4 C 3,9 C 0,0 C 94 % 1032,5 hPa 0,0 l/m 7,1 km/h (2 Bft) O 92 0 min 0,000 mm 0,0 UV-I 0 W/m -0,5 C -0,3 C 11,3 km/h (2 Bft) 97,37 %
25.01.2023 07:18 0,4 C 3,9 C 0,0 C 94 % 1032,5 hPa 0,0 l/m 6,2 km/h (2 Bft) O 83 0 min 0,000 mm 0,0 UV-I 0 W/m -0,5 C 0,4 C 11,3 km/h (2 Bft) 98,11 %
25.01.2023 07:20 0,4 C 3,9 C 0,0 C 94 % 1032,5 hPa 0,0 l/m 5,5 km/h (1 Bft) O-NO 59 0 min 0,000 mm 0,0 UV-I 0 W/m -0,5 C 0,4 C 6,4 km/h (2 Bft) 97,56 %
25.01.2023 07:22 0,4 C 3,9 C 0,0 C 94 % 1032,5 hPa 0,0 l/m 7,4 km/h (2 Bft) NO 56 0 min 0,000 mm 0,0 UV-I 0 W/m -0,5 C -0,6 C 9,7 km/h (2 Bft) 96,00 %
25.01.2023 07:24 0,4 C 3,9 C 0,0 C 94 % 1032,5 hPa 0,0 l/m 4,3 km/h (1 Bft) NO 42 0 min 0,000 mm 0,0 UV-I 0 W/m -0,5 C 0,4 C 6,4 km/h (2 Bft) 97,56 %
25.01.2023 07:26 0,4 C 3,9 C 0,0 C 94 % 1032,4 hPa 0,0 l/m 5,5 km/h (1 Bft) NO 51 0 min 0,000 mm 0,0 UV-I 0 W/m -0,5 C 0,4 C 9,7 km/h (2 Bft) 98,00 %
25.01.2023 07:28 0,4 C 3,9 C 0,0 C 94 % 1032,5 hPa 0,0 l/m 7,6 km/h (2 Bft) O-NO 77 0 min 0,000 mm 0,0 UV-I 0 W/m -0,5 C -0,8 C 11,3 km/h (2 Bft) 96,00 %
25.01.2023 07:30 0,4 C 3,9 C 0,0 C 94 % 1032,5 hPa 0,0 l/m 6,7 km/h (2 Bft) O-NO 64 0 min 0,000 mm 0,0 UV-I 0 W/m -0,5 C 0,1 C 9,7 km/h (2 Bft) 96,00 %
25.01.2023 07:32 0,4 C 3,9 C 0,0 C 94 % 1032,5 hPa 0,0 l/m 6,7 km/h (2 Bft) O-NO 74 0 min 0,000 mm 0,0 UV-I 0 W/m -0,5 C 0,1 C 11,3 km/h (2 Bft) 100,00 %
25.01.2023 07:34 0,4 C 3,9 C 0,0 C 94 % 1032,5 hPa 0,0 l/m 8,5 km/h (2 Bft) O 84 0 min 0,000 mm 0,0 UV-I 0 W/m -0,5 C -1,7 C 12,9 km/h (3 Bft) 95,52 %
25.01.2023 07:36 0,4 C 3,9 C 0,0 C 94 % 1032,5 hPa 0,0 l/m 6,6 km/h (2 Bft) O-NO 70 0 min 0,000 mm 0,0 UV-I 0 W/m -0,5 C 0,2 C 9,7 km/h (2 Bft) 97,56 %
25.01.2023 07:38 0,4 C 3,9 C 0,0 C 94 % 1032,6 hPa 0,0 l/m 6,8 km/h (2 Bft) O 84 0 min 0,000 mm 0,0 UV-I 0 W/m -0,5 C 0,0 C 11,3 km/h (2 Bft) 98,00 %
25.01.2023 07:40 0,4 C 3,9 C 0,0 C 94 % 1032,6 hPa 0,0 l/m 5,7 km/h (1 Bft) O-NO 62 0 min 0,000 mm 0,0 UV-I 0 W/m -0,5 C 0,4 C 6,4 km/h (2 Bft) 97,73 %
25.01.2023 07:42 0,4 C 3,9 C 0,0 C 94 % 1032,6 hPa 0,0 l/m 5,9 km/h (2 Bft) O-NO 71 0 min 0,000 mm 0,0 UV-I 0 W/m -0,5 C 0,4 C 8,0 km/h (2 Bft) 98,11 %
25.01.2023 07:44 0,4 C 3,9 C 0,0 C 94 % 1032,6 hPa 0,0 l/m 5,1 km/h (1 Bft) NO 43 0 min 0,000 mm 0,0 UV-I 0 W/m -0,5 C 0,4 C 8,0 km/h (2 Bft) 97,56 %
25.01.2023 07:46 0,4 C 3,9 C 0,0 C 94 % 1032,6 hPa 0,0 l/m 5,6 km/h (1 Bft) O-NO 72 0 min 0,000 mm 0,0 UV-I 0 W/m -0,5 C 0,4 C 9,7 km/h (2 Bft) 96,23 %
25.01.2023 07:48 0,4 C 3,9 C 0,0 C 94 % 1032,5 hPa 0,0 l/m 7,1 km/h (2 Bft) NO 45 0 min 0,000 mm 0,0 UV-I 0 W/m -0,5 C -0,3 C 9,7 km/h (2 Bft) 97,56 %
25.01.2023 07:50 0,4 C 3,9 C 0,0 C 94 % 1032,5 hPa 0,0 l/m 7,6 km/h (2 Bft) O-NO 67 0 min 0,000 mm 0,0 UV-I 4 W/m -0,5 C -0,8 C 14,5 km/h (3 Bft) 94,00 %
25.01.2023 07:52 0,4 C 3,9 C 0,0 C 94 % 1032,5 hPa 0,0 l/m 8,5 km/h (2 Bft) O 89 0 min 0,000 mm 0,0 UV-I 5 W/m -0,5 C -1,7 C 11,3 km/h (2 Bft) 100,00 %
25.01.2023 07:54 0,4 C 3,9 C 0,0 C 94 % 1032,6 hPa 0,0 l/m 6,6 km/h (2 Bft) O-NO 66 0 min 0,000 mm 0,0 UV-I 5 W/m -0,5 C 0,2 C 12,9 km/h (3 Bft) 100,00 %
25.01.2023 07:56 0,4 C 3,9 C 0,0 C 94 % 1032,5 hPa 0,0 l/m 5,8 km/h (2 Bft) NO 38 0 min 0,000 mm 0,0 UV-I 5 W/m -0,5 C 0,4 C 11,3 km/h (2 Bft) 97,56 %
25.01.2023 07:58 0,4 C 3,9 C 0,0 C 94 % 1032,5 hPa 0,0 l/m 5,7 km/h (1 Bft) NO 51 0 min 0,000 mm 0,0 UV-I 5 W/m -0,5 C 0,4 C 12,9 km/h (3 Bft) 98,11 %
25.01.2023 08:00 0,4 C 3,9 C 0,0 C 94 % 1032,5 hPa 0,0 l/m 9,4 km/h (2 Bft) O-NO 59 0 min 0,000 mm 0,0 UV-I 5 W/m -0,5 C -2,5 C 16,1 km/h (3 Bft) 100,00 %
25.01.2023 08:02 0,4 C 3,9 C 0,0 C 94 % 1032,5 hPa 0,0 l/m 8,0 km/h (2 Bft) NO 46 0 min 0,000 mm 0,0 UV-I 5 W/m -0,5 C -1,2 C 12,9 km/h (3 Bft) 100,00 %
25.01.2023 08:04 0,4 C 3,9 C 0,0 C 94 % 1032,5 hPa 0,0 l/m 12,3 km/h (3 Bft) O-NO 57 0 min 0,000 mm 0,0 UV-I 6 W/m -0,5 C -4,8 C 16,1 km/h (3 Bft) 100,00 %
25.01.2023 08:06 0,3 C 3,9 C 0,0 C 94 % 1032,5 hPa 0,0 l/m 11,3 km/h (2 Bft) NO 40 0 min 0,000 mm 0,0 UV-I 7 W/m -0,5 C -4,1 C 16,1 km/h (3 Bft) 98,11 %
25.01.2023 08:08 0,3 C 3,9 C 0,0 C 94 % 1032,5 hPa 0,0 l/m 10,4 km/h (2 Bft) NO 35 0 min 0,000 mm 0,0 UV-I 7 W/m -0,5 C -3,4 C 14,5 km/h (3 Bft) 92,11 %
25.01.2023 08:10 0,3 C 3,9 C 0,0 C 94 % 1032,5 hPa 0,0 l/m 9,2 km/h (2 Bft) O-NO 67 0 min 0,000 mm 0,0 UV-I 7 W/m -0,5 C -2,4 C 14,5 km/h (3 Bft) 98,00 %
25.01.2023 08:12 0,3 C 3,9 C 0,0 C 94 % 1032,5 hPa 0,0 l/m 11,1 km/h (2 Bft) O 96 0 min 0,000 mm 0,0 UV-I 7 W/m -0,5 C -4,0 C 17,7 km/h (3 Bft) 96,00 %
25.01.2023 08:14 0,3 C 3,9 C 0,0 C 94 % 1032,4 hPa 0,0 l/m 11,2 km/h (2 Bft) N-NO 32 0 min 0,000 mm 0,0 UV-I 7 W/m -0,5 C -4,1 C 16,1 km/h (3 Bft) 95,74 %
25.01.2023 08:16 0,4 C 3,9 C 0,0 C 94 % 1032,4 hPa 0,0 l/m 8,3 km/h (2 Bft) O-NO 74 0 min 0,000 mm 0,0 UV-I 7 W/m -0,5 C -1,5 C 11,3 km/h (2 Bft) 97,87 %
25.01.2023 08:18 0,3 C 3,9 C 0,0 C 94 % 1032,5 hPa 0,0 l/m 7,5 km/h (2 Bft) O 86 0 min 0,000 mm 0,0 UV-I 8 W/m -0,5 C -0,8 C 12,9 km/h (3 Bft) 97,37 %
25.01.2023 08:20 0,3 C 3,9 C 0,0 C 94 % 1032,4 hPa 0,0 l/m 9,7 km/h (2 Bft) O 92 0 min 0,000 mm 0,0 UV-I 9 W/m -0,5 C -2,9 C 14,5 km/h (3 Bft) 98,11 %
25.01.2023 08:22 0,3 C 3,9 C 0,0 C 94 % 1032,4 hPa 0,0 l/m 10,8 km/h (2 Bft) O-NO 66 0 min 0,000 mm 0,0 UV-I 9 W/m -0,5 C -3,8 C 14,5 km/h (3 Bft) 98,00 %
25.01.2023 08:24 0,4 C 3,9 C 0,0 C 94 % 1032,4 hPa 0,0 l/m 9,1 km/h (2 Bft) O-NO 74 0 min 0,000 mm 0,0 UV-I 9 W/m -0,5 C -2,2 C 12,9 km/h (3 Bft) 97,37 %
25.01.2023 08:26 0,4 C 3,9 C 0,0 C 94 % 1032,4 hPa 0,0 l/m 6,4 km/h (2 Bft) O-NO 64 0 min 0,000 mm 0,0 UV-I 11 W/m -0,5 C 0,4 C 9,7 km/h (2 Bft) 95,45 %
25.01.2023 08:28 0,4 C 3,9 C 0,0 C 94 % 1032,3 hPa 0,0 l/m 7,6 km/h (2 Bft) O-NO 69 0 min 0,000 mm 0,0 UV-I 11 W/m -0,5 C -0,8 C 9,7 km/h (2 Bft) 96,23 %
25.01.2023 08:30 0,4 C 3,9 C 0,0 C 94 % 1032,3 hPa 0,0 l/m 5,5 km/h (1 Bft) O-NO 65 0 min 0,000 mm 0,0 UV-I 11 W/m -0,5 C 0,4 C 8,0 km/h (2 Bft) 96,23 %
25.01.2023 08:32 0,4 C 3,9 C 0,0 C 94 % 1032,3 hPa 0,0 l/m 6,4 km/h (2 Bft) NO 56 0 min 0,000 mm 0,0 UV-I 11 W/m -0,5 C 0,4 C 9,7 km/h (2 Bft) 97,37 %
25.01.2023 08:34 0,4 C 3,9 C 0,0 C 94 % 1032,3 hPa 0,0 l/m 6,3 km/h (2 Bft) NO 55 0 min 0,000 mm 0,0 UV-I 11 W/m -0,5 C 0,4 C 8,0 km/h (2 Bft) 98,00 %
25.01.2023 08:36 0,4 C 3,9 C 0,0 C 94 % 1032,4 hPa 0,0 l/m 6,3 km/h (2 Bft) O-NO 61 0 min 0,000 mm 0,0 UV-I 11 W/m -0,5 C 0,4 C 9,7 km/h (2 Bft) 98,00 %
25.01.2023 08:38 0,4 C 3,9 C 0,0 C 94 % 1032,4 hPa 0,0 l/m 7,5 km/h (2 Bft) NO 49 0 min 0,000 mm 0,0 UV-I 12 W/m -0,5 C -0,7 C 12,9 km/h (3 Bft) 97,14 %
25.01.2023 08:40 0,4 C 3,9 C 0,0 C 94 % 1032,3 hPa 0,0 l/m 7,0 km/h (2 Bft) O-NO 59 0 min 0,000 mm 0,0 UV-I 12 W/m -0,5 C -0,2 C 8,0 km/h (2 Bft) 96,77 %
25.01.2023 08:42 0,4 C 3,9 C 0,0 C 94 % 1032,3 hPa 0,0 l/m 8,1 km/h (2 Bft) NO 41 0 min 0,000 mm 0,0 UV-I 12 W/m -0,5 C -1,3 C 12,9 km/h (3 Bft) 97,56 %
25.01.2023 08:44 0,3 C 3,9 C 0,0 C 94 % 1032,4 hPa 0,0 l/m 7,6 km/h (2 Bft) NO 51 0 min 0,000 mm 0,0 UV-I 13 W/m -0,5 C -0,9 C 11,3 km/h (2 Bft) 96,23 %
25.01.2023 08:46 0,3 C 3,9 C 0,0 C 94 % 1032,4 hPa 0,0 l/m 8,4 km/h (2 Bft) NO 55 0 min 0,000 mm 0,0 UV-I 14 W/m -0,5 C -1,7 C 14,5 km/h (3 Bft) 97,37 %
25.01.2023 08:48 0,3 C 3,9 C 0,0 C 94 % 1032,4 hPa 0,0 l/m 7,0 km/h (2 Bft) O-NO 77 0 min 0,000 mm 0,0 UV-I 14 W/m -0,5 C -0,3 C 12,9 km/h (3 Bft) 96,00 %
25.01.2023 08:50 0,3 C 3,9 C 0,0 C 94 % 1032,4 hPa 0,0 l/m 6,8 km/h (2 Bft) O-NO 71 0 min 0,000 mm 0,0 UV-I 14 W/m -0,5 C -0,1 C 11,3 km/h (2 Bft) 96,23 %
25.01.2023 08:52 0,3 C 3,9 C 0,0 C 94 % 1032,4 hPa 0,0 l/m 10,2 km/h (2 Bft) NO 49 0 min 0,000 mm 0,0 UV-I 14 W/m -0,5 C -3,3 C 16,1 km/h (3 Bft) 97,37 %
25.01.2023 08:54 0,3 C 3,9 C 0,0 C 94 % 1032,4 hPa 0,0 l/m 11,2 km/h (2 Bft) NO 44 0 min 0,000 mm 0,0 UV-I 15 W/m -0,5 C -4,1 C 16,1 km/h (3 Bft) 98,00 %
25.01.2023 08:56 0,3 C 3,9 C 0,0 C 94 % 1032,4 hPa 0,0 l/m 10,3 km/h (2 Bft) NO 46 0 min 0,000 mm 0,0 UV-I 16 W/m -0,5 C -3,4 C 16,1 km/h (3 Bft) 98,00 %
25.01.2023 08:58 0,3 C 3,9 C 0,0 C 94 % 1032,3 hPa 0,0 l/m 9,7 km/h (2 Bft) NO 52 0 min 0,000 mm 0,0 UV-I 16 W/m -0,5 C -2,9 C 14,5 km/h (3 Bft) 100,00 %
25.01.2023 09:00 0,3 C 3,9 C 0,0 C 94 % 1032,4 hPa 0,0 l/m 8,4 km/h (2 Bft) O 81 0 min 0,000 mm 0,0 UV-I 18 W/m -0,5 C -1,7 C 12,9 km/h (3 Bft) 100,00 %
25.01.2023 09:02 0,3 C 3,9 C 0,0 C 94 % 1032,4 hPa 0,0 l/m 7,2 km/h (2 Bft) O-NO 65 0 min 0,000 mm 0,0 UV-I 16 W/m -0,5 C -0,5 C 14,5 km/h (3 Bft) 100,00 %
25.01.2023 09:04 0,3 C 3,9 C 0,0 C 94 % 1032,4 hPa 0,0 l/m 12,6 km/h (3 Bft) O 81 0 min 0,000 mm 0,0 UV-I 17 W/m -0,5 C -5,1 C 17,7 km/h (3 Bft) 97,73 %
25.01.2023 09:06 0,3 C 3,9 C 0,0 C 94 % 1032,4 hPa 0,0 l/m 11,8 km/h (2 Bft) NO 40 0 min 0,000 mm 0,0 UV-I 16 W/m -0,5 C -4,5 C 16,1 km/h (3 Bft) 98,21 %
25.01.2023 09:08 0,3 C 3,9 C 0,0 C 94 % 1032,4 hPa 0,0 l/m 8,0 km/h (2 Bft) NO 44 0 min 0,000 mm 0,0 UV-I 18 W/m -0,5 C -1,3 C 11,3 km/h (2 Bft) 100,00 %
25.01.2023 09:10 0,3 C 3,9 C 0,0 C 94 % 1032,3 hPa 0,0 l/m 8,4 km/h (2 Bft) O-NO 68 0 min 0,000 mm 0,0 UV-I 18 W/m -0,5 C -1,7 C 14,5 km/h (3 Bft) 97,56 %
25.01.2023 09:12 0,3 C 3,9 C 0,0 C 94 % 1032,3 hPa 0,0 l/m 10,4 km/h (2 Bft) O 82 0 min 0,000 mm 0,0 UV-I 19 W/m -0,5 C -3,4 C 16,1 km/h (3 Bft) 100,00 %
25.01.2023 09:14 0,3 C 3,9 C 0,6 C 94 % 1032,3 hPa 0,0 l/m 10,1 km/h (2 Bft) O 86 0 min 0,000 mm 0,0 UV-I 19 W/m -0,5 C -3,2 C 14,5 km/h (3 Bft) 97,56 %
25.01.2023 09:16 0,3 C 3,9 C 0,6 C 94 % 1032,4 hPa 0,0 l/m 10,8 km/h (2 Bft) O-NO 62 0 min 0,000 mm 0,0 UV-I 20 W/m -0,5 C -3,8 C 16,1 km/h (3 Bft) 100,00 %
25.01.2023 09:18 0,3 C 3,9 C 0,6 C 94 % 1032,3 hPa 0,0 l/m 9,5 km/h (2 Bft) O-NO 76 0 min 0,000 mm 0,0 UV-I 21 W/m -0,5 C -2,7 C 16,1 km/h (3 Bft) 100,00 %
25.01.2023 09:20 0,3 C 3,9 C 0,0 C 94 % 1032,3 hPa 0,0 l/m 9,2 km/h (2 Bft) O-NO 71 0 min 0,000 mm 0,0 UV-I 21 W/m -0,5 C -2,4 C 12,9 km/h (3 Bft) 97,87 %
25.01.2023 09:22 0,3 C 3,9 C 0,6 C 94 % 1032,4 hPa 0,0 l/m 9,0 km/h (2 Bft) NO 53 0 min 0,000 mm 0,0 UV-I 21 W/m -0,5 C -2,3 C 14,5 km/h (3 Bft) 96,00 %
25.01.2023 09:24 0,3 C 3,9 C 0,6 C 94 % 1032,3 hPa 0,0 l/m 11,7 km/h (2 Bft) O 89 0 min 0,000 mm 0,0 UV-I 21 W/m -0,5 C -4,4 C 16,1 km/h (3 Bft) 100,00 %
25.01.2023 09:26 0,3 C 3,9 C 0,6 C 94 % 1032,4 hPa 0,0 l/m 13,0 km/h (3 Bft) O-NO 61 0 min 0,000 mm 0,0 UV-I 22 W/m -0,5 C -5,4 C 17,7 km/h (3 Bft) 95,74 %
25.01.2023 09:28 0,3 C 3,9 C 0,6 C 94 % 1032,4 hPa 0,0 l/m 10,6 km/h (2 Bft) O-NO 57 0 min 0,000 mm 0,0 UV-I 23 W/m -0,5 C -3,6 C 16,1 km/h (3 Bft) 95,74 %
25.01.2023 09:30 0,4 C 3,9 C 0,6 C 94 % 1032,4 hPa 0,0 l/m 9,3 km/h (2 Bft) NO 46 0 min 0,000 mm 0,0 UV-I 23 W/m -0,5 C -2,4 C 16,1 km/h (3 Bft) 98,00 %
25.01.2023 09:32 0,3 C 3,9 C 0,6 C 94 % 1032,3 hPa 0,0 l/m 11,2 km/h (2 Bft) O-NO 75 0 min 0,000 mm 0,0 UV-I 23 W/m -0,5 C -4,1 C 14,5 km/h (3 Bft) 98,11 %
25.01.2023 09:34 0,3 C 3,9 C 0,6 C 94 % 1032,3 hPa 0,0 l/m 9,8 km/h (2 Bft) O-NO 70 0 min 0,000 mm 0,0 UV-I 24 W/m -0,5 C -3,0 C 14,5 km/h (3 Bft) 95,12 %
25.01.2023 09:36 0,3 C 3,9 C 0,6 C 94 % 1032,3 hPa 0,0 l/m 12,2 km/h (2 Bft) NO 38 0 min 0,000 mm 0,0 UV-I 24 W/m -0,5 C -4,8 C 16,1 km/h (3 Bft) 96,15 %
25.01.2023 09:38 0,3 C 3,9 C 0,0 C 94 % 1032,3 hPa 0,0 l/m 13,3 km/h (3 Bft) O 81 0 min 0,000 mm 0,0 UV-I 23 W/m -0,5 C -5,6 C 16,1 km/h (3 Bft) 97,87 %
25.01.2023 09:40 0,3 C 3,9 C 0,6 C 94 % 1032,3 hPa 0,0 l/m 9,8 km/h (2 Bft) O-NO 62 0 min 0,000 mm 0,0 UV-I 25 W/m -0,5 C -3,0 C 14,5 km/h (3 Bft) 97,22 %
25.01.2023 09:42 0,3 C 3,9 C 0,6 C 94 % 1032,2 hPa 0,0 l/m 9,5 km/h (2 Bft) O-NO 59 0 min 0,000 mm 0,0 UV-I 25 W/m -0,5 C -2,7 C 14,5 km/h (3 Bft) 100,00 %
25.01.2023 09:44 0,3 C 3,9 C 0,6 C 94 % 1032,2 hPa 0,0 l/m 11,2 km/h (2 Bft) O-NO 73 0 min 0,000 mm 0,0 UV-I 26 W/m -0,5 C -4,1 C 17,7 km/h (3 Bft) 100,00 %
25.01.2023 09:46 0,3 C 3,9 C 0,6 C 94 % 1032,2 hPa 0,0 l/m 12,9 km/h (3 Bft) O-NO 59 0 min 0,000 mm 0,0 UV-I 27 W/m -0,5 C -5,3 C 19,3 km/h (3 Bft) 100,00 %
25.01.2023 09:48 0,3 C 3,9 C 0,6 C 94 % 1032,2 hPa 0,0 l/m 14,9 km/h (3 Bft) O-NO 70 0 min 0,000 mm 0,0 UV-I 26 W/m -0,5 C -6,6 C 20,9 km/h (4 Bft) 100,00 %
25.01.2023 09:50 0,3 C 3,9 C 0,6 C 94 % 1032,2 hPa 0,0 l/m 13,5 km/h (3 Bft) O 95 0 min 0,000 mm 0,0 UV-I 27 W/m -0,5 C -5,7 C 20,9 km/h (4 Bft) 95,74 %
25.01.2023 09:52 0,3 C 3,9 C 0,6 C 94 % 1032,2 hPa 0,0 l/m 11,1 km/h (2 Bft) O-NO 73 0 min 0,000 mm 0,0 UV-I 28 W/m -0,5 C -4,0 C 16,1 km/h (3 Bft) 100,00 %
25.01.2023 09:54 0,3 C 3,9 C 0,6 C 94 % 1032,2 hPa 0,0 l/m 12,8 km/h (3 Bft) O 82 0 min 0,000 mm 0,0 UV-I 28 W/m -0,5 C -5,2 C 17,7 km/h (3 Bft) 97,87 %
25.01.2023 09:56 0,3 C 3,9 C 0,6 C 94 % 1032,2 hPa 0,0 l/m 12,5 km/h (3 Bft) O 82 0 min 0,000 mm 0,0 UV-I 28 W/m -0,5 C -5,0 C 16,1 km/h (3 Bft) 100,00 %
25.01.2023 09:58 0,3 C 3,9 C 0,6 C 94 % 1032,2 hPa 0,0 l/m 10,0 km/h (2 Bft) O-NO 78 0 min 0,000 mm 0,0 UV-I 28 W/m -0,5 C -3,1 C 14,5 km/h (3 Bft) 97,87 %
25.01.2023 10:00 0,3 C 3,9 C 0,6 C 94 % 1032,2 hPa 0,0 l/m 11,3 km/h (2 Bft) O-NO 78 0 min 0,000 mm 0,0 UV-I 28 W/m -0,5 C -4,1 C 17,7 km/h (3 Bft) 100,00 %
25.01.2023 10:02 0,4 C 3,9 C 0,6 C 94 % 1032,2 hPa 0,0 l/m 9,0 km/h (2 Bft) O-NO 71 0 min 0,000 mm 0,0 UV-I 28 W/m -0,5 C -2,2 C 12,9 km/h (3 Bft) 97,44 %
25.01.2023 10:04 0,4 C 3,9 C 0,6 C 94 % 1032,2 hPa 0,0 l/m 8,2 km/h (2 Bft) O 79 0 min 0,000 mm 0,0 UV-I 28 W/m -0,5 C -1,4 C 12,9 km/h (3 Bft) 100,00 %
25.01.2023 10:06 0,4 C 3,9 C 0,6 C 94 % 1032,1 hPa 0,0 l/m 7,2 km/h (2 Bft) O 88 0 min 0,000 mm 0,0 UV-I 28 W/m -0,5 C -0,4 C 11,3 km/h (2 Bft) 100,00 %
25.01.2023 10:08 0,4 C 3,9 C 0,6 C 94 % 1032,1 hPa 0,0 l/m 8,4 km/h (2 Bft) O 85 0 min 0,000 mm 0,0 UV-I 29 W/m -0,5 C -1,6 C 14,5 km/h (3 Bft) 100,00 %
25.01.2023 10:10 0,4 C 3,9 C 0,6 C 94 % 1032,1 hPa 0,0 l/m 6,9 km/h (2 Bft) O 94 0 min 0,000 mm 0,0 UV-I 30 W/m -0,5 C -0,1 C 9,7 km/h (2 Bft) 100,00 %
25.01.2023 10:12 0,4 C 3,9 C 0,6 C 94 % 1032,1 hPa 0,0 l/m 9,6 km/h (2 Bft) O-NO 72 0 min 0,000 mm 0,0 UV-I 28 W/m -0,5 C -2,7 C 12,9 km/h (3 Bft) 100,00 %
25.01.2023 10:14 0,4 C 3,9 C 0,6 C 94 % 1032,1 hPa 0,0 l/m 9,1 km/h (2 Bft) O-SO 103 0 min 0,000 mm 0,0 UV-I 29 W/m -0,5 C -2,2 C 12,9 km/h (3 Bft) 100,00 %
25.01.2023 10:16 0,4 C 3,9 C 0,6 C 94 % 1032,1 hPa 0,0 l/m 9,4 km/h (2 Bft) O 92 0 min 0,000 mm 0,0 UV-I 32 W/m -0,5 C -2,5 C 14,5 km/h (3 Bft) 97,37 %
25.01.2023 10:18 0,4 C 3,9 C 0,6 C 94 % 1032,1 hPa 0,0 l/m 13,5 km/h (3 Bft) O 91 0 min 0,000 mm 0,0 UV-I 32 W/m -0,5 C -5,6 C 17,7 km/h (3 Bft) 100,00 %
25.01.2023 10:20 0,3 C 3,9 C 0,6 C 94 % 1032,0 hPa 0,0 l/m 11,3 km/h (2 Bft) O 87 0 min 0,000 mm 0,0 UV-I 32 W/m -0,5 C -4,1 C 14,5 km/h (3 Bft) 100,00 %
25.01.2023 10:22 0,4 C 3,9 C 0,6 C 94 % 1031,9 hPa 0,0 l/m 11,6 km/h (2 Bft) O-NO 71 0 min 0,000 mm 0,0 UV-I 31 W/m -0,5 C -4,3 C 16,1 km/h (3 Bft) 97,87 %
25.01.2023 10:24 0,4 C 3,9 C 0,6 C 94 % 1031,9 hPa 0,0 l/m 8,3 km/h (2 Bft) NO 50 0 min 0,000 mm 0,0 UV-I 32 W/m -0,5 C -1,5 C 14,5 km/h (3 Bft) 98,00 %
25.01.2023 10:26 0,4 C 3,9 C 0,6 C 94 % 1031,9 hPa 0,0 l/m 9,1 km/h (2 Bft) NO 55 0 min 0,000 mm 0,0 UV-I 32 W/m -0,5 C -2,2 C 14,5 km/h (3 Bft) 100,00 %
25.01.2023 10:28 0,3 C 3,9 C 0,6 C 94 % 1031,9 hPa 0,0 l/m 8,3 km/h (2 Bft) NO 46 0 min 0,000 mm 0,0 UV-I 33 W/m -0,5 C -1,6 C 11,3 km/h (2 Bft) 96,00 %
25.01.2023 10:30 0,3 C 3,9 C 0,6 C 94 % 1031,9 hPa 0,0 l/m 11,2 km/h (2 Bft) NO 38 0 min 0,000 mm 0,0 UV-I 33 W/m -0,5 C -4,1 C 16,1 km/h (3 Bft) 98,00 %
25.01.2023 10:32 0,3 C 3,9 C 0,6 C 94 % 1031,9 hPa 0,0 l/m 12,6 km/h (3 Bft) O-SO 103 0 min 0,000 mm 0,0 UV-I 34 W/m -0,5 C -5,1 C 17,7 km/h (3 Bft) 96,00 %
25.01.2023 10:34 0,3 C 3,9 C 0,6 C 94 % 1031,9 hPa 0,0 l/m 9,0 km/h (2 Bft) O-NO 57 0 min 0,000 mm 0,0 UV-I 35 W/m -0,5 C -2,3 C 14,5 km/h (3 Bft) 97,87 %
25.01.2023 10:36 0,3 C 3,9 C 0,6 C 94 % 1031,9 hPa 0,0 l/m 9,0 km/h (2 Bft) O 93 0 min 0,000 mm 0,0 UV-I 35 W/m -0,5 C -2,3 C 12,9 km/h (3 Bft) 95,74 %
25.01.2023 10:38 0,3 C 3,9 C 0,6 C 94 % 1031,9 hPa 0,0 l/m 9,8 km/h (2 Bft) O-SO 109 0 min 0,000 mm 0,0 UV-I 35 W/m -0,5 C -3,0 C 14,5 km/h (3 Bft) 95,12 %
25.01.2023 10:40 0,3 C 3,9 C 0,6 C 94 % 1031,9 hPa 0,0 l/m 7,1 km/h (2 Bft) O 88 0 min 0,000 mm 0,0 UV-I 33 W/m -0,5 C -0,4 C 11,3 km/h (2 Bft) 94,34 %
25.01.2023 10:42 0,3 C 3,9 C 0,6 C 94 % 1031,9 hPa 0,0 l/m 9,2 km/h (2 Bft) O-SO 116 0 min 0,000 mm 0,0 UV-I 33 W/m -0,5 C -2,4 C 12,9 km/h (3 Bft) 93,62 %
25.01.2023 10:44 0,4 C 3,9 C 0,6 C 94 % 1031,9 hPa 0,0 l/m 8,5 km/h (2 Bft) SO 130 0 min 0,000 mm 0,0 UV-I 35 W/m -0,5 C -1,7 C 17,7 km/h (3 Bft) 100,00 %
25.01.2023 10:46 0,4 C 3,9 C 0,6 C 94 % 1031,8 hPa 0,0 l/m 9,7 km/h (2 Bft) O 88 0 min 0,000 mm 0,0 UV-I 37 W/m -0,5 C -2,8 C 16,1 km/h (3 Bft) 92,86 %
25.01.2023 10:48 0,4 C 3,9 C 0,6 C 94 % 1031,8 hPa 0,0 l/m 10,2 km/h (2 Bft) O 87 0 min 0,000 mm 0,0 UV-I 36 W/m -0,5 C -3,2 C 14,5 km/h (3 Bft) 94,59 %
25.01.2023 10:50 0,4 C 3,9 C 0,6 C 94 % 1031,8 hPa 0,0 l/m 10,9 km/h (2 Bft) O-NO 76 0 min 0,000 mm 0,0 UV-I 37 W/m -0,5 C -3,7 C 16,1 km/h (3 Bft) 97,56 %
25.01.2023 10:52 0,3 C 3,9 C 0,6 C 94 % 1031,8 hPa 0,0 l/m 11,4 km/h (2 Bft) O-SO 104 0 min 0,000 mm 0,0 UV-I 36 W/m -0,5 C -4,2 C 16,1 km/h (3 Bft) 95,16 %
25.01.2023 10:54 0,4 C 3,9 C 0,6 C 94 % 1031,7 hPa 0,0 l/m 10,7 km/h (2 Bft) O 85 0 min 0,000 mm 0,0 UV-I 37 W/m -0,5 C -3,6 C 14,5 km/h (3 Bft) 94,74 %
25.01.2023 10:56 0,4 C 3,9 C 0,6 C 94 % 1031,7 hPa 0,0 l/m 9,6 km/h (2 Bft) O 88 0 min 0,000 mm 0,0 UV-I 37 W/m -0,5 C -2,7 C 14,5 km/h (3 Bft) 96,00 %
25.01.2023 10:58 0,4 C 3,9 C 0,6 C 94 % 1031,7 hPa 0,0 l/m 9,8 km/h (2 Bft) O 93 0 min 0,000 mm 0,0 UV-I 37 W/m -0,5 C -2,8 C 14,5 km/h (3 Bft) 96,00 %
25.01.2023 11:00 0,4 C 3,9 C 0,6 C 94 % 1031,7 hPa 0,0 l/m 10,0 km/h (2 Bft) O-NO 78 0 min 0,025 mm 0,0 UV-I 37 W/m -0,5 C -3,0 C 12,9 km/h (3 Bft) 98,00 %
25.01.2023 11:02 0,4 C 3,9 C 0,6 C 94 % 1031,7 hPa 0,0 l/m 8,9 km/h (2 Bft) O 90 0 min 0,000 mm 0,0 UV-I 37 W/m -0,5 C -2,1 C 14,5 km/h (3 Bft) 100,00 %
25.01.2023 11:04 0,4 C 3,9 C 0,6 C 94 % 1031,7 hPa 0,0 l/m 9,9 km/h (2 Bft) O 90 0 min 0,000 mm 0,0 UV-I 36 W/m -0,5 C -2,9 C 14,5 km/h (3 Bft) 96,23 %
25.01.2023 11:06 0,4 C 3,9 C 0,6 C 94 % 1031,7 hPa 0,0 l/m 11,0 km/h (2 Bft) O-SO 102 0 min 0,000 mm 0,0 UV-I 35 W/m -0,5 C -3,8 C 16,1 km/h (3 Bft) 97,37 %
25.01.2023 11:08 0,4 C 3,9 C 0,6 C 94 % 1031,7 hPa 0,0 l/m 9,4 km/h (2 Bft) O 84 0 min 0,000 mm 0,0 UV-I 35 W/m -0,5 C -2,5 C 16,1 km/h (3 Bft) 97,73 %
25.01.2023 11:10 0,4 C 3,9 C 0,6 C 94 % 1031,7 hPa 0,0 l/m 12,0 km/h (2 Bft) O 95 0 min 0,000 mm 0,0 UV-I 33 W/m -0,5 C -4,5 C 16,1 km/h (3 Bft) 94,64 %
25.01.2023 11:12 0,4 C 3,9 C 0,6 C 94 % 1031,7 hPa 0,0 l/m 6,9 km/h (2 Bft) O 90 0 min 0,000 mm 0,0 UV-I 33 W/m -0,5 C -0,1 C 11,3 km/h (2 Bft) 97,56 %
25.01.2023 11:14 0,4 C 3,9 C 0,6 C 94 % 1031,7 hPa 0,0 l/m 7,4 km/h (2 Bft) O 98 0 min 0,000 mm 0,0 UV-I 35 W/m -0,5 C -0,6 C 11,3 km/h (2 Bft) 98,00 %
25.01.2023 11:16 0,4 C 3,9 C 0,6 C 94 % 1031,6 hPa 0,0 l/m 8,3 km/h (2 Bft) O 86 0 min 0,000 mm 0,0 UV-I 35 W/m -0,5 C -1,5 C 14,5 km/h (3 Bft) 98,00 %
25.01.2023 11:18 0,4 C 3,9 C 0,6 C 94 % 1031,6 hPa 0,0 l/m 8,1 km/h (2 Bft) O 94 0 min 0,000 mm 0,0 UV-I 35 W/m -0,5 C -1,3 C 14,5 km/h (3 Bft) 98,00 %
25.01.2023 11:20 0,4 C 3,9 C 0,6 C 94 % 1031,6 hPa 0,0 l/m 9,2 km/h (2 Bft) O-NO 65 0 min 0,000 mm 0,0 UV-I 35 W/m -0,5 C -2,3 C 12,9 km/h (3 Bft) 97,37 %
25.01.2023 11:22 0,4 C 3,9 C 0,6 C 94 % 1031,5 hPa 0,0 l/m 5,2 km/h (1 Bft) O-NO 67 0 min 0,000 mm 0,0 UV-I 33 W/m -0,5 C 0,4 C 9,7 km/h (2 Bft) 98,11 %
25.01.2023 11:24 0,4 C 3,9 C 0,6 C 95 % 1031,5 hPa 0,0 l/m 7,5 km/h (2 Bft) O-SO 113 0 min 0,000 mm 0,0 UV-I 35 W/m -0,3 C -0,7 C 11,3 km/h (2 Bft) 95,74 %
25.01.2023 11:26 0,4 C 3,9 C 0,6 C 94 % 1031,5 hPa 0,0 l/m 7,1 km/h (2 Bft) O 96 0 min 0,000 mm 0,0 UV-I 35 W/m -0,5 C -0,3 C 12,9 km/h (3 Bft) 100,00 %
25.01.2023 11:28 0,4 C 3,9 C 0,6 C 95 % 1031,5 hPa 0,0 l/m 8,3 km/h (2 Bft) O 96 0 min 0,000 mm 0,0 UV-I 35 W/m -0,3 C -1,5 C 12,9 km/h (3 Bft) 96,00 %
25.01.2023 11:30 0,4 C 3,9 C 0,6 C 95 % 1031,5 hPa 0,0 l/m 6,6 km/h (2 Bft) O 86 0 min 0,000 mm 0,0 UV-I 35 W/m -0,3 C 0,2 C 9,7 km/h (2 Bft) 96,00 %
25.01.2023 11:32 0,4 C 3,9 C 0,6 C 95 % 1031,4 hPa 0,0 l/m 4,7 km/h (1 Bft) SO 130 0 min 0,000 mm 0,0 UV-I 36 W/m -0,3 C 0,4 C 9,7 km/h (2 Bft) 96,00 %
25.01.2023 11:34 0,4 C 3,9 C 0,6 C 95 % 1031,4 hPa 0,0 l/m 6,4 km/h (2 Bft) O-NO 74 0 min 0,000 mm 0,0 UV-I 35 W/m -0,3 C 0,4 C 9,7 km/h (2 Bft) 94,00 %
25.01.2023 11:36 0,3 C 3,9 C 0,6 C 95 % 1031,4 hPa 0,0 l/m 8,0 km/h (2 Bft) O 87 0 min 0,000 mm 0,0 UV-I 35 W/m -0,4 C -1,3 C 12,9 km/h (3 Bft) 97,87 %
25.01.2023 11:38 0,3 C 3,9 C 0,6 C 95 % 1031,4 hPa 0,0 l/m 6,8 km/h (2 Bft) O 84 0 min 0,000 mm 0,0 UV-I 38 W/m -0,4 C -0,1 C 9,7 km/h (2 Bft) 97,56 %
25.01.2023 11:40 0,3 C 3,9 C 0,6 C 95 % 1031,3 hPa 0,0 l/m 7,8 km/h (2 Bft) NO 49 0 min 0,000 mm 0,0 UV-I 39 W/m -0,4 C -1,1 C 14,5 km/h (3 Bft) 97,87 %
25.01.2023 11:42 0,3 C 3,9 C 0,6 C 95 % 1031,2 hPa 0,0 l/m 8,3 km/h (2 Bft) NO 44 0 min 0,000 mm 0,0 UV-I 39 W/m -0,4 C -1,6 C 14,5 km/h (3 Bft) 98,00 %
25.01.2023 11:44 0,4 C 3,9 C 0,6 C 95 % 1031,2 hPa 0,0 l/m 9,4 km/h (2 Bft) O 88 0 min 0,000 mm 0,0 UV-I 39 W/m -0,3 C -2,5 C 16,1 km/h (3 Bft) 97,37 %
25.01.2023 11:46 0,4 C 3,9 C 0,6 C 95 % 1031,2 hPa 0,0 l/m 11,8 km/h (2 Bft) O-NO 63 0 min 0,000 mm 0,0 UV-I 39 W/m -0,3 C -4,4 C 19,3 km/h (3 Bft) 95,74 %
25.01.2023 11:48 0,3 C 3,9 C 0,6 C 95 % 1031,1 hPa 0,0 l/m 13,8 km/h (3 Bft) O-NO 58 0 min 0,000 mm 0,0 UV-I 39 W/m -0,4 C -5,9 C 17,7 km/h (3 Bft) 96,00 %
25.01.2023 11:50 0,3 C 3,9 C 0,6 C 95 % 1031,1 hPa 0,0 l/m 10,2 km/h (2 Bft) O-SO 107 0 min 0,000 mm 0,0 UV-I 39 W/m -0,4 C -3,3 C 14,5 km/h (3 Bft) 98,00 %
25.01.2023 11:52 0,4 C 3,9 C 0,6 C 95 % 1031,1 hPa 0,0 l/m 5,2 km/h (1 Bft) O-NO 76 0 min 0,000 mm 0,0 UV-I 39 W/m -0,3 C 0,4 C 8,0 km/h (2 Bft) 94,87 %
25.01.2023 11:54 0,3 C 3,9 C 0,6 C 95 % 1031,0 hPa 0,0 l/m 6,4 km/h (2 Bft) O 82 0 min 0,000 mm 0,0 UV-I 40 W/m -0,4 C 0,3 C 9,7 km/h (2 Bft) 96,55 %
25.01.2023 11:56 0,3 C 3,9 C 0,6 C 95 % 1031,0 hPa 0,0 l/m 7,4 km/h (2 Bft) O 86 0 min 0,000 mm 0,0 UV-I 40 W/m -0,4 C -0,7 C 11,3 km/h (2 Bft) 94,44 %
25.01.2023 11:58 0,3 C 3,9 C 0,6 C 95 % 1031,0 hPa 0,0 l/m 9,7 km/h (2 Bft) O-NO 60 0 min 0,000 mm 0,0 UV-I 40 W/m -0,4 C -2,9 C 12,9 km/h (3 Bft) 96,55 %
25.01.2023 12:00 0,3 C 3,9 C 0,6 C 95 % 1030,9 hPa 0,0 l/m 7,0 km/h (2 Bft) O-NO 76 0 min 0,026 mm 0,0 UV-I 39 W/m -0,4 C -0,3 C 11,3 km/h (2 Bft) 94,87 %
25.01.2023 12:02 0,3 C 3,9 C 0,6 C 95 % 1030,8 hPa 0,0 l/m 7,1 km/h (2 Bft) O-NO 70 0 min 0,000 mm 0,0 UV-I 39 W/m -0,4 C -0,4 C 9,7 km/h (2 Bft) 93,48 %
25.01.2023 12:04 0,3 C 3,9 C 0,6 C 95 % 1030,8 hPa 0,0 l/m 5,9 km/h (2 Bft) O-NO 57 0 min 0,000 mm 0,0 UV-I 40 W/m -0,4 C 0,3 C 11,3 km/h (2 Bft) 94,00 %
25.01.2023 12:06 0,3 C 3,9 C 0,6 C 95 % 1030,8 hPa 0,0 l/m 4,7 km/h (1 Bft) O-NO 77 0 min 0,000 mm 0,0 UV-I 39 W/m -0,4 C 0,3 C 6,4 km/h (2 Bft) 92,31 %
25.01.2023 12:08 0,3 C 3,9 C 0,6 C 95 % 1030,8 hPa 0,0 l/m 6,5 km/h (2 Bft) O-NO 74 0 min 0,000 mm 0,0 UV-I 39 W/m -0,4 C 0,2 C 11,3 km/h (2 Bft) 94,55 %
25.01.2023 12:10 0,3 C 3,9 C 0,6 C 95 % 1030,7 hPa 0,0 l/m 7,1 km/h (2 Bft) O-NO 74 0 min 0,000 mm 0,0 UV-I 40 W/m -0,4 C -0,4 C 9,7 km/h (2 Bft) 90,00 %
25.01.2023 12:12 0,3 C 3,9 C 0,6 C 95 % 1030,7 hPa 0,0 l/m 6,9 km/h (2 Bft) O-NO 78 0 min 0,000 mm 0,0 UV-I 39 W/m -0,4 C -0,2 C 11,3 km/h (2 Bft) 95,74 %
25.01.2023 12:14 0,3 C 3,9 C 0,6 C 95 % 1030,6 hPa 0,0 l/m 7,2 km/h (2 Bft) O-NO 64 0 min 0,000 mm 0,0 UV-I 41 W/m -0,4 C -0,5 C 11,3 km/h (2 Bft) 96,00 %
25.01.2023 12:16 0,4 C 3,9 C 0,6 C 95 % 1030,6 hPa 0,0 l/m 5,7 km/h (1 Bft) O-NO 63 0 min 0,000 mm 0,0 UV-I 42 W/m -0,3 C 0,4 C 8,0 km/h (2 Bft) 97,73 %
25.01.2023 12:18 0,4 C 3,9 C 0,6 C 95 % 1030,5 hPa 0,0 l/m 5,7 km/h (1 Bft) O 82 0 min 0,000 mm 0,0 UV-I 41 W/m -0,3 C 0,4 C 8,0 km/h (2 Bft) 100,00 %
25.01.2023 12:20 0,3 C 3,9 C 0,6 C 95 % 1030,5 hPa 0,0 l/m 5,7 km/h (1 Bft) O 94 0 min 0,000 mm 0,0 UV-I 40 W/m -0,4 C 0,3 C 11,3 km/h (2 Bft) 100,00 %
25.01.2023 12:22 0,3 C 3,9 C 0,6 C 95 % 1030,5 hPa 0,0 l/m 7,7 km/h (2 Bft) O-NO 63 0 min 0,000 mm 0,0 UV-I 42 W/m -0,4 C -1,0 C 11,3 km/h (2 Bft) 100,00 %
25.01.2023 12:24 0,3 C 3,9 C 0,6 C 95 % 1030,5 hPa 0,0 l/m 6,6 km/h (2 Bft) O 98 0 min 0,000 mm 0,0 UV-I 40 W/m -0,4 C 0,1 C 9,7 km/h (2 Bft) 94,44 %
25.01.2023 12:26 0,3 C 3,9 C 0,6 C 95 % 1030,5 hPa 0,0 l/m 10,0 km/h (2 Bft) O-NO 70 0 min 0,000 mm 0,0 UV-I 40 W/m -0,4 C -3,1 C 14,5 km/h (3 Bft) 94,23 %
25.01.2023 12:28 0,3 C 3,9 C 0,6 C 95 % 1030,4 hPa 0,0 l/m 11,4 km/h (2 Bft) O-NO 78 0 min 0,000 mm 0,0 UV-I 42 W/m -0,4 C -4,2 C 16,1 km/h (3 Bft) 97,14 %
25.01.2023 12:30 0,3 C 3,9 C 0,6 C 95 % 1030,4 hPa 0,0 l/m 11,9 km/h (2 Bft) O-SO 109 0 min 0,000 mm 0,0 UV-I 42 W/m -0,4 C -4,6 C 16,1 km/h (3 Bft) 93,75 %
25.01.2023 12:32 0,3 C 3,9 C 0,6 C 94 % 1030,3 hPa 0,0 l/m 10,9 km/h (2 Bft) O-NO 70 0 min 0,000 mm 0,0 UV-I 42 W/m -0,5 C -3,8 C 14,5 km/h (3 Bft) 97,44 %
25.01.2023 12:34 0,3 C 3,9 C 0,6 C 94 % 1030,3 hPa 0,0 l/m 7,5 km/h (2 Bft) NO 52 0 min 0,000 mm 0,0 UV-I 42 W/m -0,5 C -0,8 C 12,9 km/h (3 Bft) 97,87 %
25.01.2023 12:36 0,3 C 3,9 C 0,6 C 95 % 1030,3 hPa 0,0 l/m 11,3 km/h (2 Bft) O 79 0 min 0,000 mm 0,0 UV-I 42 W/m -0,4 C -4,1 C 14,5 km/h (3 Bft) 96,36 %
25.01.2023 12:38 0,3 C 3,9 C 0,6 C 94 % 1030,3 hPa 0,0 l/m 6,9 km/h (2 Bft) O 84 0 min 0,000 mm 0,0 UV-I 44 W/m -0,5 C -0,2 C 11,3 km/h (2 Bft) 94,87 %
25.01.2023 12:40 0,3 C 3,9 C 0,6 C 94 % 1030,2 hPa 0,0 l/m 5,7 km/h (1 Bft) O 96 0 min 0,000 mm 0,0 UV-I 43 W/m -0,5 C 0,3 C 9,7 km/h (2 Bft) 97,87 %
25.01.2023 12:42 0,3 C 3,9 C 0,6 C 94 % 1030,2 hPa 0,0 l/m 5,7 km/h (1 Bft) O-NO 76 0 min 0,000 mm 0,0 UV-I 39 W/m -0,5 C 0,3 C 11,3 km/h (2 Bft) 98,00 %
25.01.2023 12:44 0,3 C 3,9 C 0,6 C 95 % 1030,1 hPa 0,0 l/m 6,7 km/h (2 Bft) O 90 0 min 0,000 mm 0,0 UV-I 39 W/m -0,4 C 0,0 C 9,7 km/h (2 Bft) 96,00 %
25.01.2023 12:46 0,3 C 3,9 C 0,6 C 95 % 1030,0 hPa 0,0 l/m 4,9 km/h (1 Bft) O-SO 103 0 min 0,000 mm 0,0 UV-I 40 W/m -0,4 C 0,3 C 8,0 km/h (2 Bft) 94,00 %
25.01.2023 12:48 0,4 C 3,9 C 0,6 C 95 % 1030,0 hPa 0,0 l/m 4,5 km/h (1 Bft) O 88 0 min 0,000 mm 0,0 UV-I 40 W/m -0,3 C 0,4 C 6,4 km/h (2 Bft) 97,37 %
25.01.2023 12:50 0,4 C 3,9 C 0,6 C 95 % 1029,9 hPa 0,0 l/m 6,5 km/h (2 Bft) O 101 0 min 0,000 mm 0,0 UV-I 40 W/m -0,3 C 0,3 C 9,7 km/h (2 Bft) 94,00 %
25.01.2023 12:52 0,4 C 3,9 C 0,6 C 95 % 1029,9 hPa 0,0 l/m 4,2 km/h (1 Bft) S-SO 148 0 min 0,000 mm 0,0 UV-I 41 W/m -0,3 C 0,4 C 6,4 km/h (2 Bft) 98,11 %
25.01.2023 12:54 0,4 C 3,9 C 0,6 C 95 % 1029,9 hPa 0,0 l/m 5,4 km/h (1 Bft) S-SO 149 0 min 0,000 mm 0,0 UV-I 42 W/m -0,3 C 0,4 C 8,0 km/h (2 Bft) 97,37 %
25.01.2023 12:56 0,3 C 3,9 C 0,6 C 95 % 1029,8 hPa 0,0 l/m 7,2 km/h (2 Bft) SO 127 0 min 0,000 mm 0,0 UV-I 44 W/m -0,4 C -0,5 C 11,3 km/h (2 Bft) 96,00 %
25.01.2023 12:58 0,3 C 3,9 C 0,6 C 95 % 1029,8 hPa 0,0 l/m 6,5 km/h (2 Bft) SO 137 0 min 0,000 mm 0,0 UV-I 45 W/m -0,4 C 0,2 C 12,9 km/h (3 Bft) 97,87 %
25.01.2023 13:00 0,3 C 3,9 C 0,6 C 95 % 1029,7 hPa 0,0 l/m 5,8 km/h (2 Bft) SO 125 0 min 0,025 mm 0,0 UV-I 46 W/m -0,4 C 0,3 C 8,0 km/h (2 Bft) 100,00 %
25.01.2023 13:02 0,3 C 3,9 C 0,6 C 95 % 1029,7 hPa 0,0 l/m 3,8 km/h (1 Bft) O-SO 122 0 min 0,000 mm 0,0 UV-I 44 W/m -0,4 C 0,3 C 6,4 km/h (2 Bft) 100,00 %
25.01.2023 13:04 0,3 C 3,9 C 0,6 C 95 % 1029,6 hPa 0,0 l/m 4,3 km/h (1 Bft) SO 146 0 min 0,000 mm 0,0 UV-I 44 W/m -0,4 C 0,3 C 6,4 km/h (2 Bft) 96,00 %
25.01.2023 13:06 0,3 C 3,9 C 1,1 C 95 % 1029,6 hPa 0,0 l/m 1,6 km/h (1 Bft) SO 145 0 min 0,000 mm 0,0 UV-I 45 W/m -0,4 C 0,3 C 3,2 km/h (1 Bft) 97,37 %
25.01.2023 13:08 0,3 C 3,9 C 1,1 C 95 % 1029,5 hPa 0,0 l/m 3,4 km/h (1 Bft) O 96 0 min 0,000 mm 0,0 UV-I 43 W/m -0,4 C 0,3 C 6,4 km/h (2 Bft) 96,23 %
25.01.2023 13:10 0,3 C 3,9 C 1,1 C 95 % 1029,5 hPa 0,0 l/m 3,9 km/h (1 Bft) O 97 0 min 0,000 mm 0,0 UV-I 44 W/m -0,4 C 0,3 C 6,4 km/h (2 Bft) 95,74 %
25.01.2023 13:12 0,3 C 3,9 C 1,1 C 95 % 1029,5 hPa 0,0 l/m 3,5 km/h (1 Bft) O-SO 106 0 min 0,000 mm 0,0 UV-I 43 W/m -0,4 C 0,3 C 6,4 km/h (2 Bft) 94,00 %
25.01.2023 13:14 0,3 C 3,9 C 1,1 C 95 % 1029,5 hPa 0,0 l/m 2,8 km/h (1 Bft) O-NO 64 0 min 0,000 mm 0,0 UV-I 42 W/m -0,4 C 0,3 C 8,0 km/h (2 Bft) 94,74 %
25.01.2023 13:16 0,3 C 3,9 C 1,1 C 95 % 1029,5 hPa 0,0 l/m 4,6 km/h (1 Bft) O 97 0 min 0,000 mm 0,0 UV-I 44 W/m -0,4 C 0,3 C 6,4 km/h (2 Bft) 96,00 %
25.01.2023 13:18 0,3 C 3,9 C 1,1 C 95 % 1029,5 hPa 0,0 l/m 5,5 km/h (1 Bft) SO 124 0 min 0,000 mm 0,0 UV-I 44 W/m -0,4 C 0,3 C 9,7 km/h (2 Bft) 98,00 %
25.01.2023 13:20 0,3 C 3,9 C 1,1 C 95 % 1029,4 hPa 0,0 l/m 4,2 km/h (1 Bft) O-NO 76 0 min 0,000 mm 0,0 UV-I 42 W/m -0,4 C 0,3 C 8,0 km/h (2 Bft) 95,12 %
25.01.2023 13:22 0,3 C 3,9 C 1,1 C 95 % 1029,5 hPa 0,0 l/m 4,6 km/h (1 Bft) O-SO 116 0 min 0,000 mm 0,0 UV-I 43 W/m -0,4 C 0,3 C 6,4 km/h (2 Bft) 98,00 %
25.01.2023 13:24 0,3 C 3,9 C 1,1 C 95 % 1029,4 hPa 0,0 l/m 2,5 km/h (1 Bft) O-SO 109 0 min 0,000 mm 0,0 UV-I 43 W/m -0,4 C 0,3 C 4,8 km/h (1 Bft) 97,14 %
25.01.2023 13:26 0,4 C 3,9 C 1,1 C 95 % 1029,4 hPa 0,0 l/m 2,7 km/h (1 Bft) O-SO 104 0 min 0,000 mm 0,0 UV-I 41 W/m -0,3 C 0,4 C 4,8 km/h (1 Bft) 98,21 %
25.01.2023 13:28 0,4 C 3,9 C 1,1 C 95 % 1029,4 hPa 0,0 l/m 4,4 km/h (1 Bft) O-SO 111 0 min 0,000 mm 0,0 UV-I 40 W/m -0,3 C 0,4 C 8,0 km/h (2 Bft) 95,45 %
25.01.2023 13:30 0,4 C 3,9 C 1,1 C 95 % 1029,3 hPa 0,0 l/m 6,2 km/h (2 Bft) SO 126 0 min 0,000 mm 0,0 UV-I 41 W/m -0,3 C 0,4 C 9,7 km/h (2 Bft) 96,00 %
25.01.2023 13:32 0,3 C 3,9 C 1,1 C 95 % 1029,3 hPa 0,0 l/m 5,3 km/h (1 Bft) O-SO 111 0 min 0,000 mm 0,0 UV-I 40 W/m -0,4 C 0,3 C 9,7 km/h (2 Bft) 100,00 %
25.01.2023 13:34 0,3 C 3,9 C 1,1 C 95 % 1029,2 hPa 0,0 l/m 6,2 km/h (2 Bft) O-SO 118 0 min 0,000 mm 0,0 UV-I 40 W/m -0,4 C 0,3 C 9,7 km/h (2 Bft) 98,00 %
25.01.2023 13:36 0,3 C 3,9 C 1,1 C 95 % 1029,2 hPa 0,0 l/m 5,3 km/h (1 Bft) O 88 0 min 0,000 mm 0,0 UV-I 39 W/m -0,4 C 0,3 C 9,7 km/h (2 Bft) 97,87 %
25.01.2023 13:38 0,4 C 3,9 C 1,1 C 95 % 1029,2 hPa 0,0 l/m 4,6 km/h (1 Bft) O-SO 103 0 min 0,000 mm 0,0 UV-I 39 W/m -0,3 C 0,4 C 6,4 km/h (2 Bft) 97,87 %
25.01.2023 13:40 0,3 C 3,9 C 0,6 C 95 % 1029,2 hPa 0,0 l/m 6,0 km/h (2 Bft) O 94 0 min 0,000 mm 0,0 UV-I 39 W/m -0,4 C 0,3 C 9,7 km/h (2 Bft) 100,00 %
25.01.2023 13:42 0,3 C 3,9 C 0,6 C 95 % 1029,2 hPa 0,0 l/m 6,7 km/h (2 Bft) O-SO 115 0 min 0,000 mm 0,0 UV-I 39 W/m -0,4 C 0,0 C 11,3 km/h (2 Bft) 100,00 %
25.01.2023 13:44 0,3 C 3,9 C 0,6 C 94 % 1029,0 hPa 0,0 l/m 2,8 km/h (1 Bft) O-SO 111 0 min 0,000 mm 0,0 UV-I 38 W/m -0,5 C 0,3 C 4,8 km/h (1 Bft) 97,87 %
25.01.2023 13:46 0,4 C 3,9 C 0,6 C 95 % 1029,0 hPa 0,0 l/m 5,7 km/h (1 Bft) O 92 0 min 0,000 mm 0,0 UV-I 37 W/m -0,3 C 0,4 C 11,3 km/h (2 Bft) 95,12 %
25.01.2023 13:48 0,3 C 3,9 C 0,6 C 95 % 1029,0 hPa 0,0 l/m 6,9 km/h (2 Bft) O-SO 121 0 min 0,000 mm 0,0 UV-I 37 W/m -0,4 C -0,2 C 11,3 km/h (2 Bft) 98,00 %
25.01.2023 13:50 0,3 C 3,9 C 0,6 C 95 % 1029,0 hPa 0,0 l/m 5,8 km/h (2 Bft) O 80 0 min 0,000 mm 0,0 UV-I 38 W/m -0,4 C 0,3 C 11,3 km/h (2 Bft) 100,00 %
25.01.2023 13:52 0,3 C 3,9 C 0,6 C 94 % 1028,9 hPa 0,0 l/m 4,7 km/h (1 Bft) O-SO 105 0 min 0,000 mm 0,0 UV-I 38 W/m -0,5 C 0,3 C 9,7 km/h (2 Bft) 97,73 %
25.01.2023 13:54 0,3 C 3,9 C 0,6 C 94 % 1028,9 hPa 0,0 l/m 5,7 km/h (1 Bft) O-SO 107 0 min 0,000 mm 0,0 UV-I 37 W/m -0,5 C 0,3 C 9,7 km/h (2 Bft) 98,00 %
25.01.2023 13:56 0,3 C 3,9 C 0,6 C 94 % 1028,9 hPa 0,0 l/m 7,8 km/h (2 Bft) O 92 0 min 0,000 mm 0,0 UV-I 38 W/m -0,5 C -1,1 C 12,9 km/h (3 Bft) 100,00 %
25.01.2023 13:58 0,3 C 3,9 C 0,6 C 94 % 1028,9 hPa 0,0 l/m 7,1 km/h (2 Bft) O-SO 113 0 min 0,000 mm 0,0 UV-I 39 W/m -0,5 C -0,4 C 9,7 km/h (2 Bft) 98,00 %
25.01.2023 14:00 0,3 C 3,9 C 0,6 C 94 % 1028,9 hPa 0,0 l/m 5,8 km/h (2 Bft) O 100 0 min 0,026 mm 0,0 UV-I 38 W/m -0,5 C 0,3 C 9,7 km/h (2 Bft) 100,00 %
25.01.2023 14:02 0,3 C 3,9 C 0,6 C 94 % 1028,8 hPa 0,0 l/m 4,3 km/h (1 Bft) O 89 0 min 0,000 mm 0,0 UV-I 37 W/m -0,5 C 0,3 C 8,0 km/h (2 Bft) 98,04 %
25.01.2023 14:04 0,3 C 3,9 C 0,6 C 94 % 1028,7 hPa 0,0 l/m 7,0 km/h (2 Bft) O 98 0 min 0,000 mm 0,0 UV-I 37 W/m -0,5 C -0,3 C 9,7 km/h (2 Bft) 100,00 %
25.01.2023 14:06 0,3 C 3,9 C 0,6 C 94 % 1028,7 hPa 0,0 l/m 3,8 km/h (1 Bft) O 86 0 min 0,000 mm 0,0 UV-I 35 W/m -0,5 C 0,3 C 4,8 km/h (1 Bft) 100,00 %
25.01.2023 14:08 0,3 C 3,9 C 0,6 C 94 % 1028,7 hPa 0,0 l/m 6,4 km/h (2 Bft) O-NO 71 0 min 0,000 mm 0,0 UV-I 35 W/m -0,5 C 0,3 C 11,3 km/h (2 Bft) 98,11 %
25.01.2023 14:10 0,3 C 3,9 C 0,6 C 94 % 1028,6 hPa 0,0 l/m 5,1 km/h (1 Bft) O 91 0 min 0,000 mm 0,0 UV-I 35 W/m -0,5 C 0,3 C 8,0 km/h (2 Bft) 98,11 %
25.01.2023 14:12 0,3 C 3,9 C 0,6 C 94 % 1028,6 hPa 0,0 l/m 4,1 km/h (1 Bft) SO 136 0 min 0,000 mm 0,0 UV-I 35 W/m -0,5 C 0,3 C 6,4 km/h (2 Bft) 97,87 %
25.01.2023 14:14 0,3 C 3,9 C 0,6 C 94 % 1028,6 hPa 0,0 l/m 4,7 km/h (1 Bft) O 101 0 min 0,000 mm 0,0 UV-I 35 W/m -0,5 C 0,3 C 9,7 km/h (2 Bft) 100,00 %
25.01.2023 14:16 0,3 C 3,9 C 0,6 C 94 % 1028,6 hPa 0,0 l/m 5,2 km/h (1 Bft) O 82 0 min 0,000 mm 0,0 UV-I 33 W/m -0,5 C 0,3 C 8,0 km/h (2 Bft) 100,00 %
25.01.2023 14:18 0,3 C 3,9 C 0,6 C 94 % 1028,6 hPa 0,0 l/m 5,0 km/h (1 Bft) O-SO 123 0 min 0,000 mm 0,0 UV-I 33 W/m -0,5 C 0,3 C 6,4 km/h (2 Bft) 100,00 %
25.01.2023 14:20 0,3 C 3,9 C 0,6 C 94 % 1028,6 hPa 0,0 l/m 6,6 km/h (2 Bft) O 84 0 min 0,000 mm 0,0 UV-I 33 W/m -0,5 C 0,1 C 11,3 km/h (2 Bft) 97,87 %
25.01.2023 14:22 0,3 C 3,9 C 0,6 C 94 % 1028,6 hPa 0,0 l/m 6,0 km/h (2 Bft) O 101 0 min 0,000 mm 0,0 UV-I 32 W/m -0,5 C 0,3 C 11,3 km/h (2 Bft) 98,00 %
25.01.2023 14:24 0,3 C 3,9 C 0,6 C 94 % 1028,6 hPa 0,0 l/m 6,9 km/h (2 Bft) O 97 0 min 0,000 mm 0,0 UV-I 32 W/m -0,5 C -0,2 C 11,3 km/h (2 Bft) 97,87 %
25.01.2023 14:26 0,3 C 3,9 C 0,6 C 94 % 1028,6 hPa 0,0 l/m 5,7 km/h (1 Bft) O 96 0 min 0,000 mm 0,0 UV-I 32 W/m -0,5 C 0,3 C 9,7 km/h (2 Bft) 94,74 %
25.01.2023 14:28 0,3 C 3,9 C 0,6 C 94 % 1028,6 hPa 0,0 l/m 4,1 km/h (1 Bft) O 101 0 min 0,000 mm 0,0 UV-I 30 W/m -0,5 C 0,3 C 6,4 km/h (2 Bft) 94,34 %
25.01.2023 14:30 0,3 C 3,9 C 0,6 C 94 % 1028,7 hPa 0,0 l/m 7,1 km/h (2 Bft) O 90 0 min 0,000 mm 0,0 UV-I 30 W/m -0,5 C -0,4 C 12,9 km/h (3 Bft) 95,12 %
25.01.2023 14:32 0,3 C 3,9 C 0,6 C 94 % 1028,6 hPa 0,0 l/m 8,7 km/h (2 Bft) O 96 0 min 0,000 mm 0,0 UV-I 30 W/m -0,5 C -2,0 C 12,9 km/h (3 Bft) 93,62 %
25.01.2023 14:34 0,3 C 3,9 C 0,6 C 94 % 1028,6 hPa 0,0 l/m 9,1 km/h (2 Bft) O 92 0 min 0,000 mm 0,0 UV-I 28 W/m -0,5 C -2,4 C 12,9 km/h (3 Bft) 96,23 %
25.01.2023 14:36 0,3 C 3,9 C 0,6 C 94 % 1028,6 hPa 0,0 l/m 7,2 km/h (2 Bft) O 96 0 min 0,000 mm 0,0 UV-I 28 W/m -0,5 C -0,5 C 11,3 km/h (2 Bft) 95,74 %
25.01.2023 14:38 0,3 C 3,9 C 0,6 C 94 % 1028,6 hPa 0,0 l/m 7,1 km/h (2 Bft) O 101 0 min 0,000 mm 0,0 UV-I 28 W/m -0,5 C -0,4 C 9,7 km/h (2 Bft) 95,74 %
25.01.2023 14:40 0,3 C 3,9 C 0,6 C 94 % 1028,6 hPa 0,0 l/m 5,2 km/h (1 Bft) O 83 0 min 0,000 mm 0,0 UV-I 27 W/m -0,5 C 0,3 C 9,7 km/h (2 Bft) 94,74 %
25.01.2023 14:42 0,3 C 3,9 C 0,6 C 94 % 1028,5 hPa 0,0 l/m 5,5 km/h (1 Bft) O-SO 110 0 min 0,000 mm 0,0 UV-I 28 W/m -0,5 C 0,3 C 9,7 km/h (2 Bft) 96,43 %
25.01.2023 14:44 0,3 C 3,9 C 0,6 C 94 % 1028,4 hPa 0,0 l/m 4,5 km/h (1 Bft) O-SO 108 0 min 0,000 mm 0,0 UV-I 28 W/m -0,5 C 0,3 C 6,4 km/h (2 Bft) 92,11 %
25.01.2023 14:46 0,3 C 3,9 C 0,6 C 94 % 1028,5 hPa 0,0 l/m 3,6 km/h (1 Bft) O 96 0 min 0,000 mm 0,0 UV-I 28 W/m -0,5 C 0,3 C 6,4 km/h (2 Bft) 96,23 %
25.01.2023 14:48 0,3 C 3,9 C 0,6 C 94 % 1028,4 hPa 0,0 l/m 4,4 km/h (1 Bft) O 95 0 min 0,000 mm 0,0 UV-I 26 W/m -0,5 C 0,3 C 6,4 km/h (2 Bft) 96,23 %
25.01.2023 14:50 0,3 C 3,9 C 0,6 C 94 % 1028,4 hPa 0,0 l/m 3,9 km/h (1 Bft) O 90 0 min 0,000 mm 0,0 UV-I 26 W/m -0,5 C 0,3 C 6,4 km/h (2 Bft) 97,87 %
25.01.2023 14:52 0,3 C 3,9 C 0,6 C 94 % 1028,4 hPa 0,0 l/m 4,3 km/h (1 Bft) O 93 0 min 0,000 mm 0,0 UV-I 26 W/m -0,5 C 0,3 C 6,4 km/h (2 Bft) 97,37 %
25.01.2023 14:54 0,3 C 3,9 C 0,6 C 94 % 1028,4 hPa 0,0 l/m 6,0 km/h (2 Bft) O 92 0 min 0,000 mm 0,0 UV-I 26 W/m -0,5 C 0,3 C 11,3 km/h (2 Bft) 98,00 %
25.01.2023 14:56 0,3 C 3,9 C 0,6 C 94 % 1028,4 hPa 0,0 l/m 6,9 km/h (2 Bft) O-NO 67 0 min 0,000 mm 0,0 UV-I 26 W/m -0,5 C -0,2 C 12,9 km/h (3 Bft) 98,00 %
25.01.2023 14:58 0,3 C 3,9 C 0,6 C 94 % 1028,4 hPa 0,0 l/m 5,5 km/h (1 Bft) O-NO 58 0 min 0,000 mm 0,0 UV-I 25 W/m -0,5 C 0,3 C 8,0 km/h (2 Bft) 100,00 %
25.01.2023 15:00 0,3 C 3,9 C 0,6 C 94 % 1028,4 hPa 0,0 l/m 4,2 km/h (1 Bft) O 79 0 min 0,025 mm 0,0 UV-I 23 W/m -0,5 C 0,3 C 8,0 km/h (2 Bft) 100,00 %
25.01.2023 15:02 0,3 C 3,9 C 0,6 C 94 % 1028,4 hPa 0,0 l/m 5,2 km/h (1 Bft) O 94 0 min 0,000 mm 0,0 UV-I 23 W/m -0,5 C 0,3 C 9,7 km/h (2 Bft) 98,15 %
25.01.2023 15:04 0,3 C 3,9 C 0,6 C 94 % 1028,3 hPa 0,0 l/m 5,3 km/h (1 Bft) O-SO 107 0 min 0,000 mm 0,0 UV-I 23 W/m -0,5 C 0,3 C 6,4 km/h (2 Bft) 98,00 %
25.01.2023 15:06 0,3 C 3,9 C 0,6 C 94 % 1028,3 hPa 0,0 l/m 3,7 km/h (1 Bft) O 97 0 min 0,000 mm 0,0 UV-I 23 W/m -0,5 C 0,3 C 6,4 km/h (2 Bft) 97,87 %
25.01.2023 15:08 0,3 C 3,9 C 0,6 C 94 % 1028,3 hPa 0,0 l/m 4,9 km/h (1 Bft) O-SO 121 0 min 0,000 mm 0,0 UV-I 22 W/m -0,5 C 0,3 C 11,3 km/h (2 Bft) 100,00 %
25.01.2023 15:10 0,3 C 3,9 C 0,6 C 94 % 1028,4 hPa 0,0 l/m 7,4 km/h (2 Bft) O-SO 108 0 min 0,000 mm 0,0 UV-I 21 W/m -0,5 C -0,7 C 12,9 km/h (3 Bft) 100,00 %
25.01.2023 15:12 0,3 C 3,9 C 0,6 C 94 % 1028,3 hPa 0,0 l/m 6,5 km/h (2 Bft) O 101 0 min 0,000 mm 0,0 UV-I 21 W/m -0,5 C 0,2 C 11,3 km/h (2 Bft) 100,00 %
25.01.2023 15:14 0,3 C 3,9 C 0,6 C 94 % 1028,3 hPa 0,0 l/m 5,2 km/h (1 Bft) O 86 0 min 0,000 mm 0,0 UV-I 21 W/m -0,5 C 0,3 C 9,7 km/h (2 Bft) 100,00 %
25.01.2023 15:16 0,3 C 3,9 C 0,6 C 94 % 1028,3 hPa 0,0 l/m 5,9 km/h (2 Bft) O 90 0 min 0,000 mm 0,0 UV-I 19 W/m -0,5 C 0,3 C 9,7 km/h (2 Bft) 100,00 %
25.01.2023 15:18 0,3 C 3,9 C 0,6 C 94 % 1028,3 hPa 0,0 l/m 5,6 km/h (1 Bft) O-SO 105 0 min 0,000 mm 0,0 UV-I 19 W/m -0,5 C 0,3 C 9,7 km/h (2 Bft) 100,00 %
25.01.2023 15:20 0,3 C 3,9 C 0,6 C 94 % 1028,3 hPa 0,0 l/m 3,8 km/h (1 Bft) O-SO 105 0 min 0,000 mm 0,0 UV-I 19 W/m -0,5 C 0,3 C 4,8 km/h (1 Bft) 100,00 %
25.01.2023 15:22 0,3 C 3,9 C 0,6 C 94 % 1028,3 hPa 0,0 l/m 5,3 km/h (1 Bft) O 96 0 min 0,000 mm 0,0 UV-I 18 W/m -0,5 C 0,3 C 11,3 km/h (2 Bft) 100,00 %
25.01.2023 15:24 0,3 C 3,9 C 0,6 C 94 % 1028,3 hPa 0,0 l/m 5,4 km/h (1 Bft) O 94 0 min 0,000 mm 0,0 UV-I 18 W/m -0,5 C 0,3 C 6,4 km/h (2 Bft) 100,00 %
25.01.2023 15:26 0,3 C 3,9 C 0,6 C 94 % 1028,2 hPa 0,0 l/m 6,9 km/h (2 Bft) O 90 0 min 0,000 mm 0,0 UV-I 17 W/m -0,5 C -0,2 C 11,3 km/h (2 Bft) 98,00 %
25.01.2023 15:28 0,3 C 3,9 C 0,6 C 94 % 1028,2 hPa 0,0 l/m 10,3 km/h (2 Bft) O-SO 107 0 min 0,000 mm 0,0 UV-I 18 W/m -0,5 C -3,4 C 14,5 km/h (3 Bft) 97,87 %
25.01.2023 15:30 0,3 C 3,9 C 0,6 C 94 % 1028,2 hPa 0,0 l/m 8,0 km/h (2 Bft) O-SO 113 0 min 0,000 mm 0,0 UV-I 18 W/m -0,5 C -1,3 C 14,5 km/h (3 Bft) 98,00 %
25.01.2023 15:32 0,3 C 3,9 C 0,6 C 94 % 1028,1 hPa 0,0 l/m 10,2 km/h (2 Bft) O-SO 123 0 min 0,000 mm 0,0 UV-I 18 W/m -0,5 C -3,3 C 12,9 km/h (3 Bft) 97,37 %
25.01.2023 15:34 0,3 C 3,9 C 0,6 C 94 % 1028,1 hPa 0,0 l/m 7,2 km/h (2 Bft) SO 130 0 min 0,000 mm 0,0 UV-I 17 W/m -0,5 C -0,5 C 11,3 km/h (2 Bft) 98,00 %
25.01.2023 15:36 0,2 C 3,9 C 0,6 C 94 % 1028,1 hPa 0,0 l/m 4,4 km/h (1 Bft) SO 142 0 min 0,000 mm 0,0 UV-I 16 W/m -0,6 C 0,2 C 6,4 km/h (2 Bft) 97,87 %
25.01.2023 15:38 0,2 C 3,9 C 0,6 C 94 % 1028,1 hPa 0,0 l/m 3,5 km/h (1 Bft) O-SO 103 0 min 0,000 mm 0,0 UV-I 17 W/m -0,6 C 0,2 C 4,8 km/h (1 Bft) 98,11 %
25.01.2023 15:40 0,2 C 3,9 C 0,6 C 94 % 1028,1 hPa 0,0 l/m 3,9 km/h (1 Bft) O 94 0 min 0,000 mm 0,0 UV-I 16 W/m -0,6 C 0,2 C 6,4 km/h (2 Bft) 97,56 %
25.01.2023 15:42 0,3 C 3,9 C 0,6 C 94 % 1028,0 hPa 0,0 l/m 4,8 km/h (1 Bft) O-SO 106 0 min 0,000 mm 0,0 UV-I 17 W/m -0,5 C 0,3 C 6,4 km/h (2 Bft) 94,00 %
25.01.2023 15:44 0,3 C 3,9 C 0,6 C 94 % 1028,0 hPa 0,0 l/m 5,6 km/h (1 Bft) O 90 0 min 0,000 mm 0,0 UV-I 16 W/m -0,5 C 0,3 C 11,3 km/h (2 Bft) 96,00 %
25.01.2023 15:46 0,3 C 3,9 C 0,6 C 94 % 1028,0 hPa 0,0 l/m 5,8 km/h (2 Bft) O 92 0 min 0,000 mm 0,0 UV-I 15 W/m -0,5 C 0,3 C 9,7 km/h (2 Bft) 95,45 %
25.01.2023 15:48 0,2 C 3,9 C 0,6 C 94 % 1028,0 hPa 0,0 l/m 5,6 km/h (1 Bft) O-NO 63 0 min 0,000 mm 0,0 UV-I 14 W/m -0,6 C 0,2 C 8,0 km/h (2 Bft) 95,74 %
25.01.2023 15:50 0,2 C 3,9 C 0,0 C 94 % 1028,0 hPa 0,0 l/m 8,4 km/h (2 Bft) O 85 0 min 0,000 mm 0,0 UV-I 14 W/m -0,6 C -1,8 C 12,9 km/h (3 Bft) 95,74 %
25.01.2023 15:52 0,2 C 3,9 C 0,0 C 94 % 1028,0 hPa 0,0 l/m 8,8 km/h (2 Bft) O-NO 69 0 min 0,000 mm 0,0 UV-I 14 W/m -0,6 C -2,2 C 12,9 km/h (3 Bft) 92,31 %
25.01.2023 15:54 0,2 C 3,9 C 0,0 C 94 % 1027,9 hPa 0,0 l/m 9,6 km/h (2 Bft) O 82 0 min 0,000 mm 0,0 UV-I 14 W/m -0,6 C -2,9 C 14,5 km/h (3 Bft) 95,12 %
25.01.2023 15:56 0,2 C 3,9 C 0,0 C 94 % 1027,9 hPa 0,0 l/m 5,8 km/h (2 Bft) O-NO 71 0 min 0,000 mm 0,0 UV-I 13 W/m -0,6 C 0,2 C 9,7 km/h (2 Bft) 96,72 %
25.01.2023 15:58 0,2 C 3,9 C 0,0 C 94 % 1028,0 hPa 0,0 l/m 3,6 km/h (1 Bft) O-NO 72 0 min 0,000 mm 0,0 UV-I 12 W/m -0,6 C 0,2 C 6,4 km/h (2 Bft) 91,67 %
25.01.2023 16:00 0,2 C 3,9 C 0,0 C 94 % 1027,9 hPa 0,0 l/m 5,6 km/h (1 Bft) NO 42 0 min 0,000 mm 0,0 UV-I 12 W/m -0,6 C 0,2 C 8,0 km/h (2 Bft) 96,00 %
25.01.2023 16:02 0,3 C 3,9 C 0,0 C 94 % 1027,9 hPa 0,0 l/m 6,1 km/h (2 Bft) NO 45 0 min 0,000 mm 0,0 UV-I 12 W/m -0,5 C 0,3 C 11,3 km/h (2 Bft) 95,74 %
25.01.2023 16:04 0,3 C 3,9 C 0,0 C 94 % 1027,9 hPa 0,0 l/m 8,6 km/h (2 Bft) NO 38 0 min 0,000 mm 0,0 UV-I 12 W/m -0,5 C -1,9 C 14,5 km/h (3 Bft) 98,00 %
25.01.2023 16:06 0,3 C 3,9 C 0,0 C 94 % 1027,9 hPa 0,0 l/m 8,2 km/h (2 Bft) NO 51 0 min 0,000 mm 0,0 UV-I 11 W/m -0,5 C -1,5 C 16,1 km/h (3 Bft) 95,74 %
25.01.2023 16:08 0,3 C 3,9 C 0,0 C 94 % 1027,8 hPa 0,0 l/m 10,5 km/h (2 Bft) O-NO 64 0 min 0,000 mm 0,0 UV-I 11 W/m -0,5 C -3,5 C 16,1 km/h (3 Bft) 97,87 %
25.01.2023 16:10 0,3 C 3,9 C 0,0 C 94 % 1027,8 hPa 0,0 l/m 10,0 km/h (2 Bft) NO 43 0 min 0,000 mm 0,0 UV-I 9 W/m -0,5 C -3,1 C 14,5 km/h (3 Bft) 97,87 %
25.01.2023 16:12 0,3 C 3,9 C 0,0 C 94 % 1027,8 hPa 0,0 l/m 10,3 km/h (2 Bft) O 81 0 min 0,000 mm 0,0 UV-I 9 W/m -0,5 C -3,4 C 14,5 km/h (3 Bft) 95,74 %
25.01.2023 16:14 0,3 C 3,9 C 0,0 C 94 % 1027,8 hPa 0,0 l/m 10,9 km/h (2 Bft) O-NO 60 0 min 0,000 mm 0,0 UV-I 9 W/m -0,5 C -3,8 C 14,5 km/h (3 Bft) 95,74 %
25.01.2023 16:16 0,3 C 3,9 C 0,0 C 94 % 1027,8 hPa 0,0 l/m 9,8 km/h (2 Bft) O-NO 78 0 min 0,000 mm 0,0 UV-I 9 W/m -0,5 C -3,0 C 14,5 km/h (3 Bft) 97,56 %
25.01.2023 16:18 0,3 C 3,9 C 0,0 C 94 % 1027,7 hPa 0,0 l/m 13,0 km/h (3 Bft) O-SO 102 0 min 0,000 mm 0,0 UV-I 9 W/m -0,5 C -5,4 C 16,1 km/h (3 Bft) 96,23 %
25.01.2023 16:20 0,3 C 3,9 C 0,0 C 94 % 1027,7 hPa 0,0 l/m 7,6 km/h (2 Bft) NO 43 0 min 0,000 mm 0,0 UV-I 8 W/m -0,5 C -0,9 C 12,9 km/h (3 Bft) 95,74 %
25.01.2023 16:22 0,3 C 3,9 C 0,0 C 94 % 1027,7 hPa 0,0 l/m 9,7 km/h (2 Bft) NO 56 0 min 0,000 mm 0,0 UV-I 7 W/m -0,5 C -2,9 C 14,5 km/h (3 Bft) 93,62 %
25.01.2023 16:24 0,3 C 3,9 C 0,0 C 94 % 1027,7 hPa 0,0 l/m 8,8 km/h (2 Bft) NO 55 0 min 0,000 mm 0,0 UV-I 7 W/m -0,5 C -2,1 C 12,9 km/h (3 Bft) 96,00 %
25.01.2023 16:26 0,3 C 3,9 C 0,0 C 94 % 1027,7 hPa 0,0 l/m 7,7 km/h (2 Bft) O-NO 68 0 min 0,000 mm 0,0 UV-I 7 W/m -0,5 C -1,0 C 12,9 km/h (3 Bft) 92,11 %
25.01.2023 16:28 0,3 C 3,9 C 0,0 C 94 % 1027,7 hPa 0,0 l/m 8,3 km/h (2 Bft) O-NO 71 0 min 0,000 mm 0,0 UV-I 7 W/m -0,5 C -1,6 C 12,9 km/h (3 Bft) 95,74 %
25.01.2023 16:30 0,3 C 3,9 C 0,0 C 94 % 1027,7 hPa 0,0 l/m 9,2 km/h (2 Bft) O-NO 78 0 min 0,000 mm 0,0 UV-I 7 W/m -0,5 C -2,4 C 12,9 km/h (3 Bft) 93,62 %
25.01.2023 16:32 0,3 C 3,9 C 0,0 C 94 % 1027,6 hPa 0,0 l/m 8,8 km/h (2 Bft) O-NO 71 0 min 0,000 mm 0,0 UV-I 7 W/m -0,5 C -2,1 C 14,5 km/h (3 Bft) 94,34 %
25.01.2023 16:34 0,3 C 3,9 C 0,0 C 94 % 1027,6 hPa 0,0 l/m 6,4 km/h (2 Bft) O 88 0 min 0,000 mm 0,0 UV-I 5 W/m -0,5 C 0,3 C 11,3 km/h (2 Bft) 96,00 %
25.01.2023 16:36 0,3 C 3,9 C 0,0 C 94 % 1027,6 hPa 0,0 l/m 8,0 km/h (2 Bft) O 91 0 min 0,000 mm 0,0 UV-I 5 W/m -0,5 C -1,3 C 12,9 km/h (3 Bft) 94,74 %
25.01.2023 16:38 0,3 C 3,9 C 0,0 C 94 % 1027,5 hPa 0,0 l/m 6,5 km/h (2 Bft) O 82 0 min 0,000 mm 0,0 UV-I 5 W/m -0,5 C 0,2 C 11,3 km/h (2 Bft) 98,11 %
25.01.2023 16:40 0,3 C 3,9 C 0,0 C 94 % 1027,5 hPa 0,0 l/m 9,0 km/h (2 Bft) O-SO 109 0 min 0,000 mm 0,0 UV-I 5 W/m -0,5 C -2,3 C 16,1 km/h (3 Bft) 97,87 %
25.01.2023 16:42 0,3 C 3,9 C 0,0 C 94 % 1027,5 hPa 0,0 l/m 8,5 km/h (2 Bft) O-NO 74 0 min 0,000 mm 0,0 UV-I 5 W/m -0,5 C -1,8 C 12,9 km/h (3 Bft) 95,74 %
25.01.2023 16:44 0,3 C 3,9 C 0,0 C 94 % 1027,4 hPa 0,0 l/m 7,2 km/h (2 Bft) O-NO 64 0 min 0,000 mm 0,0 UV-I 5 W/m -0,5 C -0,5 C 11,3 km/h (2 Bft) 97,87 %
25.01.2023 16:46 0,3 C 3,9 C 0,0 C 94 % 1027,4 hPa 0,0 l/m 11,7 km/h (2 Bft) O-NO 75 0 min 0,000 mm 0,0 UV-I 2 W/m -0,5 C -4,4 C 16,1 km/h (3 Bft) 95,74 %
25.01.2023 16:48 0,3 C 3,9 C 0,0 C 94 % 1027,4 hPa 0,0 l/m 9,7 km/h (2 Bft) O-NO 76 0 min 0,000 mm 0,0 UV-I 0 W/m -0,5 C -2,9 C 12,9 km/h (3 Bft) 92,00 %
25.01.2023 16:50 0,3 C 3,9 C 0,0 C 94 % 1027,4 hPa 0,0 l/m 8,4 km/h (2 Bft) O 86 0 min 0,000 mm 0,0 UV-I 0 W/m -0,5 C -1,7 C 12,9 km/h (3 Bft) 97,56 %
25.01.2023 16:52 0,3 C 3,9 C 0,0 C 94 % 1027,3 hPa 0,0 l/m 3,3 km/h (1 Bft) O 88 0 min 0,000 mm 0,0 UV-I 0 W/m -0,5 C 0,3 C 4,8 km/h (1 Bft) 98,00 %
25.01.2023 16:54 0,3 C 3,9 C 0,0 C 94 % 1027,3 hPa 0,0 l/m 2,5 km/h (1 Bft) O 89 0 min 0,000 mm 0,0 UV-I 0 W/m -0,5 C 0,3 C 3,2 km/h (1 Bft) 95,74 %
25.01.2023 16:56 0,3 C 3,9 C 0,0 C 94 % 1027,3 hPa 0,0 l/m 2,8 km/h (1 Bft) O 92 0 min 0,000 mm 0,0 UV-I 0 W/m -0,5 C 0,3 C 4,8 km/h (1 Bft) 97,37 %
25.01.2023 16:58 0,3 C 3,9 C 0,0 C 94 % 1027,3 hPa 0,0 l/m 3,3 km/h (1 Bft) O 82 0 min 0,000 mm 0,0 UV-I 0 W/m -0,5 C 0,3 C 6,4 km/h (2 Bft) 95,74 %
25.01.2023 17:00 0,3 C 3,9 C 0,0 C 94 % 1027,3 hPa 0,0 l/m 5,7 km/h (1 Bft) O-SO 115 0 min 0,000 mm 0,0 UV-I 0 W/m -0,5 C 0,3 C 9,7 km/h (2 Bft) 93,62 %
25.01.2023 17:02 0,3 C 3,9 C 0,0 C 94 % 1027,3 hPa 0,0 l/m 4,1 km/h (1 Bft) O-SO 113 0 min 0,000 mm 0,0 UV-I 0 W/m -0,5 C 0,3 C 4,8 km/h (1 Bft) 96,08 %
25.01.2023 17:04 0,3 C 3,9 C 0,0 C 94 % 1027,3 hPa 0,0 l/m 2,9 km/h (1 Bft) O-SO 115 0 min 0,000 mm 0,0 UV-I 0 W/m -0,5 C 0,3 C 4,8 km/h (1 Bft) 96,23 %
25.01.2023 17:06 0,3 C 3,9 C 0,0 C 94 % 1027,3 hPa 0,0 l/m 5,2 km/h (1 Bft) O 90 0 min 0,000 mm 0,0 UV-I 0 W/m -0,5 C 0,3 C 9,7 km/h (2 Bft) 97,87 %
25.01.2023 17:08 0,3 C 3,9 C 0,0 C 94 % 1027,3 hPa 0,0 l/m 8,6 km/h (2 Bft) O 86 0 min 0,000 mm 0,0 UV-I 0 W/m -0,5 C -1,9 C 12,9 km/h (3 Bft) 92,68 %
25.01.2023 17:10 0,3 C 3,9 C 0,0 C 94 % 1027,3 hPa 0,0 l/m 5,1 km/h (1 Bft) O-NO 73 0 min 0,000 mm 0,0 UV-I 0 W/m -0,5 C 0,3 C 9,7 km/h (2 Bft) 96,00 %
25.01.2023 17:12 0,3 C 3,9 C 0,0 C 94 % 1027,3 hPa 0,0 l/m 4,4 km/h (1 Bft) O-NO 73 0 min 0,000 mm 0,0 UV-I 0 W/m -0,5 C 0,3 C 8,0 km/h (2 Bft) 95,74 %
25.01.2023 17:14 0,3 C 3,9 C 0,0 C 94 % 1027,2 hPa 0,0 l/m 6,4 km/h (2 Bft) O-SO 112 0 min 0,000 mm 0,0 UV-I 0 W/m -0,5 C 0,3 C 9,7 km/h (2 Bft) 96,00 %
25.01.2023 17:16 0,3 C 3,9 C 0,0 C 94 % 1027,2 hPa 0,0 l/m 8,6 km/h (2 Bft) O-SO 107 0 min 0,000 mm 0,0 UV-I 0 W/m -0,5 C -1,9 C 12,9 km/h (3 Bft) 97,37 %
25.01.2023 17:18 0,3 C 3,9 C 0,0 C 94 % 1027,2 hPa 0,0 l/m 6,8 km/h (2 Bft) O 94 0 min 0,000 mm 0,0 UV-I 0 W/m -0,5 C -0,1 C 11,3 km/h (2 Bft) 95,12 %
25.01.2023 17:20 0,3 C 3,9 C 0,0 C 94 % 1027,2 hPa 0,0 l/m 4,8 km/h (1 Bft) O 95 0 min 0,000 mm 0,0 UV-I 0 W/m -0,5 C 0,3 C 9,7 km/h (2 Bft) 98,21 %
25.01.2023 17:22 0,3 C 3,9 C 0,0 C 94 % 1027,2 hPa 0,0 l/m 3,6 km/h (1 Bft) O 99 0 min 0,000 mm 0,0 UV-I 0 W/m -0,5 C 0,3 C 6,4 km/h (2 Bft) 100,00 %
25.01.2023 17:24 0,3 C 3,9 C 0,0 C 94 % 1027,2 hPa 0,0 l/m 4,7 km/h (1 Bft) O-SO 115 0 min 0,000 mm 0,0 UV-I 0 W/m -0,5 C 0,3 C 6,4 km/h (2 Bft) 100,00 %
25.01.2023 17:26 0,3 C 3,9 C 0,0 C 94 % 1027,2 hPa 0,0 l/m 5,6 km/h (1 Bft) O 93 0 min 0,000 mm 0,0 UV-I 0 W/m -0,5 C 0,3 C 11,3 km/h (2 Bft) 96,00 %
25.01.2023 17:28 0,3 C 3,9 C 0,0 C 94 % 1027,2 hPa 0,0 l/m 3,9 km/h (1 Bft) O 82 0 min 0,000 mm 0,0 UV-I 0 W/m -0,5 C 0,3 C 6,4 km/h (2 Bft) 100,00 %
25.01.2023 17:30 0,3 C 3,9 C 0,0 C 94 % 1027,1 hPa 0,0 l/m 3,7 km/h (1 Bft) SO 126 0 min 0,000 mm 0,0 UV-I 0 W/m -0,5 C 0,3 C 6,4 km/h (2 Bft) 100,00 %
25.01.2023 17:32 0,3 C 3,9 C 0,0 C 94 % 1027,2 hPa 0,0 l/m 2,7 km/h (1 Bft) O-SO 103 0 min 0,000 mm 0,0 UV-I 0 W/m -0,5 C 0,3 C 6,4 km/h (2 Bft) 93,62 %
25.01.2023 17:34 0,3 C 3,9 C 0,0 C 94 % 1027,2 hPa 0,0 l/m 3,0 km/h (1 Bft) O-SO 103 0 min 0,000 mm 0,0 UV-I 0 W/m -0,5 C 0,3 C 4,8 km/h (1 Bft) 100,00 %
25.01.2023 17:36 0,3 C 3,9 C 0,0 C 94 % 1027,2 hPa 0,0 l/m 2,7 km/h (1 Bft) SO 138 0 min 0,000 mm 0,0 UV-I 0 W/m -0,5 C 0,3 C 6,4 km/h (2 Bft) 97,37 %
25.01.2023 17:38 0,3 C 3,9 C 0,0 C 94 % 1027,2 hPa 0,0 l/m 3,9 km/h (1 Bft) O-SO 110 0 min 0,000 mm 0,0 UV-I 0 W/m -0,5 C 0,3 C 6,4 km/h (2 Bft) 100,00 %
25.01.2023 17:40 0,4 C 3,9 C 0,0 C 94 % 1027,2 hPa 0,0 l/m 3,8 km/h (1 Bft) SO 135 0 min 0,000 mm 0,0 UV-I 0 W/m -0,5 C 0,4 C 4,8 km/h (1 Bft) 100,00 %
25.01.2023 17:42 0,3 C 3,9 C 0,0 C 94 % 1027,2 hPa 0,0 l/m 3,3 km/h (1 Bft) SO 135 0 min 0,000 mm 0,0 UV-I 0 W/m -0,5 C 0,3 C 4,8 km/h (1 Bft) 100,00 %
25.01.2023 17:44 0,3 C 3,9 C 0,0 C 94 % 1027,1 hPa 0,0 l/m 2,1 km/h (1 Bft) SO 132 0 min 0,000 mm 0,0 UV-I 0 W/m -0,5 C 0,3 C 3,2 km/h (1 Bft) 100,00 %
25.01.2023 17:46 0,3 C 3,9 C 0,0 C 94 % 1027,1 hPa 0,0 l/m 3,2 km/h (1 Bft) O 99 0 min 0,000 mm 0,0 UV-I 0 W/m -0,5 C 0,3 C 6,4 km/h (2 Bft) 100,00 %
25.01.2023 17:48 0,3 C 3,9 C 0,0 C 94 % 1027,1 hPa 0,0 l/m 5,2 km/h (1 Bft) O-SO 113 0 min 0,000 mm 0,0 UV-I 0 W/m -0,5 C 0,3 C 11,3 km/h (2 Bft) 100,00 %
25.01.2023 17:50 0,3 C 3,9 C 0,0 C 94 % 1027,0 hPa 0,0 l/m 3,7 km/h (1 Bft) O-SO 111 0 min 0,000 mm 0,0 UV-I 0 W/m -0,5 C 0,3 C 6,4 km/h (2 Bft) 97,73 %
25.01.2023 17:52 0,3 C 3,9 C 0,0 C 94 % 1027,0 hPa 0,0 l/m 4,0 km/h (1 Bft) O 92 0 min 0,000 mm 0,0 UV-I 0 W/m -0,5 C 0,3 C 11,3 km/h (2 Bft) 100,00 %
25.01.2023 17:54 0,3 C 3,9 C 0,0 C 94 % 1027,0 hPa 0,0 l/m 7,4 km/h (2 Bft) O 92 0 min 0,000 mm 0,0 UV-I 0 W/m -0,5 C -0,7 C 12,9 km/h (3 Bft) 100,00 %
25.01.2023 17:56 0,3 C 3,9 C 0,0 C 94 % 1027,0 hPa 0,0 l/m 6,5 km/h (2 Bft) O-NO 76 0 min 0,000 mm 0,0 UV-I 0 W/m -0,5 C 0,2 C 11,3 km/h (2 Bft) 100,00 %
25.01.2023 17:58 0,3 C 3,9 C 0,0 C 94 % 1027,0 hPa 0,0 l/m 4,3 km/h (1 Bft) SO 136 0 min 0,000 mm 0,0 UV-I 0 W/m -0,5 C 0,3 C 6,4 km/h (2 Bft) 100,00 %
25.01.2023 18:00 0,3 C 3,9 C 0,0 C 94 % 1027,0 hPa 0,0 l/m 4,8 km/h (1 Bft) SO 134 0 min 0,000 mm 0,0 UV-I 0 W/m -0,5 C 0,3 C 6,4 km/h (2 Bft) 100,00 %
25.01.2023 18:02 0,3 C 3,9 C 0,0 C 94 % 1027,0 hPa 0,0 l/m 3,9 km/h (1 Bft) SO 131 0 min 0,000 mm 0,0 UV-I 0 W/m -0,5 C 0,3 C 6,4 km/h (2 Bft) 100,00 %
25.01.2023 18:04 0,3 C 3,9 C 0,0 C 94 % 1027,0 hPa 0,0 l/m 4,1 km/h (1 Bft) SO 132 0 min 0,000 mm 0,0 UV-I 0 W/m -0,5 C 0,3 C 6,4 km/h (2 Bft) 100,00 %
25.01.2023 18:06 0,3 C 3,9 C 0,0 C 94 % 1026,9 hPa 0,0 l/m 5,1 km/h (1 Bft) O-SO 111 0 min 0,000 mm 0,0 UV-I 0 W/m -0,5 C 0,3 C 8,0 km/h (2 Bft) 100,00 %
25.01.2023 18:08 0,3 C 3,9 C 0,0 C 94 % 1026,9 hPa 0,0 l/m 4,4 km/h (1 Bft) O-SO 105 0 min 0,000 mm 0,0 UV-I 0 W/m -0,5 C 0,3 C 6,4 km/h (2 Bft) 100,00 %
25.01.2023 18:10 0,3 C 3,9 C 0,0 C 94 % 1026,9 hPa 0,0 l/m 4,2 km/h (1 Bft) O-SO 102 0 min 0,000 mm 0,0 UV-I 0 W/m -0,5 C 0,3 C 9,7 km/h (2 Bft) 100,00 %
25.01.2023 18:12 0,3 C 3,9 C 0,0 C 94 % 1026,9 hPa 0,0 l/m 4,9 km/h (1 Bft) O-SO 111 0 min 0,000 mm 0,0 UV-I 0 W/m -0,5 C 0,3 C 9,7 km/h (2 Bft) 100,00 %
25.01.2023 18:14 0,3 C 3,9 C 0,0 C 94 % 1026,8 hPa 0,0 l/m 3,3 km/h (1 Bft) O-SO 104 0 min 0,000 mm 0,0 UV-I 0 W/m -0,5 C 0,3 C 4,8 km/h (1 Bft) 97,44 %
25.01.2023 18:16 0,3 C 3,9 C 0,0 C 94 % 1026,8 hPa 0,0 l/m 4,0 km/h (1 Bft) SO 126 0 min 0,000 mm 0,0 UV-I 0 W/m -0,5 C 0,3 C 6,4 km/h (2 Bft) 98,08 %
25.01.2023 18:18 0,3 C 3,9 C 0,0 C 94 % 1026,8 hPa 0,0 l/m 5,4 km/h (1 Bft) SO 144 0 min 0,000 mm 0,0 UV-I 0 W/m -0,5 C 0,3 C 9,7 km/h (2 Bft) 97,73 %
25.01.2023 18:20 0,3 C 3,9 C 0,0 C 94 % 1026,8 hPa 0,0 l/m 3,5 km/h (1 Bft) O 82 0 min 0,000 mm 0,0 UV-I 0 W/m -0,5 C 0,3 C 6,4 km/h (2 Bft) 96,00 %
25.01.2023 18:22 0,3 C 3,9 C 0,0 C 94 % 1026,8 hPa 0,0 l/m 8,7 km/h (2 Bft) S-SO 153 0 min 0,000 mm 0,0 UV-I 0 W/m -0,5 C -2,0 C 16,1 km/h (3 Bft) 97,87 %
25.01.2023 18:24 0,3 C 3,9 C 0,0 C 94 % 1026,8 hPa 0,0 l/m 6,1 km/h (2 Bft) O 94 0 min 0,000 mm 0,0 UV-I 0 W/m -0,5 C 0,3 C 11,3 km/h (2 Bft) 98,00 %
25.01.2023 18:26 0,3 C 3,9 C 0,0 C 94 % 1026,7 hPa 0,0 l/m 6,4 km/h (2 Bft) O-SO 117 0 min 0,000 mm 0,0 UV-I 0 W/m -0,5 C 0,3 C 11,3 km/h (2 Bft) 97,44 %
25.01.2023 18:28 0,3 C 3,9 C 0,0 C 94 % 1026,7 hPa 0,0 l/m 4,1 km/h (1 Bft) O 93 0 min 0,000 mm 0,0 UV-I 0 W/m -0,5 C 0,3 C 4,8 km/h (1 Bft) 95,65 %
25.01.2023 18:30 0,3 C 3,9 C 0,0 C 94 % 1026,7 hPa 0,0 l/m 3,2 km/h (1 Bft) O-SO 105 0 min 0,000 mm 0,0 UV-I 0 W/m -0,5 C 0,3 C 4,8 km/h (1 Bft) 94,00 %
25.01.2023 18:32 0,3 C 3,9 C 0,0 C 94 % 1026,7 hPa 0,0 l/m 3,0 km/h (1 Bft) O-SO 115 0 min 0,000 mm 0,0 UV-I 0 W/m -0,5 C 0,3 C 6,4 km/h (2 Bft) 92,00 %
25.01.2023 18:34 0,3 C 3,9 C 0,0 C 94 % 1026,7 hPa 0,0 l/m 2,0 km/h (1 Bft) O-SO 115 0 min 0,000 mm 0,0 UV-I 0 W/m -0,5 C 0,3 C 3,2 km/h (1 Bft) 97,87 %
25.01.2023 18:36 0,3 C 3,9 C 0,0 C 94 % 1026,7 hPa 0,0 l/m 2,9 km/h (1 Bft) O-SO 105 0 min 0,000 mm 0,0 UV-I 0 W/m -0,5 C 0,3 C 6,4 km/h (2 Bft) 97,22 %
25.01.2023 18:38 0,3 C 3,9 C 0,0 C 94 % 1026,6 hPa 0,0 l/m 6,6 km/h (2 Bft) O-SO 119 0 min 0,000 mm 0,0 UV-I 0 W/m -0,5 C 0,1 C 11,3 km/h (2 Bft) 98,36 %
25.01.2023 18:40 0,2 C 3,9 C 0,0 C 94 % 1026,5 hPa 0,0 l/m 11,1 km/h (2 Bft) SO 140 0 min 0,000 mm 0,0 UV-I 0 W/m -0,6 C -4,1 C 16,1 km/h (3 Bft) 93,62 %
25.01.2023 18:42 0,2 C 3,9 C 0,0 C 94 % 1026,5 hPa 0,0 l/m 8,3 km/h (2 Bft) SO 124 0 min 0,000 mm 0,0 UV-I 0 W/m -0,6 C -1,7 C 12,9 km/h (3 Bft) 97,62 %
25.01.2023 18:44 0,2 C 3,9 C 0,0 C 94 % 1026,4 hPa 0,0 l/m 5,8 km/h (2 Bft) SO 142 0 min 0,000 mm 0,0 UV-I 0 W/m -0,6 C 0,2 C 8,0 km/h (2 Bft) 98,08 %
25.01.2023 18:46 0,2 C 3,9 C 0,0 C 94 % 1026,4 hPa 0,0 l/m 6,1 km/h (2 Bft) S-SO 163 0 min 0,000 mm 0,0 UV-I 0 W/m -0,6 C 0,2 C 9,7 km/h (2 Bft) 93,62 %
25.01.2023 18:48 0,2 C 3,9 C 0,0 C 94 % 1026,4 hPa 0,0 l/m 3,8 km/h (1 Bft) S-SO 151 0 min 0,000 mm 0,0 UV-I 0 W/m -0,6 C 0,2 C 6,4 km/h (2 Bft) 95,74 %
25.01.2023 18:50 0,2 C 3,9 C 0,0 C 94 % 1026,4 hPa 0,0 l/m 6,6 km/h (2 Bft) O-SO 119 0 min 0,000 mm 0,0 UV-I 0 W/m -0,6 C 0,0 C 11,3 km/h (2 Bft) 100,00 %
25.01.2023 18:52 0,2 C 3,9 C 0,0 C 94 % 1026,4 hPa 0,0 l/m 4,8 km/h (1 Bft) O-SO 117 0 min 0,000 mm 0,0 UV-I 0 W/m -0,6 C 0,2 C 6,4 km/h (2 Bft) 95,74 %
25.01.2023 18:54 0,2 C 3,9 C 0,0 C 94 % 1026,4 hPa 0,0 l/m 4,9 km/h (1 Bft) O-SO 117 0 min 0,000 mm 0,0 UV-I 0 W/m -0,6 C 0,2 C 6,4 km/h (2 Bft) 98,00 %
25.01.2023 18:56 0,2 C 3,9 C 0,0 C 94 % 1026,3 hPa 0,0 l/m 2,6 km/h (1 Bft) O-SO 117 0 min 0,000 mm 0,0 UV-I 0 W/m -0,6 C 0,2 C 4,8 km/h (1 Bft) 95,74 %
25.01.2023 18:58 0,2 C 3,9 C 0,0 C 94 % 1026,2 hPa 0,0 l/m 1,8 km/h (1 Bft) SO 125 0 min 0,000 mm 0,0 UV-I 0 W/m -0,6 C 0,2 C 4,8 km/h (1 Bft) 97,87 %
25.01.2023 19:00 0,2 C 3,9 C 0,0 C 94 % 1026,2 hPa 0,0 l/m 4,6 km/h (1 Bft) SO 146 0 min 0,000 mm 0,0 UV-I 0 W/m -0,6 C 0,2 C 8,0 km/h (2 Bft) 98,00 %
25.01.2023 19:02 0,2 C 3,9 C 0,0 C 94 % 1026,1 hPa 0,0 l/m 5,2 km/h (1 Bft) SO 126 0 min 0,000 mm 0,0 UV-I 0 W/m -0,6 C 0,2 C 8,0 km/h (2 Bft) 100,00 %
25.01.2023 19:04 0,2 C 3,9 C 0,0 C 94 % 1026,1 hPa 0,0 l/m 5,8 km/h (2 Bft) S-SO 164 0 min 0,000 mm 0,0 UV-I 0 W/m -0,6 C 0,2 C 8,0 km/h (2 Bft) 97,87 %
25.01.2023 19:06 0,1 C 3,9 C 0,0 C 94 % 1026,1 hPa 0,0 l/m 5,0 km/h (1 Bft) S-SO 150 0 min 0,000 mm 0,0 UV-I 0 W/m -0,7 C 0,1 C 8,0 km/h (2 Bft) 100,00 %
25.01.2023 19:08 0,1 C 3,9 C 0,0 C 94 % 1026,1 hPa 0,0 l/m 5,3 km/h (1 Bft) SO 130 0 min 0,000 mm 0,0 UV-I 0 W/m -0,7 C 0,1 C 8,0 km/h (2 Bft) 97,37 %
25.01.2023 19:10 0,2 C 3,9 C 0,0 C 94 % 1026,1 hPa 0,0 l/m 2,6 km/h (1 Bft) SO 130 0 min 0,000 mm 0,0 UV-I 0 W/m -0,6 C 0,2 C 6,4 km/h (2 Bft) 100,00 %
25.01.2023 19:12 0,2 C 3,9 C 0,0 C 94 % 1026,0 hPa 0,0 l/m 3,6 km/h (1 Bft) SO 125 0 min 0,000 mm 0,0 UV-I 0 W/m -0,6 C 0,2 C 6,4 km/h (2 Bft) 100,00 %
25.01.2023 19:14 0,2 C 3,9 C 0,0 C 94 % 1026,1 hPa 0,0 l/m 4,0 km/h (1 Bft) SO 139 0 min 0,000 mm 0,0 UV-I 0 W/m -0,6 C 0,2 C 4,8 km/h (1 Bft) 92,86 %
25.01.2023 19:16 0,1 C 3,9 C 0,0 C 94 % 1026,0 hPa 0,0 l/m 3,1 km/h (1 Bft) SO 133 0 min 0,000 mm 0,0 UV-I 0 W/m -0,7 C 0,1 C 4,8 km/h (1 Bft) 98,00 %
25.01.2023 19:18 0,1 C 3,9 C 0,0 C 94 % 1026,0 hPa 0,0 l/m 3,3 km/h (1 Bft) SO 132 0 min 0,000 mm 0,0 UV-I 0 W/m -0,7 C 0,1 C 4,8 km/h (1 Bft) 97,87 %
25.01.2023 19:20 0,1 C 3,9 C 0,0 C 94 % 1026,0 hPa 0,0 l/m 4,5 km/h (1 Bft) SO 133 0 min 0,000 mm 0,0 UV-I 0 W/m -0,7 C 0,1 C 6,4 km/h (2 Bft) 100,00 %
25.01.2023 19:22 0,1 C 3,9 C 0,0 C 94 % 1026,0 hPa 0,0 l/m 3,6 km/h (1 Bft) O 101 0 min 0,000 mm 0,0 UV-I 0 W/m -0,7 C 0,1 C 6,4 km/h (2 Bft) 98,11 %
25.01.2023 19:24 0,1 C 3,9 C 0,0 C 94 % 1026,0 hPa 0,0 l/m 3,9 km/h (1 Bft) O-SO 117 0 min 0,000 mm 0,0 UV-I 0 W/m -0,7 C 0,1 C 6,4 km/h (2 Bft) 97,56 %
25.01.2023 19:26 0,1 C 3,9 C 0,0 C 94 % 1026,0 hPa 0,0 l/m 2,5 km/h (1 Bft) O-SO 119 0 min 0,000 mm 0,0 UV-I 0 W/m -0,7 C 0,1 C 4,8 km/h (1 Bft) 98,00 %
25.01.2023 19:28 0,1 C 3,9 C 0,0 C 94 % 1026,0 hPa 0,0 l/m 0,1 km/h (0 Bft) O-SO 119 0 min 0,000 mm 0,0 UV-I 0 W/m -0,7 C 0,1 C 1,6 km/h (1 Bft) 97,87 %
25.01.2023 19:30 0,1 C 3,9 C 0,0 C 94 % 1026,0 hPa 0,0 l/m 2,9 km/h (1 Bft) O-SO 118 0 min 0,000 mm 0,0 UV-I 0 W/m -0,7 C 0,1 C 4,8 km/h (1 Bft) 100,00 %
25.01.2023 19:32 0,1 C 3,9 C 0,0 C 94 % 1025,9 hPa 0,0 l/m 1,8 km/h (1 Bft) O-SO 118 0 min 0,000 mm 0,0 UV-I 0 W/m -0,7 C 0,1 C 3,2 km/h (1 Bft) 94,12 %
25.01.2023 19:34 0,2 C 3,9 C 0,0 C 94 % 1025,9 hPa 0,0 l/m 3,7 km/h (1 Bft) SO 146 0 min 0,000 mm 0,0 UV-I 0 W/m -0,6 C 0,2 C 6,4 km/h (2 Bft) 98,00 %
25.01.2023 19:36 0,2 C 3,9 C 0,0 C 94 % 1025,8 hPa 0,0 l/m 3,7 km/h (1 Bft) S-SO 153 0 min 0,000 mm 0,0 UV-I 0 W/m -0,6 C 0,2 C 6,4 km/h (2 Bft) 94,00 %
25.01.2023 19:38 0,1 C 3,9 C 0,0 C 94 % 1025,8 hPa 0,0 l/m 2,2 km/h (1 Bft) S-SO 154 0 min 0,000 mm 0,0 UV-I 0 W/m -0,7 C 0,1 C 4,8 km/h (1 Bft) 93,62 %
25.01.2023 19:40 0,2 C 3,9 C 0,0 C 94 % 1025,8 hPa 0,0 l/m 2,4 km/h (1 Bft) S-SO 153 0 min 0,000 mm 0,0 UV-I 0 W/m -0,6 C 0,2 C 4,8 km/h (1 Bft) 94,29 %
25.01.2023 19:42 0,1 C 3,9 C 0,0 C 94 % 1025,8 hPa 0,0 l/m 3,4 km/h (1 Bft) S-SO 153 0 min 0,000 mm 0,0 UV-I 0 W/m -0,7 C 0,1 C 4,8 km/h (1 Bft) 94,00 %
25.01.2023 19:44 0,1 C 3,9 C 0,0 C 94 % 1025,8 hPa 0,0 l/m 5,2 km/h (1 Bft) SO 124 0 min 0,000 mm 0,0 UV-I 0 W/m -0,7 C 0,1 C 8,0 km/h (2 Bft) 93,62 %
25.01.2023 19:46 0,1 C 3,9 C 0,0 C 94 % 1025,7 hPa 0,0 l/m 5,4 km/h (1 Bft) SO 137 0 min 0,000 mm 0,0 UV-I 0 W/m -0,7 C 0,1 C 6,4 km/h (2 Bft) 94,34 %
25.01.2023 19:48 0,1 C 3,9 C 0,0 C 94 % 1025,6 hPa 0,0 l/m 6,5 km/h (2 Bft) SO 130 0 min 0,000 mm 0,0 UV-I 0 W/m -0,7 C 0,0 C 12,9 km/h (3 Bft) 94,00 %
25.01.2023 19:50 0,1 C 3,9 C 0,0 C 94 % 1025,7 hPa 0,0 l/m 4,5 km/h (1 Bft) S-SO 155 0 min 0,000 mm 0,0 UV-I 0 W/m -0,7 C 0,1 C 8,0 km/h (2 Bft) 97,37 %
25.01.2023 19:52 0,1 C 3,9 C 0,0 C 94 % 1025,6 hPa 0,0 l/m 3,5 km/h (1 Bft) SO 146 0 min 0,000 mm 0,0 UV-I 0 W/m -0,7 C 0,1 C 4,8 km/h (1 Bft) 94,00 %
25.01.2023 19:54 0,1 C 3,9 C 0,0 C 94 % 1025,6 hPa 0,0 l/m 4,1 km/h (1 Bft) O-SO 123 0 min 0,000 mm 0,0 UV-I 0 W/m -0,7 C 0,1 C 6,4 km/h (2 Bft) 97,87 %
25.01.2023 19:56 0,1 C 3,9 C 0,0 C 94 % 1025,7 hPa 0,0 l/m 2,8 km/h (1 Bft) SO 130 0 min 0,000 mm 0,0 UV-I 0 W/m -0,7 C 0,1 C 4,8 km/h (1 Bft) 91,49 %
25.01.2023 19:58 0,1 C 3,9 C 0,0 C 94 % 1025,6 hPa 0,0 l/m 2,5 km/h (1 Bft) SO 130 0 min 0,000 mm 0,0 UV-I 0 W/m -0,7 C 0,1 C 4,8 km/h (1 Bft) 94,34 %
25.01.2023 20:00 0,1 C 3,9 C 0,0 C 94 % 1025,6 hPa 0,0 l/m 0,4 km/h (0 Bft) SO 130 0 min 0,000 mm 0,0 UV-I 0 W/m -0,7 C 0,1 C 3,2 km/h (1 Bft) 100,00 %
25.01.2023 20:02 0,1 C 3,9 C 0,0 C 94 % 1025,6 hPa 0,0 l/m 3,2 km/h (1 Bft) SO 130 0 min 0,000 mm 0,0 UV-I 0 W/m -0,7 C 0,1 C 4,8 km/h (1 Bft) 93,75 %
25.01.2023 20:04 0,1 C 3,9 C 0,0 C 94 % 1025,5 hPa 0,0 l/m 4,0 km/h (1 Bft) SO 132 0 min 0,000 mm 0,0 UV-I 0 W/m -0,7 C 0,1 C 4,8 km/h (1 Bft) 98,00 %
25.01.2023 20:06 0,1 C 3,9 C 0,0 C 94 % 1025,5 hPa 0,0 l/m 2,6 km/h (1 Bft) SO 132 0 min 0,000 mm 0,0 UV-I 0 W/m -0,7 C 0,1 C 4,8 km/h (1 Bft) 95,74 %
25.01.2023 20:08 0,1 C 3,9 C 0,0 C 94 % 1025,4 hPa 0,0 l/m 2,6 km/h (1 Bft) SO 132 0 min 0,000 mm 0,0 UV-I 0 W/m -0,7 C 0,1 C 4,8 km/h (1 Bft) 95,74 %
25.01.2023 20:10 0,1 C 3,9 C 0,0 C 94 % 1025,4 hPa 0,0 l/m 2,0 km/h (1 Bft) SO 136 0 min 0,000 mm 0,0 UV-I 0 W/m -0,7 C 0,1 C 4,8 km/h (1 Bft) 95,74 %
25.01.2023 20:12 0,1 C 3,9 C 0,0 C 94 % 1025,4 hPa 0,0 l/m 2,5 km/h (1 Bft) S-SO 154 0 min 0,000 mm 0,0 UV-I 0 W/m -0,7 C 0,1 C 4,8 km/h (1 Bft) 93,62 %
25.01.2023 20:14 0,1 C 3,9 C 0,0 C 94 % 1025,4 hPa 0,0 l/m 1,6 km/h (1 Bft) S-SO 154 0 min 0,000 mm 0,0 UV-I 0 W/m -0,7 C 0,1 C 4,8 km/h (1 Bft) 97,87 %
25.01.2023 20:16 0,1 C 3,9 C 0,0 C 94 % 1025,3 hPa 0,0 l/m 0,7 km/h (0 Bft) S-SO 154 0 min 0,000 mm 0,0 UV-I 0 W/m -0,7 C 0,1 C 3,2 km/h (1 Bft) 98,00 %
25.01.2023 20:18 0,1 C 3,9 C 0,0 C 94 % 1025,3 hPa 0,0 l/m 0,9 km/h (0 Bft) S-SO 154 0 min 0,000 mm 0,0 UV-I 0 W/m -0,7 C 0,1 C 3,2 km/h (1 Bft) 97,87 %
25.01.2023 20:20 0,1 C 3,9 C 0,0 C 95 % 1025,3 hPa 0,0 l/m 0,7 km/h (0 Bft) S-SO 154 0 min 0,000 mm 0,0 UV-I 0 W/m -0,6 C 0,1 C 3,2 km/h (1 Bft) 97,37 %
25.01.2023 20:22 0,1 C 3,9 C 0,0 C 95 % 1025,3 hPa 0,0 l/m 1,2 km/h (1 Bft) S-SO 154 0 min 0,000 mm 0,0 UV-I 0 W/m -0,6 C 0,1 C 3,2 km/h (1 Bft) 96,00 %
25.01.2023 20:24 0,1 C 3,9 C 0,0 C 95 % 1025,2 hPa 0,0 l/m 1,0 km/h (0 Bft) S-SO 154 0 min 0,000 mm 0,0 UV-I 0 W/m -0,6 C 0,1 C 3,2 km/h (1 Bft) 94,00 %
25.01.2023 20:26 0,1 C 3,9 C 0,0 C 95 % 1025,2 hPa 0,0 l/m 1,6 km/h (1 Bft) S-SO 155 0 min 0,000 mm 0,0 UV-I 0 W/m -0,6 C 0,1 C 3,2 km/h (1 Bft) 92,68 %
25.01.2023 20:28 0,1 C 3,9 C 0,0 C 95 % 1025,1 hPa 0,0 l/m 2,0 km/h (1 Bft) S-SO 155 0 min 0,000 mm 0,0 UV-I 0 W/m -0,6 C 0,1 C 3,2 km/h (1 Bft) 96,00 %
25.01.2023 20:30 0,1 C 3,9 C 0,0 C 95 % 1025,1 hPa 0,0 l/m 1,5 km/h (1 Bft) S-SO 155 0 min 0,000 mm 0,0 UV-I 0 W/m -0,6 C 0,1 C 3,2 km/h (1 Bft) 90,91 %
25.01.2023 20:32 0,1 C 3,9 C 0,0 C 95 % 1025,1 hPa 0,0 l/m 4,9 km/h (1 Bft) SO 134 0 min 0,000 mm 0,0 UV-I 0 W/m -0,6 C 0,1 C 8,0 km/h (2 Bft) 96,55 %
25.01.2023 20:34 0,1 C 3,9 C 0,0 C 95 % 1025,0 hPa 0,0 l/m 5,0 km/h (1 Bft) SO 131 0 min 0,000 mm 0,0 UV-I 0 W/m -0,6 C 0,1 C 9,7 km/h (2 Bft) 93,33 %
25.01.2023 20:36 0,1 C 3,9 C 0,0 C 95 % 1025,0 hPa 0,0 l/m 0,4 km/h (0 Bft) SO 131 0 min 0,000 mm 0,0 UV-I 0 W/m -0,6 C 0,1 C 1,6 km/h (1 Bft) 94,29 %
25.01.2023 20:38 0,1 C 3,9 C 0,0 C 95 % 1025,0 hPa 0,0 l/m 2,2 km/h (1 Bft) SO 132 0 min 0,000 mm 0,0 UV-I 0 W/m -0,6 C 0,1 C 4,8 km/h (1 Bft) 95,45 %
25.01.2023 20:40 0,1 C 3,9 C 0,0 C 95 % 1025,0 hPa 0,0 l/m 2,5 km/h (1 Bft) SO 132 0 min 0,000 mm 0,0 UV-I 0 W/m -0,6 C 0,1 C 3,2 km/h (1 Bft) 90,00 %
25.01.2023 20:42 0,1 C 3,9 C 0,0 C 95 % 1024,9 hPa 0,0 l/m 0,1 km/h (0 Bft) SO 132 0 min 0,000 mm 0,0 UV-I 0 W/m -0,6 C 0,1 C 1,6 km/h (1 Bft) 94,74 %
25.01.2023 20:44 0,1 C 3,9 C 0,0 C 95 % 1024,9 hPa 0,0 l/m 0,5 km/h (0 Bft) SO 132 0 min 0,000 mm 0,0 UV-I 0 W/m -0,6 C 0,1 C 1,6 km/h (1 Bft) 96,23 %
25.01.2023 20:46 0,1 C 3,9 C 0,0 C 95 % 1024,8 hPa 0,0 l/m 1,9 km/h (1 Bft) SO 131 0 min 0,000 mm 0,0 UV-I 0 W/m -0,6 C 0,1 C 3,2 km/h (1 Bft) 92,45 %
25.01.2023 20:48 0,1 C 3,9 C 0,0 C 95 % 1024,8 hPa 0,0 l/m 0,7 km/h (0 Bft) SO 132 0 min 0,000 mm 0,0 UV-I 0 W/m -0,6 C 0,1 C 3,2 km/h (1 Bft) 89,47 %
25.01.2023 20:50 0,1 C 3,9 C 0,0 C 95 % 1024,8 hPa 0,0 l/m 0,7 km/h (0 Bft) SO 132 0 min 0,000 mm 0,0 UV-I 0 W/m -0,6 C 0,1 C 1,6 km/h (1 Bft) 94,00 %
25.01.2023 20:52 0,1 C 3,9 C 0,0 C 95 % 1024,8 hPa 0,0 l/m 2,3 km/h (1 Bft) SO 132 0 min 0,000 mm 0,0 UV-I 0 W/m -0,6 C 0,1 C 4,8 km/h (1 Bft) 92,45 %
25.01.2023 20:54 0,0 C 3,9 C 0,0 C 95 % 1024,8 hPa 0,0 l/m 3,0 km/h (1 Bft) SO 132 0 min 0,000 mm 0,0 UV-I 0 W/m -0,7 C 0,0 C 4,8 km/h (1 Bft) 95,74 %
25.01.2023 20:56 0,0 C 3,9 C 0,0 C 95 % 1024,8 hPa 0,0 l/m 2,4 km/h (1 Bft) SO 132 0 min 0,000 mm 0,0 UV-I 0 W/m -0,7 C 0,0 C 4,8 km/h (1 Bft) 94,29 %
25.01.2023 20:58 0,0 C 3,9 C 0,0 C 95 % 1024,7 hPa 0,0 l/m 1,9 km/h (1 Bft) SO 133 0 min 0,000 mm 0,0 UV-I 0 W/m -0,7 C 0,0 C 3,2 km/h (1 Bft) 96,00 %
25.01.2023 21:00 0,0 C 3,9 C 0,0 C 95 % 1024,6 hPa 0,0 l/m 2,1 km/h (1 Bft) SO 133 0 min 0,000 mm 0,0 UV-I 0 W/m -0,7 C 0,0 C 4,8 km/h (1 Bft) 92,45 %
25.01.2023 21:02 0,0 C 3,9 C 0,0 C 95 % 1024,6 hPa 0,0 l/m 2,3 km/h (1 Bft) SO 133 0 min 0,000 mm 0,0 UV-I 0 W/m -0,7 C 0,0 C 3,2 km/h (1 Bft) 96,77 %
25.01.2023 21:04 0,0 C 3,9 C 0,0 C 95 % 1024,6 hPa 0,0 l/m 0,8 km/h (0 Bft) SO 134 0 min 0,000 mm 0,0 UV-I 0 W/m -0,7 C 0,0 C 3,2 km/h (1 Bft) 96,88 %
25.01.2023 21:06 0,0 C 3,9 C 0,0 C 95 % 1024,6 hPa 0,0 l/m 1,6 km/h (1 Bft) SO 134 0 min 0,000 mm 0,0 UV-I 0 W/m -0,7 C 0,0 C 4,8 km/h (1 Bft) 93,62 %
25.01.2023 21:08 0,0 C 3,9 C 0,0 C 95 % 1024,5 hPa 0,0 l/m 2,3 km/h (1 Bft) SO 133 0 min 0,000 mm 0,0 UV-I 0 W/m -0,7 C 0,0 C 3,2 km/h (1 Bft) 100,00 %
25.01.2023 21:10 0,0 C 3,9 C 0,0 C 95 % 1024,5 hPa 0,0 l/m 2,4 km/h (1 Bft) SO 133 0 min 0,000 mm 0,0 UV-I 0 W/m -0,7 C 0,0 C 4,8 km/h (1 Bft) 98,11 %
25.01.2023 21:12 0,0 C 3,9 C 0,0 C 95 % 1024,5 hPa 0,0 l/m 1,2 km/h (1 Bft) SO 133 0 min 0,000 mm 0,0 UV-I 0 W/m -0,7 C 0,0 C 3,2 km/h (1 Bft) 97,37 %
25.01.2023 21:14 0,0 C 3,9 C 0,0 C 95 % 1024,4 hPa 0,0 l/m 2,5 km/h (1 Bft) O-SO 111 0 min 0,000 mm 0,0 UV-I 0 W/m -0,7 C 0,0 C 4,8 km/h (1 Bft) 98,00 %
25.01.2023 21:16 0,0 C 3,9 C 0,0 C 95 % 1024,5 hPa 0,0 l/m 0,7 km/h (0 Bft) S-SO 150 0 min 0,000 mm 0,0 UV-I 0 W/m -0,7 C 0,0 C 3,2 km/h (1 Bft) 98,00 %
25.01.2023 21:18 0,0 C 3,9 C 0,0 C 95 % 1024,4 hPa 0,0 l/m 2,1 km/h (1 Bft) S-SO 152 0 min 0,000 mm 0,0 UV-I 0 W/m -0,7 C 0,0 C 4,8 km/h (1 Bft) 100,00 %
25.01.2023 21:20 0,0 C 3,9 C 0,0 C 95 % 1024,4 hPa 0,0 l/m 3,2 km/h (1 Bft) S-SO 167 0 min 0,000 mm 0,0 UV-I 0 W/m -0,7 C 0,0 C 6,4 km/h (2 Bft) 100,00 %
25.01.2023 21:22 0,0 C 3,9 C 0,0 C 95 % 1024,4 hPa 0,0 l/m 1,7 km/h (1 Bft) SO 136 0 min 0,000 mm 0,0 UV-I 0 W/m -0,7 C 0,0 C 6,4 km/h (2 Bft) 100,00 %
25.01.2023 21:24 0,0 C 3,9 C 0,0 C 95 % 1024,4 hPa 0,0 l/m 3,3 km/h (1 Bft) SO 136 0 min 0,000 mm 0,0 UV-I 0 W/m -0,7 C 0,0 C 6,4 km/h (2 Bft) 100,00 %
25.01.2023 21:26 0,0 C 3,9 C 0,0 C 95 % 1024,4 hPa 0,0 l/m 1,5 km/h (1 Bft) SO 136 0 min 0,000 mm 0,0 UV-I 0 W/m -0,7 C 0,0 C 3,2 km/h (1 Bft) 100,00 %
25.01.2023 21:28 0,1 C 3,9 C 0,0 C 95 % 1024,4 hPa 0,0 l/m 1,6 km/h (1 Bft) SO 136 0 min 0,000 mm 0,0 UV-I 0 W/m -0,6 C 0,1 C 3,2 km/h (1 Bft) 97,92 %
25.01.2023 21:30 0,1 C 3,9 C 0,0 C 95 % 1024,4 hPa 0,0 l/m 0,4 km/h (0 Bft) SO 136 0 min 0,000 mm 0,0 UV-I 0 W/m -0,6 C 0,1 C 1,6 km/h (1 Bft) 95,65 %
25.01.2023 21:32 0,1 C 3,9 C 0,0 C 95 % 1024,3 hPa 0,0 l/m 0,4 km/h (0 Bft) SO 136 0 min 0,000 mm 0,0 UV-I 0 W/m -0,6 C 0,1 C 1,6 km/h (1 Bft) 97,44 %
25.01.2023 21:34 0,0 C 3,9 C 0,0 C 95 % 1024,3 hPa 0,0 l/m 0,0 km/h (0 Bft) SO 136 0 min 0,000 mm 0,0 UV-I 0 W/m -0,7 C 0,0 C 0,0 km/h (0 Bft) 98,00 %
25.01.2023 21:36 0,1 C 3,9 C 0,0 C 95 % 1024,3 hPa 0,0 l/m 0,0 km/h (0 Bft) SO 136 0 min 0,000 mm 0,0 UV-I 0 W/m -0,6 C 0,1 C 0,0 km/h (0 Bft) 98,00 %
25.01.2023 21:38 0,1 C 3,9 C 0,0 C 95 % 1024,3 hPa 0,0 l/m 0,0 km/h (0 Bft) SO 136 0 min 0,000 mm 0,0 UV-I 0 W/m -0,6 C 0,1 C 0,0 km/h (0 Bft) 95,74 %
25.01.2023 21:40 0,1 C 3,9 C 0,0 C 95 % 1024,2 hPa 0,0 l/m 0,0 km/h (0 Bft) SO 136 0 min 0,000 mm 0,0 UV-I 0 W/m -0,6 C 0,1 C 0,0 km/h (0 Bft) 100,00 %
25.01.2023 21:42 0,1 C 3,9 C 0,0 C 95 % 1024,2 hPa 0,0 l/m 0,9 km/h (0 Bft) SO 136 0 min 0,000 mm 0,0 UV-I 0 W/m -0,6 C 0,1 C 3,2 km/h (1 Bft) 100,00 %
25.01.2023 21:44 0,1 C 3,9 C 0,0 C 95 % 1024,2 hPa 0,0 l/m 0,1 km/h (0 Bft) SO 136 0 min 0,000 mm 0,0 UV-I 0 W/m -0,6 C 0,1 C 1,6 km/h (1 Bft) 100,00 %
25.01.2023 21:46 0,1 C 3,9 C 0,0 C 95 % 1024,2 hPa 0,0 l/m 0,0 km/h (0 Bft) SO 136 0 min 0,000 mm 0,0 UV-I 0 W/m -0,6 C 0,1 C 1,6 km/h (1 Bft) 100,00 %
25.01.2023 21:48 0,0 C 3,9 C 0,0 C 95 % 1024,2 hPa 0,0 l/m 1,1 km/h (1 Bft) SO 138 0 min 0,000 mm 0,0 UV-I 0 W/m -0,7 C 0,0 C 3,2 km/h (1 Bft) 100,00 %
25.01.2023 21:50 0,1 C 3,9 C 0,0 C 95 % 1024,2 hPa 0,0 l/m 0,6 km/h (0 Bft) SO 138 0 min 0,000 mm 0,0 UV-I 0 W/m -0,6 C 0,1 C 3,2 km/h (1 Bft) 100,00 %
25.01.2023 21:52 0,0 C 3,9 C 0,0 C 95 % 1024,1 hPa 0,0 l/m 0,8 km/h (0 Bft) SO 138 0 min 0,000 mm 0,0 UV-I 0 W/m -0,7 C 0,0 C 3,2 km/h (1 Bft) 100,00 %
25.01.2023 21:54 0,1 C 3,9 C 0,0 C 95 % 1024,1 hPa 0,0 l/m 1,3 km/h (1 Bft) SO 138 0 min 0,000 mm 0,0 UV-I 0 W/m -0,6 C 0,1 C 3,2 km/h (1 Bft) 98,00 %
25.01.2023 21:56 0,0 C 3,9 C 0,0 C 95 % 1024,1 hPa 0,0 l/m 0,0 km/h (0 Bft) SO 138 0 min 0,000 mm 0,0 UV-I 0 W/m -0,7 C 0,0 C 0,0 km/h (0 Bft) 100,00 %
25.01.2023 21:58 0,0 C 3,9 C 0,0 C 95 % 1024,1 hPa 0,0 l/m 2,4 km/h (1 Bft) O-NO 74 0 min 0,000 mm 0,0 UV-I 0 W/m -0,7 C 0,0 C 4,8 km/h (1 Bft) 97,56 %
25.01.2023 22:00 0,1 C 3,9 C 0,0 C 95 % 1024,0 hPa 0,0 l/m 2,6 km/h (1 Bft) O-NO 71 0 min 0,000 mm 0,0 UV-I 0 W/m -0,6 C 0,1 C 3,2 km/h (1 Bft) 100,00 %
25.01.2023 22:02 0,1 C 3,9 C 0,0 C 95 % 1024,0 hPa 0,0 l/m 1,9 km/h (1 Bft) O-NO 71 0 min 0,000 mm 0,0 UV-I 0 W/m -0,6 C 0,1 C 3,2 km/h (1 Bft) 96,00 %
25.01.2023 22:04 0,0 C 3,9 C 0,0 C 95 % 1024,0 hPa 0,0 l/m 1,3 km/h (1 Bft) O-NO 71 0 min 0,000 mm 0,0 UV-I 0 W/m -0,7 C 0,0 C 1,6 km/h (1 Bft) 95,74 %
25.01.2023 22:06 0,0 C 3,9 C 0,0 C 95 % 1024,0 hPa 0,0 l/m 1,9 km/h (1 Bft) O-NO 71 0 min 0,000 mm 0,0 UV-I 0 W/m -0,7 C 0,0 C 3,2 km/h (1 Bft) 95,74 %
25.01.2023 22:08 0,0 C 3,9 C 0,0 C 95 % 1024,0 hPa 0,0 l/m 1,2 km/h (1 Bft) O-NO 71 0 min 0,000 mm 0,0 UV-I 0 W/m -0,7 C 0,0 C 3,2 km/h (1 Bft) 100,00 %
25.01.2023 22:10 0,0 C 3,9 C 0,0 C 95 % 1024,0 hPa 0,0 l/m 1,8 km/h (1 Bft) O-NO 71 0 min 0,000 mm 0,0 UV-I 0 W/m -0,7 C 0,0 C 3,2 km/h (1 Bft) 94,00 %
25.01.2023 22:12 0,0 C 3,9 C 0,0 C 95 % 1023,9 hPa 0,0 l/m 0,1 km/h (0 Bft) O-NO 71 0 min 0,000 mm 0,0 UV-I 0 W/m -0,7 C 0,0 C 1,6 km/h (1 Bft) 98,11 %
25.01.2023 22:14 0,0 C 3,9 C 0,0 C 95 % 1023,9 hPa 0,0 l/m 2,2 km/h (1 Bft) O-NO 72 0 min 0,000 mm 0,0 UV-I 0 W/m -0,7 C 0,0 C 3,2 km/h (1 Bft) 95,12 %
25.01.2023 22:16 0,0 C 3,9 C 0,0 C 95 % 1023,9 hPa 0,0 l/m 1,3 km/h (1 Bft) O-NO 72 0 min 0,000 mm 0,0 UV-I 0 W/m -0,7 C 0,0 C 3,2 km/h (1 Bft) 93,62 %
25.01.2023 22:18 0,0 C 3,9 C 0,0 C 95 % 1023,8 hPa 0,0 l/m 2,5 km/h (1 Bft) O-NO 74 0 min 0,000 mm 0,0 UV-I 0 W/m -0,7 C 0,0 C 3,2 km/h (1 Bft) 100,00 %
25.01.2023 22:20 0,0 C 3,9 C 0,0 C 95 % 1023,9 hPa 0,0 l/m 5,8 km/h (2 Bft) O 101 0 min 0,000 mm 0,0 UV-I 0 W/m -0,7 C 0,0 C 9,7 km/h (2 Bft) 100,00 %
25.01.2023 22:22 0,0 C 3,9 C 0,0 C 95 % 1023,8 hPa 0,0 l/m 3,9 km/h (1 Bft) O 101 0 min 0,000 mm 0,0 UV-I 0 W/m -0,7 C 0,0 C 6,4 km/h (2 Bft) 96,00 %
25.01.2023 22:24 0,1 C 3,9 C 0,0 C 95 % 1023,8 hPa 0,0 l/m 4,0 km/h (1 Bft) SO 141 0 min 0,000 mm 0,0 UV-I 0 W/m -0,6 C 0,1 C 6,4 km/h (2 Bft) 100,00 %
25.01.2023 22:26 0,0 C 3,9 C 0,0 C 95 % 1023,8 hPa 0,0 l/m 3,4 km/h (1 Bft) O-SO 120 0 min 0,000 mm 0,0 UV-I 0 W/m -0,7 C 0,0 C 6,4 km/h (2 Bft) 97,37 %
25.01.2023 22:28 0,1 C 3,9 C 0,0 C 95 % 1023,8 hPa 0,0 l/m 2,6 km/h (1 Bft) O-SO 121 0 min 0,000 mm 0,0 UV-I 0 W/m -0,6 C 0,1 C 4,8 km/h (1 Bft) 100,00 %
25.01.2023 22:30 0,0 C 3,9 C 0,0 C 95 % 1023,8 hPa 0,0 l/m 4,1 km/h (1 Bft) O 88 0 min 0,000 mm 0,0 UV-I 0 W/m -0,7 C 0,0 C 6,4 km/h (2 Bft) 98,00 %
25.01.2023 22:32 0,1 C 3,9 C 0,0 C 95 % 1023,8 hPa 0,0 l/m 5,2 km/h (1 Bft) O 96 0 min 0,000 mm 0,0 UV-I 0 W/m -0,6 C 0,1 C 9,7 km/h (2 Bft) 100,00 %
25.01.2023 22:34 0,1 C 3,9 C 0,0 C 95 % 1023,8 hPa 0,0 l/m 3,2 km/h (1 Bft) O-SO 117 0 min 0,000 mm 0,0 UV-I 0 W/m -0,6 C 0,1 C 6,4 km/h (2 Bft) 96,23 %
25.01.2023 22:36 0,1 C 3,9 C 0,0 C 95 % 1023,8 hPa 0,0 l/m 4,7 km/h (1 Bft) O-NO 65 0 min 0,000 mm 0,0 UV-I 0 W/m -0,6 C 0,1 C 9,7 km/h (2 Bft) 96,00 %
25.01.2023 22:38 0,1 C 3,9 C 0,0 C 95 % 1023,9 hPa 0,0 l/m 4,2 km/h (1 Bft) O-NO 65 0 min 0,000 mm 0,0 UV-I 0 W/m -0,6 C 0,1 C 6,4 km/h (2 Bft) 97,87 %
25.01.2023 22:40 0,1 C 3,9 C 0,0 C 94 % 1023,8 hPa 0,0 l/m 3,7 km/h (1 Bft) O-NO 63 0 min 0,000 mm 0,0 UV-I 0 W/m -0,7 C 0,1 C 4,8 km/h (1 Bft) 97,14 %
25.01.2023 22:42 0,1 C 3,9 C 0,0 C 94 % 1023,8 hPa 0,0 l/m 3,6 km/h (1 Bft) NO 51 0 min 0,000 mm 0,0 UV-I 0 W/m -0,7 C 0,1 C 4,8 km/h (1 Bft) 96,00 %
25.01.2023 22:44 0,1 C 3,9 C 0,0 C 94 % 1023,8 hPa 0,0 l/m 0,6 km/h (0 Bft) NO 51 0 min 0,000 mm 0,0 UV-I 0 W/m -0,7 C 0,1 C 3,2 km/h (1 Bft) 95,74 %
25.01.2023 22:46 0,1 C 3,9 C 0,0 C 94 % 1023,8 hPa 0,0 l/m 1,2 km/h (1 Bft) NO 51 0 min 0,000 mm 0,0 UV-I 0 W/m -0,7 C 0,1 C 1,6 km/h (1 Bft) 95,74 %
25.01.2023 22:48 0,1 C 3,9 C 0,0 C 94 % 1023,8 hPa 0,0 l/m 1,6 km/h (1 Bft) NO 53 0 min 0,000 mm 0,0 UV-I 0 W/m -0,7 C 0,1 C 3,2 km/h (1 Bft) 96,00 %
25.01.2023 22:50 0,1 C 3,9 C 0,0 C 94 % 1023,7 hPa 0,0 l/m 0,1 km/h (0 Bft) O 79 0 min 0,000 mm 0,0 UV-I 0 W/m -0,7 C 0,1 C 1,6 km/h (1 Bft) 94,34 %
25.01.2023 22:52 0,1 C 3,9 C 0,0 C 94 % 1023,7 hPa 0,0 l/m 2,1 km/h (1 Bft) O 82 0 min 0,000 mm 0,0 UV-I 0 W/m -0,7 C 0,1 C 4,8 km/h (1 Bft) 100,00 %
25.01.2023 22:54 0,1 C 3,9 C 0,0 C 94 % 1023,7 hPa 0,0 l/m 1,3 km/h (1 Bft) O 82 0 min 0,000 mm 0,0 UV-I 0 W/m -0,7 C 0,1 C 3,2 km/h (1 Bft) 94,34 %
25.01.2023 22:56 0,1 C 3,9 C 0,0 C 94 % 1023,6 hPa 0,0 l/m 0,2 km/h (0 Bft) O 82 0 min 0,000 mm 0,0 UV-I 0 W/m -0,7 C 0,1 C 1,6 km/h (1 Bft) 95,12 %
25.01.2023 22:58 0,1 C 3,9 C 0,0 C 94 % 1023,6 hPa 0,0 l/m 0,1 km/h (0 Bft) O 82 0 min 0,000 mm 0,0 UV-I 0 W/m -0,7 C 0,1 C 1,6 km/h (1 Bft) 98,00 %
25.01.2023 23:00 0,1 C 3,9 C 0,0 C 94 % 1023,6 hPa 0,0 l/m 2,1 km/h (1 Bft) O 82 0 min 0,000 mm 0,0 UV-I 0 W/m -0,7 C 0,1 C 3,2 km/h (1 Bft) 95,74 %
25.01.2023 23:02 0,1 C 3,9 C 0,0 C 94 % 1023,6 hPa 0,0 l/m 1,9 km/h (1 Bft) O 82 0 min 0,000 mm 0,0 UV-I 0 W/m -0,7 C 0,1 C 4,8 km/h (1 Bft) 95,12 %
25.01.2023 23:04 0,1 C 3,9 C 0,0 C 94 % 1023,5 hPa 0,0 l/m 3,8 km/h (1 Bft) O-SO 122 0 min 0,000 mm 0,0 UV-I 0 W/m -0,7 C 0,1 C 6,4 km/h (2 Bft) 98,00 %
25.01.2023 23:06 0,1 C 3,9 C 0,0 C 94 % 1023,5 hPa 0,0 l/m 3,7 km/h (1 Bft) O-SO 117 0 min 0,000 mm 0,0 UV-I 0 W/m -0,7 C 0,1 C 8,0 km/h (2 Bft) 98,00 %
25.01.2023 23:08 0,1 C 3,9 C 0,0 C 94 % 1023,5 hPa 0,0 l/m 3,7 km/h (1 Bft) O-SO 123 0 min 0,000 mm 0,0 UV-I 0 W/m -0,7 C 0,1 C 6,4 km/h (2 Bft) 97,87 %
25.01.2023 23:10 0,1 C 3,9 C 0,0 C 94 % 1023,5 hPa 0,0 l/m 4,8 km/h (1 Bft) O-SO 111 0 min 0,000 mm 0,0 UV-I 0 W/m -0,7 C 0,1 C 11,3 km/h (2 Bft) 98,00 %
25.01.2023 23:12 0,1 C 3,9 C 0,0 C 94 % 1023,4 hPa 0,0 l/m 7,6 km/h (2 Bft) O 96 0 min 0,000 mm 0,0 UV-I 0 W/m -0,7 C -1,1 C 11,3 km/h (2 Bft) 100,00 %
25.01.2023 23:14 0,1 C 3,9 C 0,0 C 94 % 1023,4 hPa 0,0 l/m 7,8 km/h (2 Bft) O 83 0 min 0,000 mm 0,0 UV-I 0 W/m -0,7 C -1,3 C 12,9 km/h (3 Bft) 98,00 %
25.01.2023 23:16 0,1 C 3,9 C 0,0 C 94 % 1023,4 hPa 0,0 l/m 10,0 km/h (2 Bft) O 93 0 min 0,000 mm 0,0 UV-I 0 W/m -0,7 C -3,3 C 14,5 km/h (3 Bft) 92,00 %
25.01.2023 23:18 0,1 C 3,9 C 0,0 C 94 % 1023,4 hPa 0,0 l/m 6,4 km/h (2 Bft) O 98 0 min 0,000 mm 0,0 UV-I 0 W/m -0,7 C 0,1 C 11,3 km/h (2 Bft) 100,00 %
25.01.2023 23:20 0,1 C 3,9 C 0,0 C 94 % 1023,4 hPa 0,0 l/m 4,7 km/h (1 Bft) O 89 0 min 0,000 mm 0,0 UV-I 0 W/m -0,7 C 0,1 C 8,0 km/h (2 Bft) 98,11 %
25.01.2023 23:22 0,1 C 3,9 C 0,0 C 94 % 1023,3 hPa 0,0 l/m 8,6 km/h (2 Bft) NO 51 0 min 0,000 mm 0,0 UV-I 0 W/m -0,7 C -2,1 C 12,9 km/h (3 Bft) 96,00 %
25.01.2023 23:24 0,1 C 3,9 C 0,0 C 94 % 1023,3 hPa 0,0 l/m 5,9 km/h (2 Bft) NO 50 0 min 0,000 mm 0,0 UV-I 0 W/m -0,7 C 0,1 C 9,7 km/h (2 Bft) 97,73 %
25.01.2023 23:26 0,1 C 3,9 C 0,0 C 94 % 1023,3 hPa 0,0 l/m 8,5 km/h (2 Bft) O-NO 67 0 min 0,000 mm 0,0 UV-I 0 W/m -0,7 C -2,0 C 16,1 km/h (3 Bft) 97,56 %
25.01.2023 23:28 0,1 C 3,9 C 0,0 C 94 % 1023,3 hPa 0,0 l/m 5,8 km/h (2 Bft) O-NO 76 0 min 0,000 mm 0,0 UV-I 0 W/m -0,7 C 0,1 C 11,3 km/h (2 Bft) 96,23 %
25.01.2023 23:30 0,1 C 3,9 C 0,0 C 94 % 1023,3 hPa 0,0 l/m 9,1 km/h (2 Bft) O 90 0 min 0,000 mm 0,0 UV-I 0 W/m -0,7 C -2,6 C 12,9 km/h (3 Bft) 97,56 %
25.01.2023 23:32 0,1 C 3,9 C 0,0 C 94 % 1023,3 hPa 0,0 l/m 4,9 km/h (1 Bft) O-NO 74 0 min 0,000 mm 0,0 UV-I 0 W/m -0,7 C 0,1 C 9,7 km/h (2 Bft) 97,14 %
25.01.2023 23:34 0,1 C 3,9 C 0,0 C 94 % 1023,3 hPa 0,0 l/m 3,8 km/h (1 Bft) O 93 0 min 0,000 mm 0,0 UV-I 0 W/m -0,7 C 0,1 C 4,8 km/h (1 Bft) 95,38 %
25.01.2023 23:36 0,1 C 3,9 C 0,0 C 94 % 1023,2 hPa 0,0 l/m 3,7 km/h (1 Bft) O 88 0 min 0,000 mm 0,0 UV-I 0 W/m -0,7 C 0,1 C 8,0 km/h (2 Bft) 97,37 %
25.01.2023 23:38 0,1 C 3,9 C 0,0 C 94 % 1023,2 hPa 0,0 l/m 6,3 km/h (2 Bft) NO 45 0 min 0,000 mm 0,0 UV-I 0 W/m -0,7 C 0,1 C 8,0 km/h (2 Bft) 92,86 %
25.01.2023 23:40 0,1 C 3,9 C 0,0 C 94 % 1023,2 hPa 0,0 l/m 3,3 km/h (1 Bft) O-NO 58 0 min 0,000 mm 0,0 UV-I 0 W/m -0,7 C 0,1 C 4,8 km/h (1 Bft) 97,37 %
25.01.2023 23:42 0,1 C 3,9 C 0,0 C 94 % 1023,2 hPa 0,0 l/m 6,3 km/h (2 Bft) O 90 0 min 0,000 mm 0,0 UV-I 0 W/m -0,7 C 0,1 C 11,3 km/h (2 Bft) 98,11 %
25.01.2023 23:44 0,0 C 3,9 C 0,0 C 94 % 1023,2 hPa 0,0 l/m 4,6 km/h (1 Bft) O 92 0 min 0,000 mm 0,0 UV-I 0 W/m -0,8 C 0,0 C 6,4 km/h (2 Bft) 98,00 %
25.01.2023 23:46 0,0 C 3,9 C 0,0 C 94 % 1023,1 hPa 0,0 l/m 4,2 km/h (1 Bft) O-NO 69 0 min 0,000 mm 0,0 UV-I 0 W/m -0,8 C 0,0 C 6,4 km/h (2 Bft) 97,56 %
25.01.2023 23:48 0,1 C 3,9 C 0,0 C 94 % 1023,1 hPa 0,0 l/m 3,5 km/h (1 Bft) NO 49 0 min 0,000 mm 0,0 UV-I 0 W/m -0,7 C 0,1 C 4,8 km/h (1 Bft) 98,00 %
25.01.2023 23:50 0,0 C 3,9 C 0,0 C 94 % 1023,0 hPa 0,0 l/m 2,5 km/h (1 Bft) NO 50 0 min 0,000 mm 0,0 UV-I 0 W/m -0,8 C 0,0 C 3,2 km/h (1 Bft) 96,00 %
25.01.2023 23:52 0,1 C 3,9 C 0,0 C 94 % 1023,0 hPa 0,0 l/m 3,6 km/h (1 Bft) O 80 0 min 0,000 mm 0,0 UV-I 0 W/m -0,7 C 0,1 C 6,4 km/h (2 Bft) 95,12 %
25.01.2023 23:54 0,0 C 3,9 C 0,0 C 94 % 1022,9 hPa 0,0 l/m 3,7 km/h (1 Bft) NO 38 0 min 0,000 mm 0,0 UV-I 0 W/m -0,8 C 0,0 C 6,4 km/h (2 Bft) 97,87 %
25.01.2023 23:56 0,0 C 3,9 C 0,0 C 94 % 1022,9 hPa 0,0 l/m 3,1 km/h (1 Bft) NO 39 0 min 0,000 mm 0,0 UV-I 0 W/m -0,8 C 0,0 C 4,8 km/h (1 Bft) 97,14 %
25.01.2023 23:58 0,1 C 3,9 C 0,0 C 94 % 1022,9 hPa 0,0 l/m 3,8 km/h (1 Bft) N-NO 25 0 min 0,000 mm 0,0 UV-I 0 W/m -0,7 C 0,1 C 6,4 km/h (2 Bft) 96,92 %
_ Min-Zeit 22:16 00:00 00:56 04:38 23:54 - 21:34 - - - - - - 23:44 01:08 21:34 02:26
Minimum _ -0,1 C 3,9 C 0,0 C 93 % 1022,9 hPa - 0,0 km/h (0 Bft) - - - - - - -0,8 C -6,9 C 0,0 km/h (0 Bft) 87,23 %
_ Max-Zeit 01:20 00:00 13:06 00:00 00:00 00:00 01:08 - - 00:00 12:00 00:00 13:00 00:00 01:32 01:08 00:02
Maximum _ 0,9 C 3,9 C 1,1 C 96 % 1034,4 hPa 0,0 l/m 16,6 km/h
O (3 Bft)
- - 0 min 0,026 mm 0,0 UV-I 46 W/m 0,1 C 0,8 C 24,1 km/h
O-NO (4 Bft)
100,00 %
Durchschnitt _ 0,4 C 3,9 C 0,2 C 94 % 1029,9 hPa #0,0 l/m 6,5 km/h (2 Bft) O-NO - #0 min. #0,127 mm 0,0 UV-I 27 W/m -0,4 C -0,8 C 10,2 km/h (2 Bft) 97,19 %